[[{"header":{"parameterUnit":"m.s-1","parameterCategory":1,"la1":30.6,"la2":29.2853,"lo1":-89.7004,"lo2":-87.6739,"dy":0.0162,"dx":0.0183,"nx":112,"ny":82,"refTime":"2023-05-05T18:00:00:Z","depth":0,"parameterNumber":2,"parameterNumberName":"U-component_of_WINDS"},"data":[0.0,0.0,0.0,0.0,0.0,0.0,0.0,0.0,0.0,0.0,0.0,0.0,0.0,0.0,0.0,0.0,0.0,0.0,0.0,0.0,0.0,0.0,0.0,0.0,0.0,0.0,0.0,0.0,0.0,0.0,0.0,0.0,0.0,0.0,0.0,0.0,0.0,0.0,0.0,0.0,0.0,0.0,0.0,0.0,0.0,0.0,0.0,0.0,0.0,0.0,0.0,0.0,0.0,0.0,0.0,0.0,0.0,0.0,0.0,0.0,0.0,0.0,0.0,0.0,0.0,0.0,0.0,0.0,0.0,0.0,0.0,0.0,0.0,0.0,0.0,0.0,0.0,0.0,0.0,0.0,0.0,0.0,0.0,0.0,0.0,0.0,0.0,0.0,0.0,0.0,-2.6505,-2.6989,-2.7049,-2.7124,-2.7297,-2.7083,-2.6942,-2.6942,0.0,0.0,0.0,0.0,0.0,0.0,0.0,0.0,0.0,0.0,0.0,0.0,0.0,0.0,0.0,0.0,0.0,0.0,0.0,0.0,0.0,0.0,0.0,0.0,0.0,0.0,0.0,0.0,0.0,0.0,0.0,0.0,0.0,0.0,0.0,0.0,0.0,0.0,0.0,0.0,0.0,0.0,0.0,0.0,0.0,0.0,0.0,0.0,0.0,0.0,0.0,0.0,0.0,0.0,0.0,0.0,0.0,0.0,0.0,0.0,0.0,0.0,0.0,0.0,0.0,0.0,0.0,0.0,0.0,0.0,0.0,0.0,0.0,0.0,0.0,0.0,0.0,0.0,0.0,0.0,0.0,0.0,0.0,0.0,0.0,0.0,0.0,0.0,0.0,0.0,0.0,0.0,0.0,0.0,0.0,0.0,0.0,0.0,0.0,0.0,0.0,0.0,0.0,0.0,-2.6027,-2.6399,-2.6446,-2.6458,-2.6496,-2.6845,-2.7077,-2.7077,0.0,0.0,0.0,0.0,0.0,0.0,0.0,0.0,0.0,0.0,0.0,0.0,0.0,0.0,0.0,0.0,0.0,0.0,0.0,0.0,0.0,0.0,0.0,0.0,0.0,0.0,0.0,0.0,0.0,0.0,0.0,0.0,0.0,0.0,0.0,0.0,0.0,0.0,0.0,0.0,0.0,0.0,0.0,0.0,0.0,0.0,0.0,0.0,0.0,0.0,0.0,0.0,0.0,0.0,0.0,0.0,0.0,0.0,0.0,0.0,0.0,0.0,0.0,0.0,0.0,0.0,0.0,0.0,0.0,0.0,0.0,0.0,0.0,0.0,0.0,0.0,0.0,0.0,0.0,0.0,0.0,0.0,0.0,0.0,0.0,0.0,0.0,0.0,0.0,0.0,0.0,0.0,0.0,0.0,0.0,0.0,0.0,0.0,0.0,0.0,0.0,0.0,0.0,-2.6174,-2.6511,-2.6925,-2.6944,-2.7022,-2.7152,-2.7177,-2.7185,-2.7317,-2.6765,0.0,0.0,0.0,0.0,0.0,0.0,0.0,0.0,0.0,0.0,0.0,0.0,0.0,0.0,0.0,0.0,0.0,0.0,0.0,0.0,0.0,0.0,0.0,0.0,0.0,0.0,0.0,0.0,0.0,0.0,0.0,0.0,0.0,0.0,0.0,0.0,0.0,0.0,0.0,0.0,0.0,0.0,0.0,0.0,0.0,0.0,0.0,0.0,0.0,0.0,0.0,0.0,0.0,0.0,0.0,0.0,0.0,0.0,0.0,0.0,0.0,0.0,0.0,0.0,0.0,0.0,0.0,0.0,0.0,0.0,0.0,0.0,0.0,0.0,0.0,0.0,0.0,0.0,0.0,0.0,0.0,0.0,0.0,0.0,0.0,0.0,0.0,0.0,0.0,0.0,0.0,0.0,0.0,0.0,0.0,0.0,0.0,0.0,0.0,0.0,0.0,0.0,-2.623,-2.6737,-2.7221,-2.7278,-2.7371,-2.7598,-2.7249,-2.7103,-2.7278,-2.6839,0.0,0.0,0.0,0.0,0.0,0.0,0.0,0.0,0.0,0.0,0.0,0.0,0.0,0.0,0.0,0.0,0.0,0.0,0.0,0.0,0.0,0.0,0.0,0.0,0.0,0.0,0.0,0.0,0.0,0.0,0.0,0.0,0.0,0.0,0.0,0.0,0.0,0.0,0.0,0.0,0.0,0.0,0.0,0.0,0.0,0.0,0.0,0.0,0.0,0.0,0.0,0.0,0.0,0.0,0.0,0.0,0.0,0.0,0.0,0.0,0.0,0.0,0.0,0.0,0.0,0.0,0.0,0.0,0.0,0.0,0.0,0.0,0.0,0.0,0.0,0.0,0.0,0.0,0.0,0.0,0.0,0.0,0.0,0.0,0.0,0.0,0.0,0.0,0.0,0.0,0.0,0.0,0.0,0.0,0.0,0.0,0.0,0.0,0.0,0.0,0.0,0.0,-2.5599,-2.6053,-2.6629,-2.6674,-2.6685,-2.6685,-2.6674,-2.6644,-2.6674,-2.6633,0.0,0.0,0.0,0.0,0.0,0.0,0.0,0.0,0.0,0.0,0.0,0.0,0.0,0.0,0.0,0.0,0.0,0.0,0.0,0.0,0.0,0.0,0.0,0.0,0.0,0.0,0.0,0.0,0.0,0.0,0.0,0.0,0.0,0.0,0.0,0.0,0.0,0.0,0.0,0.0,0.0,0.0,0.0,0.0,0.0,0.0,0.0,0.0,0.0,0.0,0.0,0.0,0.0,0.0,0.0,0.0,0.0,0.0,0.0,0.0,0.0,0.0,0.0,0.0,0.0,0.0,0.0,0.0,0.0,0.0,0.0,0.0,0.0,0.0,0.0,0.0,0.0,0.0,0.0,0.0,0.0,0.0,0.0,0.0,0.0,0.0,0.0,0.0,0.0,0.0,0.0,0.0,0.0,0.0,0.0,0.0,0.0,0.0,0.0,0.0,0.0,0.0,-2.544,-2.6013,-2.6547,-2.6603,-2.6603,-2.6603,-2.6437,-2.6437,-2.6603,0.0,0.0,0.0,0.0,0.0,0.0,0.0,0.0,0.0,0.0,0.0,0.0,0.0,0.0,0.0,0.0,0.0,0.0,0.0,0.0,0.0,0.0,0.0,0.0,0.0,0.0,0.0,0.0,0.0,0.0,0.0,0.0,0.0,0.0,0.0,0.0,0.0,0.0,0.0,0.0,0.0,0.0,0.0,0.0,0.0,0.0,0.0,0.0,0.0,0.0,0.0,0.0,0.0,0.0,0.0,0.0,0.0,0.0,0.0,0.0,0.0,0.0,0.0,0.0,0.0,0.0,0.0,0.0,0.0,0.0,0.0,0.0,0.0,0.0,0.0,0.0,0.0,0.0,0.0,0.0,0.0,0.0,0.0,0.0,0.0,0.0,0.0,0.0,0.0,0.0,0.0,0.0,0.0,0.0,0.0,0.0,0.0,0.0,0.0,0.0,0.0,0.0,-2.4657,-2.5088,-2.5565,-2.608,-2.6218,-2.6271,-2.6271,-2.6188,-2.6188,-2.6354,0.0,0.0,0.0,0.0,0.0,0.0,0.0,0.0,0.0,0.0,0.0,0.0,0.0,0.0,0.0,0.0,0.0,0.0,0.0,0.0,0.0,0.0,0.0,0.0,0.0,0.0,0.0,0.0,0.0,0.0,0.0,0.0,0.0,0.0,0.0,0.0,0.0,0.0,0.0,0.0,0.0,0.0,0.0,0.0,0.0,0.0,0.0,0.0,0.0,0.0,0.0,0.0,0.0,0.0,0.0,0.0,0.0,0.0,0.0,0.0,0.0,0.0,0.0,0.0,0.0,0.0,0.0,0.0,0.0,0.0,0.0,0.0,0.0,0.0,0.0,0.0,0.0,0.0,0.0,0.0,0.0,0.0,0.0,0.0,0.0,0.0,0.0,0.0,0.0,0.0,0.0,0.0,0.0,0.0,0.0,0.0,0.0,0.0,0.0,0.0,0.0,0.0,-2.4436,-2.4499,-2.4669,-2.5147,-2.5422,-2.5601,-2.5601,-2.578,-2.5906,0.0,0.0,0.0,0.0,0.0,0.0,0.0,0.0,0.0,0.0,0.0,0.0,0.0,0.0,0.0,0.0,0.0,0.0,0.0,0.0,0.0,0.0,0.0,0.0,0.0,0.0,0.0,0.0,0.0,0.0,0.0,0.0,0.0,0.0,0.0,0.0,0.0,0.0,0.0,0.0,0.0,0.0,0.0,0.0,0.0,0.0,0.0,0.0,0.0,0.0,0.0,0.0,0.0,0.0,0.0,0.0,0.0,0.0,0.0,0.0,0.0,0.0,0.0,0.0,0.0,0.0,0.0,0.0,0.0,0.0,0.0,0.0,0.0,0.0,0.0,0.0,0.0,0.0,0.0,0.0,0.0,0.0,0.0,0.0,0.0,0.0,0.0,0.0,0.0,0.0,0.0,0.0,0.0,0.0,0.0,0.0,0.0,0.0,0.0,0.0,0.0,0.0,0.0,-2.4002,-2.4462,-2.4883,-2.5189,-2.5285,-2.538,-2.5559,-2.5957,-2.6152,-2.6098,0.0,0.0,0.0,0.0,0.0,0.0,0.0,0.0,0.0,0.0,0.0,0.0,0.0,0.0,0.0,0.0,0.0,0.0,0.0,0.0,0.0,0.0,0.0,0.0,0.0,0.0,0.0,0.0,0.0,0.0,0.0,0.0,0.0,0.0,0.0,0.0,0.0,0.0,0.0,0.0,0.0,0.0,0.0,0.0,0.0,0.0,0.0,0.0,0.0,0.0,0.0,0.0,0.0,0.0,0.0,0.0,0.0,0.0,0.0,0.0,0.0,0.0,0.0,0.0,0.0,0.0,0.0,0.0,0.0,0.0,0.0,0.0,0.0,0.0,0.0,0.0,0.0,0.0,0.0,0.0,0.0,0.0,0.0,0.0,0.0,0.0,0.0,0.0,0.0,0.0,0.0,0.0,0.0,0.0,0.0,0.0,0.0,0.0,0.0,0.0,0.0,0.0,-2.4076,-2.4461,-2.4861,-2.5124,-2.533,-2.5558,-2.5699,-2.6139,-2.6376,-2.6365,0.0,0.0,0.0,0.0,0.0,0.0,0.0,0.0,0.0,0.0,0.0,0.0,0.0,0.0,0.0,0.0,0.0,0.0,0.0,0.0,0.0,0.0,0.0,0.0,0.0,0.0,0.0,0.0,0.0,0.0,0.0,0.0,0.0,0.0,0.0,0.0,0.0,0.0,0.0,0.0,0.0,0.0,0.0,0.0,0.0,0.0,0.0,0.0,0.0,0.0,0.0,0.0,0.0,0.0,0.0,0.0,0.0,0.0,0.0,0.0,0.0,0.0,0.0,0.0,0.0,0.0,0.0,0.0,0.0,0.0,0.0,0.0,0.0,0.0,0.0,0.0,0.0,0.0,0.0,0.0,0.0,0.0,0.0,0.0,0.0,0.0,0.0,0.0,0.0,0.0,0.0,0.0,0.0,0.0,0.0,0.0,0.0,0.0,0.0,0.0,0.0,0.0,-2.4425,-2.4486,-2.4636,-2.5072,-2.5543,-2.5826,-2.5871,-2.6309,-2.6544,-2.6589,0.0,0.0,0.0,0.0,0.0,0.0,0.0,0.0,0.0,0.0,0.0,0.0,0.0,0.0,0.0,0.0,0.0,0.0,0.0,0.0,0.0,0.0,0.0,0.0,0.0,0.0,0.0,0.0,0.0,0.0,0.0,0.0,0.0,0.0,0.0,0.0,0.0,0.0,0.0,0.0,0.0,0.0,0.0,0.0,0.0,0.0,0.0,0.0,0.0,0.0,0.0,0.0,0.0,0.0,0.0,0.0,0.0,0.0,0.0,0.0,-2.1386,-2.1241,0.0,0.0,0.0,0.0,0.0,0.0,0.0,0.0,0.0,0.0,0.0,0.0,0.0,0.0,0.0,0.0,0.0,0.0,0.0,0.0,0.0,0.0,0.0,0.0,0.0,0.0,0.0,0.0,0.0,0.0,0.0,0.0,0.0,0.0,0.0,0.0,0.0,0.0,0.0,0.0,-2.432,-2.4425,-2.4591,-2.5057,-2.5204,-2.5351,-2.5589,-2.6008,-2.6341,-2.6495,-2.6551,0.0,0.0,0.0,0.0,0.0,0.0,0.0,0.0,0.0,0.0,0.0,0.0,0.0,0.0,0.0,0.0,0.0,0.0,0.0,0.0,0.0,0.0,0.0,0.0,0.0,0.0,0.0,0.0,0.0,0.0,0.0,0.0,0.0,0.0,0.0,0.0,0.0,0.0,0.0,0.0,0.0,0.0,0.0,0.0,0.0,0.0,0.0,0.0,0.0,0.0,0.0,0.0,0.0,0.0,0.0,0.0,0.0,0.0,0.0,-2.181,-2.1417,0.0,0.0,0.0,0.0,0.0,0.0,0.0,0.0,0.0,0.0,0.0,0.0,0.0,0.0,0.0,0.0,0.0,0.0,0.0,0.0,0.0,0.0,0.0,0.0,0.0,0.0,0.0,0.0,0.0,0.0,0.0,0.0,0.0,0.0,0.0,0.0,0.0,0.0,0.0,0.0,-2.4266,-2.4361,-2.4533,-2.4972,-2.5134,-2.5285,-2.5558,-2.5919,-2.6239,-2.6513,-2.6523,0.0,0.0,0.0,0.0,0.0,0.0,0.0,0.0,0.0,0.0,0.0,0.0,0.0,0.0,0.0,0.0,0.0,0.0,0.0,0.0,0.0,0.0,0.0,0.0,0.0,0.0,0.0,0.0,0.0,0.0,0.0,0.0,0.0,0.0,0.0,0.0,0.0,0.0,0.0,0.0,0.0,0.0,0.0,0.0,0.0,0.0,0.0,0.0,0.0,0.0,0.0,0.0,0.0,-2.3356,-2.3194,-2.3114,-2.3032,-2.3001,-2.2919,-2.1943,-2.1411,-2.1165,-2.0948,0.0,0.0,0.0,0.0,0.0,0.0,0.0,0.0,0.0,0.0,0.0,0.0,0.0,0.0,0.0,0.0,0.0,0.0,0.0,0.0,0.0,0.0,-2.2182,-2.2377,-2.2508,-2.2418,-2.1894,0.0,0.0,0.0,0.0,0.0,0.0,0.0,0.0,0.0,0.0,0.0,-2.4294,-2.4406,-2.4634,-2.5062,-2.5307,-2.5554,-2.5731,-2.5977,-2.6231,-2.6582,-2.6582,-2.6582,0.0,0.0,0.0,0.0,0.0,0.0,0.0,0.0,0.0,0.0,0.0,0.0,0.0,0.0,0.0,0.0,0.0,0.0,0.0,0.0,0.0,0.0,0.0,0.0,0.0,0.0,0.0,0.0,0.0,0.0,0.0,0.0,-2.1613,-2.1812,0.0,0.0,0.0,0.0,0.0,0.0,0.0,0.0,0.0,0.0,0.0,0.0,0.0,-2.3431,-2.3431,-2.3132,-2.3115,-2.3442,-2.2858,-2.2806,-2.3108,-2.2735,-2.2564,-2.2574,-2.2756,0.0,-2.1947,-2.1568,0.0,0.0,0.0,0.0,0.0,0.0,0.0,0.0,0.0,0.0,0.0,0.0,0.0,0.0,0.0,0.0,0.0,0.0,0.0,0.0,0.0,0.0,-2.2318,-2.2461,-2.2503,-2.2362,-2.1805,-2.2122,-2.2312,-2.1776,-2.1667,-2.1658,0.0,0.0,0.0,0.0,0.0,0.0,-2.4519,-2.4937,-2.5391,-2.5867,-2.5969,-2.603,-2.6021,-2.6072,-2.6327,-2.6896,-2.6947,-2.6947,-2.6947,-2.6896,0.0,0.0,0.0,0.0,0.0,0.0,0.0,0.0,0.0,0.0,0.0,0.0,0.0,0.0,0.0,0.0,0.0,0.0,0.0,0.0,0.0,0.0,0.0,0.0,0.0,0.0,0.0,0.0,0.0,-2.1204,-2.142,-2.1665,-2.1809,-2.1857,0.0,0.0,0.0,0.0,0.0,0.0,0.0,0.0,0.0,-2.3244,-2.3258,-2.338,-2.3626,-2.3722,-2.3807,-2.3964,-2.3687,-2.3541,-2.3415,-2.3231,-2.3188,-2.3198,-2.3338,-2.3246,-2.2978,-2.2589,-2.1973,-2.1236,0.0,0.0,0.0,0.0,-2.0531,-2.0498,-2.0604,-2.0536,-2.043,-2.0406,0.0,0.0,0.0,0.0,0.0,0.0,0.0,-2.1568,-2.2211,-2.2625,-2.2885,-2.2973,-2.3038,-2.2993,-2.263,-2.2588,-2.2389,-2.1466,-2.1268,-2.1212,-2.107,-2.1372,0.0,0.0,0.0,-2.3764,-2.4484,-2.4767,-2.4979,-2.5405,-2.5405,-2.5561,-2.5891,-2.5942,-2.6097,-2.6448,-2.65,-2.65,-2.65,-2.6397,-2.62,0.0,0.0,0.0,0.0,0.0,0.0,0.0,0.0,0.0,0.0,0.0,0.0,0.0,0.0,0.0,0.0,0.0,0.0,0.0,0.0,0.0,0.0,0.0,0.0,0.0,0.0,0.0,0.0,-2.1485,-2.1479,-2.1666,-2.2064,-2.2162,0.0,0.0,0.0,0.0,0.0,0.0,-2.338,-2.3433,-2.3401,-2.3234,-2.3468,-2.3764,-2.4041,-2.4326,-2.4489,-2.4497,-2.438,-2.4158,-2.3871,-2.3804,-2.3757,-2.3729,-2.388,-2.3871,-2.3711,-2.3259,-2.2765,-2.2216,-2.1895,-2.1605,-2.1384,-2.1299,-2.1225,-2.1126,-2.0962,-2.0875,-2.0822,-2.0613,-2.043,-2.0351,-2.0351,0.0,0.0,0.0,0.0,-2.1829,-2.2374,-2.2865,-2.3157,-2.3212,-2.3311,-2.3311,-2.3045,-2.2839,-2.244,-2.1495,-2.1311,-2.1253,-2.1065,-2.146,0.0,-2.2502,-2.3129,-2.3766,-2.4342,-2.4527,-2.4695,-2.5075,-2.5075,-2.5296,-2.5727,-2.5779,-2.5885,-2.6085,-2.6085,-2.6138,-2.6242,-2.6095,-2.5937,-2.5894,0.0,0.0,0.0,0.0,0.0,0.0,0.0,0.0,0.0,0.0,0.0,0.0,0.0,0.0,0.0,0.0,0.0,0.0,0.0,0.0,0.0,0.0,0.0,0.0,0.0,0.0,0.0,0.0,0.0,-2.228,-2.2724,0.0,0.0,0.0,0.0,-2.2574,-2.3154,-2.345,-2.3199,-2.4005,-2.4414,-2.4404,-2.4611,-2.4713,-2.4733,-2.4513,-2.4526,-2.4679,-2.4246,-2.4125,-2.4278,-2.4087,-2.3868,-2.3739,-2.4373,-2.4345,-2.3839,-2.3231,-2.2874,-2.26,-2.1949,-2.1789,-2.1815,-2.1586,-2.1742,-2.2023,-2.2023,-2.2023,-2.1975,-2.1777,-2.1389,-2.096,-2.096,-2.0802,0.0,0.0,-2.133,-2.171,-2.2038,-2.2408,-2.277,-2.283,-2.2831,-2.2786,-2.2527,-2.2419,-2.2343,-2.2174,-2.2135,-2.2144,-2.2135,0.0,-2.2317,-2.2732,-2.3087,-2.3545,-2.415,-2.4568,-2.5003,-2.5626,-2.568,-2.568,-2.568,-2.5735,-2.579,-2.6063,-2.6118,-2.6227,-2.6545,-2.6545,-2.6381,-2.6063,-2.6063,0.0,0.0,0.0,0.0,0.0,0.0,0.0,0.0,0.0,0.0,0.0,0.0,0.0,0.0,0.0,0.0,0.0,0.0,0.0,0.0,0.0,0.0,0.0,0.0,0.0,0.0,0.0,0.0,-2.3047,-2.3085,0.0,-2.2674,-2.2971,-2.3112,-2.2955,-2.3672,-2.4032,-2.3769,-2.4381,-2.4609,-2.4418,-2.4529,-2.4607,-2.4712,-2.4618,-2.4593,-2.4568,-2.4408,-2.4412,-2.4644,-2.4535,-2.461,-2.4751,-2.459,-2.4395,-2.4167,-2.3768,-2.3486,-2.3281,-2.2865,-2.2595,-2.2357,-2.2023,-2.1872,-2.1891,-2.1891,-2.1796,-2.1605,-2.1365,-2.1174,-2.0981,-2.0789,-2.072,-2.0769,-2.1056,-2.1445,-2.1886,-2.244,-2.2805,-2.3125,-2.3231,-2.3265,-2.3155,-2.287,-2.2943,-2.3119,-2.3047,-2.2516,-2.2094,-2.2094,-2.2226,-2.2481,-2.2828,-2.3357,-2.39,-2.4303,-2.4838,-2.5343,-2.576,-2.6036,-2.6197,-2.6376,-2.6432,-2.6432,-2.6537,-2.6546,-2.6486,-2.6412,-2.6403,-2.6222,-2.5852,-2.5459,-2.5229,0.0,0.0,0.0,0.0,0.0,0.0,0.0,0.0,0.0,0.0,0.0,0.0,0.0,0.0,0.0,0.0,0.0,0.0,0.0,0.0,0.0,0.0,0.0,0.0,0.0,-2.2966,-2.3154,-2.3343,-2.3349,-2.3186,-2.2817,-2.3245,-2.3467,-2.3424,-2.4048,-2.4411,-2.422,-2.4644,-2.4825,-2.4639,-2.4932,-2.5129,-2.5286,-2.5333,-2.5241,-2.5048,-2.4998,-2.4955,-2.5038,-2.508,-2.5227,-2.5362,-2.5045,-2.4772,-2.4566,-2.4391,-2.4171,-2.3965,-2.3697,-2.3305,-2.2927,-2.2582,-2.2301,-2.2033,-2.1936,-2.1827,-2.1691,-2.1494,-2.1429,-2.1437,-2.1237,-2.1206,-2.1248,-2.1401,-2.1823,-2.2335,-2.2608,-2.3051,-2.3386,-2.3359,-2.3247,-2.3135,-2.2909,-2.3129,-2.3315,-2.32,-2.2851,-2.2561,-2.2561,-2.2647,-2.27,-2.2799,-2.3405,-2.3913,-2.408,-2.4655,-2.5219,-2.5585,-2.5809,-2.5975,-2.6206,-2.6206,-2.6206,-2.6206,-2.6206,-2.6151,-2.5974,-2.6022,-2.5839,-2.5438,-2.4744,-2.4287,-2.4175,0.0,0.0,0.0,0.0,0.0,0.0,0.0,0.0,0.0,0.0,0.0,0.0,0.0,0.0,0.0,0.0,0.0,0.0,0.0,0.0,0.0,0.0,0.0,-2.3098,-2.3501,-2.3638,-2.3205,-2.3515,-2.3543,-2.2879,-2.3598,-2.4013,-2.3854,-2.4199,-2.4443,-2.4453,-2.4873,-2.5165,-2.5174,-2.5957,-2.6406,-2.6406,-2.6502,-2.6439,-2.6172,-2.5933,-2.5641,-2.5442,-2.5702,-2.5659,-2.546,-2.5711,-2.5433,-2.4929,-2.5058,-2.4896,-2.4574,-2.4253,-2.3878,-2.3505,-2.3238,-2.2903,-2.2578,-2.2266,-2.2203,-2.2311,-2.2311,-2.2339,-2.2419,-2.2419,-2.2188,-2.2011,-2.2011,-2.2429,-2.2812,-2.26,-2.2975,-2.3424,-2.3086,-2.2812,-2.2593,-2.2601,-2.2874,-2.3007,-2.2708,-2.3168,-2.3577,-2.3613,-2.3309,-2.3016,-2.2688,-2.3219,0.0,-2.356,-2.4106,-2.4667,-2.4968,-2.5027,-2.5027,-2.5027,-2.5027,-2.5027,-2.5027,-2.5027,-2.5136,-2.5419,-2.5419,-2.5235,-2.4849,-2.3941,-2.3312,-2.2958,0.0,0.0,0.0,0.0,0.0,0.0,0.0,0.0,0.0,0.0,0.0,0.0,0.0,0.0,0.0,0.0,0.0,0.0,0.0,0.0,0.0,-2.2762,-2.3228,-2.3358,-2.3625,-2.3826,-2.3873,-2.3717,-2.3617,-2.3751,-2.3821,-2.3961,-2.4219,-2.4639,-2.5029,-2.5313,-2.5791,-2.6162,-2.6475,-2.6507,-2.6471,-2.6267,-2.6083,-2.5891,-2.5622,-2.5528,-2.5623,-2.5855,-2.5908,-2.6074,-2.6233,-2.5815,-2.5422,-2.5005,-2.4852,-2.4618,-2.4276,-2.4227,-2.4124,-2.395,-2.3667,-2.3294,-2.3007,-2.2955,-2.2811,-2.2638,-2.2425,-2.2392,-2.2358,-2.2188,-2.2073,-2.2011,-2.2011,-2.2266,-2.2592,-2.2545,-2.2808,-2.3085,-2.3046,-2.2936,-2.289,-2.2971,-2.3227,-2.3449,-2.3329,-2.3483,-2.3627,-2.3572,-2.3309,-2.3211,-2.3634,-2.3857,-2.4045,-2.4249,-2.4904,-2.5242,-2.506,-2.5311,-2.5432,-2.5432,-2.5432,-2.5545,-2.5778,-2.5778,-2.5722,-2.5466,-2.5271,-2.4614,-2.3538,-2.327,-2.2754,0.0,0.0,0.0,0.0,0.0,0.0,0.0,0.0,0.0,0.0,0.0,0.0,0.0,0.0,0.0,0.0,0.0,0.0,0.0,0.0,0.0,0.0,-2.3207,-2.3753,-2.3795,-2.3897,-2.4057,-2.43,-2.3991,-2.3895,-2.4185,-2.431,-2.4424,-2.4668,-2.5273,-2.5732,-2.5996,-2.6416,-2.6768,-2.7012,-2.7033,-2.6914,-2.6636,-2.6512,-2.6352,-2.6079,-2.5982,-2.6087,-2.6517,-2.6352,-2.6444,-2.6811,-2.6236,-2.5784,-2.5351,-2.5188,-2.4861,-2.4424,0.0,0.0,0.0,0.0,-2.3515,-2.3204,-2.309,-2.2922,-2.2792,-2.2521,-2.2517,-2.263,-2.2457,-2.2402,-2.2402,-2.2402,-2.2545,-2.2704,-2.2704,-2.2974,-2.317,-2.3029,-2.3003,-2.2989,-2.2907,-2.3135,-2.3354,-2.3232,-2.338,0.0,-2.3604,-2.3293,-2.318,-2.3449,-2.3718,-2.3932,-2.4184,-2.4795,-2.5132,-2.5094,-2.5164,-2.5201,-2.5201,-2.5067,0.0,0.0,0.0,-2.5184,-2.4923,-2.4469,0.0,0.0,0.0,-2.2126,-2.1591,-2.1306,0.0,0.0,-2.1117,-2.0801,0.0,0.0,0.0,0.0,0.0,0.0,0.0,0.0,0.0,0.0,0.0,0.0,0.0,0.0,0.0,0.0,-2.3645,-2.4432,-2.4321,-2.4329,-2.4415,-2.4545,-2.4307,-2.4195,-2.4453,-2.4844,-2.5155,-2.5262,-2.5947,-2.6426,-2.6523,-2.6885,0.0,0.0,0.0,-2.7567,-2.7233,-2.7343,-2.7281,-2.7009,-2.6856,-2.6903,-2.7233,-2.6839,-2.6848,-2.716,-2.6756,-2.6245,-2.5688,-2.5688,-2.5357,-2.4821,-2.4864,-2.4693,-2.4384,-2.4042,-2.3761,-2.3493,-2.3162,0.0,0.0,-2.2775,-2.2879,-2.3133,-2.3133,-2.3133,-2.3133,-2.3133,-2.3133,-2.3133,-2.3133,-2.3314,-2.3436,-2.3119,-2.3058,-2.305,-2.2744,-2.2915,-2.298,-2.2735,-2.3101,-2.3487,-2.3487,-2.3293,-2.301,-2.2779,-2.3232,-2.3604,-2.3673,-2.4217,-2.467,-2.4967,-2.4769,0.0,-2.4556,-2.4274,-2.4084,-2.4115,-2.4108,-2.4046,-2.3984,-2.345,-2.3026,-2.2928,-2.2035,-2.1516,-2.1481,-2.1187,-2.1027,-2.1055,-2.0802,-2.0869,0.0,0.0,0.0,0.0,0.0,0.0,0.0,0.0,0.0,0.0,0.0,0.0,0.0,0.0,0.0,-2.3194,-2.3849,-2.4415,-2.4959,-2.5197,-2.5239,-2.5093,-2.4627,-2.4509,-2.4893,-2.5067,-2.5409,-2.6084,-2.6289,-2.6689,-2.7434,-2.75,-2.7695,-2.8037,-2.7912,-2.7684,-2.7362,-2.7516,-2.7447,-2.717,-2.7436,0.0,-2.7693,-2.7298,-2.7105,-2.716,-2.6756,-2.6245,-2.5688,-2.5688,-2.5357,-2.4847,-2.5146,-2.5403,-2.5543,-2.5523,-2.5269,-2.504,-2.4688,-2.4449,-2.4225,-2.3927,-2.3851,-2.3914,-2.3914,-2.3914,0.0,-2.3914,-2.3914,-2.3914,-2.3914,-2.3736,-2.3567,-2.3524,-2.3293,-2.305,-2.3002,-2.3036,-2.308,-2.3018,-2.2882,-2.2793,-2.2793,-2.2981,-2.327,-2.3769,-2.369,-2.3673,-2.3984,-2.4343,-2.4515,-2.4329,-2.4445,-2.4468,-2.4198,-2.4108,-2.4084,-2.4123,-2.4108,-2.386,-2.3293,-2.3171,-2.2708,-2.1895,-2.1402,-2.1066,-2.0886,-2.0295,-2.0117,-2.0403,-2.0584,-2.071,0.0,0.0,0.0,0.0,0.0,0.0,0.0,0.0,0.0,0.0,0.0,-2.1937,-2.2227,0.0,-2.295,-2.3697,-2.453,-2.519,-2.5643,-2.5885,-2.5949,-2.5726,-2.5269,-2.511,-2.5543,-2.5692,-2.5908,-2.6357,-2.6787,-2.7268,-2.7699,-2.7861,-2.8076,-2.8281,-2.8236,-2.8016,-2.768,-2.7827,-2.7762,-2.7528,-2.7721,-2.7932,-2.8067,-2.7655,-2.7528,-2.7509,-2.705,-2.6426,-2.5688,-2.5357,-2.5202,-2.5112,-2.53,-2.5489,-2.5677,-2.5866,-2.5702,-2.5411,-2.5111,-2.4818,-2.4525,-2.4172,-2.4114,-2.4114,-2.4114,-2.4114,-2.4114,-2.4114,-2.4114,-2.4114,-2.4114,-2.3952,-2.3834,-2.3626,-2.3497,-2.3293,-2.3139,-2.3106,-2.3043,-2.2863,-2.2731,-2.2543,-2.2362,-2.248,-2.2793,-2.3293,-2.3362,-2.3484,-2.3835,-2.3873,-2.3853,-2.3823,-2.3708,-2.3514,-2.3355,-2.3196,-2.3092,-2.312,-2.3106,-2.2918,-2.2606,-2.2418,-2.2034,-2.1382,-2.1201,-2.094,-2.0668,-2.0489,-2.0375,-2.0393,-2.0742,-2.0792,0.0,0.0,0.0,0.0,0.0,0.0,0.0,-2.2382,-2.241,-2.2246,-2.2233,-2.2359,-2.2578,-2.303,-2.3604,-2.4226,-2.5263,-2.6042,-2.6274,-2.6442,-2.6549,-2.6465,-2.5999,-2.5805,-2.619,-2.6389,-2.6593,-2.6722,-2.7327,-2.7748,-2.7783,-2.8105,-2.8291,-2.8291,-2.8494,-2.8387,-2.7982,-2.8267,-2.8236,-2.7941,-2.8024,-2.8177,-2.8498,-2.8077,-2.7838,-2.7794,-2.7149,-2.6424,-2.5633,-2.5034,-2.4992,-2.5266,-2.54,-2.542,-2.5523,-2.5908,-2.5855,-2.5621,-2.5318,-2.4964,-2.4668,-2.4372,-2.4321,-2.4321,-2.4321,-2.4321,-2.4321,-2.4321,-2.4321,-2.4253,-2.4194,-2.4168,-2.4007,-2.3696,-2.354,-2.3425,-2.3175,-2.3043,-2.2918,-2.2668,-2.248,-2.2292,-2.2048,-2.1985,-2.2111,-2.2425,-2.2738,-2.3013,-2.3274,-2.3113,-2.3121,-2.3378,-2.297,-2.2643,-2.258,-2.2286,-2.2111,-2.2111,-2.2111,-2.2048,-2.1985,-2.167,-2.1362,-2.0982,-2.0856,-2.0755,-2.0566,-2.0814,-2.0751,-2.0566,-2.0878,-2.0852,-2.1765,-2.1868,-2.2062,-2.2113,-2.2311,-2.2442,0.0,-2.2206,-2.2246,-2.2205,-2.2345,-2.2578,-2.306,-2.3667,-2.4271,-2.4727,-2.5574,-2.6264,-2.6512,-2.6746,-2.6975,-2.7321,-2.6724,-2.6399,-2.6685,-2.6841,-2.7202,-2.7885,-2.7764,-2.7885,-2.8203,-2.8271,-2.8291,-2.8291,-2.8647,-2.8588,-2.7982,-2.8786,-2.8903,-2.8324,-2.8682,-2.8874,-2.8902,-2.8507,-2.8122,-2.7728,-2.6403,-2.5778,-2.5633,-2.5034,-2.4847,-2.4915,-2.5241,-2.5574,-2.5859,-2.6285,-2.6457,-2.6444,-2.6081,-2.5777,-2.542,-2.5114,-2.4992,-2.4992,-2.4992,-2.4992,-2.4992,-2.4992,-2.4992,-2.4931,-2.4616,-2.4332,-2.3993,-2.3675,-2.3395,-2.3168,-2.3113,-2.2856,-2.2668,-2.2613,-2.2111,-2.167,-2.167,-2.167,-2.1796,-2.2111,-2.2167,-2.2251,-2.2286,-2.2469,-2.2651,-2.2686,-2.2904,-2.2939,-2.2601,-2.2286,-2.2111,-2.2111,-2.2111,-2.1985,-2.167,-2.1362,-2.0982,-2.0672,-2.0087,-2.0022,-2.0534,-2.0268,-2.0268,-2.0534,-2.054,-2.0593,-2.1973,-2.2062,-2.2147,-2.2291,-2.2491,-2.2655,-2.2572,-2.2643,-2.2735,-2.2735,-2.3002,-2.334,-2.37,-2.4351,-2.4987,-2.5549,-2.608,-2.6558,-2.6931,-2.6815,-2.6721,-2.6903,-2.6626,-2.6575,-2.7102,-2.7282,-2.7523,-2.7845,-2.7996,-2.8105,-2.8281,-2.8291,-2.8291,-2.8291,-2.8791,-2.8807,-2.836,-2.9077,-2.9198,-2.8737,-2.8902,-2.8984,-2.8975,-2.881,-2.8379,-2.7737,-2.6536,-2.5947,-2.5633,-2.5034,-2.4821,-2.4838,-2.4992,-2.5283,-2.5677,-2.6268,-2.6551,-2.6571,-2.6197,-2.59,-2.5549,-2.5234,-2.5111,-2.5111,-2.5111,-2.5111,-2.5111,-2.5111,-2.4988,-2.4795,-2.461,-2.4232,-2.3798,-2.3611,-2.3355,-2.3043,-2.2856,-2.2668,-2.2487,-2.2111,-2.1796,-2.1544,-2.1355,-2.1299,-2.1362,-2.1481,-2.1859,-2.2111,-2.2111,-2.2033,-2.1995,-2.2045,-2.211,-2.2206,-2.2254,-2.2138,-2.207,-2.207,-2.207,-2.2005,-2.1811,-2.1487,-2.1019,-2.0541,-2.0436,-2.0303,-2.0201,-2.0416,-2.0541,-2.052,-2.0708,-2.0754,-2.2084,-2.2269,-2.2453,-2.2592,-2.2742,-2.289,-2.289,-2.3006,-2.313,-2.3247,-2.3619,-2.4018,-2.4416,-2.5012,-2.5635,-2.6228,-2.6579,-2.6926,-2.7258,-2.6832,-2.6547,-2.6657,-2.6576,-2.6743,-2.735,-2.7609,-2.7767,-2.7937,-2.8178,-2.8291,-2.8291,-2.8291,-2.8291,-2.8291,-2.8901,-2.9076,-2.8738,-2.9331,-2.945,-2.9163,-2.9035,-2.8984,-2.8975,-2.8874,-2.8434,-2.7737,-2.6762,-2.6089,-2.5633,-2.5034,-2.4821,-2.4821,-2.4821,-2.5044,-2.5437,-2.5977,-2.6313,-2.6436,-2.6286,-2.5961,-2.5549,-2.5296,-2.5173,-2.5111,-2.5111,-2.5111,-2.5111,-2.5111,-2.4857,-2.461,-2.4487,-2.4046,-2.3611,-2.3487,-2.33,-2.305,-2.2793,-2.2606,-2.2292,-2.1859,-2.1607,-2.1362,-2.1172,-2.1109,-2.1109,-2.1109,-2.1619,-2.1956,-2.1873,-2.1683,-2.1598,-2.1579,-2.154,-2.1561,-2.1707,-2.1786,-2.1852,-2.1852,-2.1918,-2.1984,-2.1984,-2.1654,-2.1227,-2.0771,-2.0897,-2.0743,-2.036,-2.0876,-2.0963,-2.0758,-2.1072,-2.1004,-2.2265,-2.2666,-2.3114,-2.2924,-2.2985,-2.3071,-2.3071,-2.3091,-2.3218,-2.3682,-2.4013,-2.4376,-2.5042,-2.5731,-2.6259,-2.6558,-2.6988,-2.7289,-2.7309,-2.6832,-2.6657,-2.702,-2.6893,-2.6923,-2.735,-2.7609,-2.7999,-2.8625,-2.8451,-2.8291,-2.8291,-2.8291,-2.8291,-2.8291,-2.9131,-2.9402,-2.9076,-2.9621,-2.9745,-2.9499,-2.9163,-2.8984,-2.8975,-2.859,-2.8177,-2.7737,-2.6762,-2.6089,-2.5633,-2.5034,-2.4821,-2.4821,-2.4821,-2.5044,-2.5378,-2.5451,-2.5709,-2.604,-2.6453,-2.6153,-2.561,-2.561,-2.5357,-2.5111,-2.5111,-2.5111,-2.5111,-2.5111,-2.4857,-2.4548,-2.417,-2.386,-2.3549,-2.3168,-2.3113,-2.3106,-2.3113,-2.2543,-2.2111,-2.2111,-2.1544,-2.1109,-2.1109,-2.1109,-2.1109,-2.1109,-2.142,-2.1501,-2.1149,-2.1427,-2.152,-2.1411,-2.1443,-2.1245,-2.0927,-2.1258,-2.145,-2.145,-2.1786,-2.1984,-2.1984,-2.1661,-2.1463,-2.145,-2.1132,-2.1133,-2.1327,-2.146,-2.1456,-2.1371,-2.1553,-2.1396,-2.2951,-2.3215,-2.3384,-2.3302,-2.3428,-2.3484,-2.3178,-2.3232,-2.3491,-2.3979,-2.434,-2.485,-2.5695,-2.6433,-2.7013,-2.7212,-2.7573,-2.7715,-2.7536,-2.7214,-2.7037,-2.695,-2.6776,-2.6742,-2.7172,-2.7841,-2.8237,-2.8229,-2.8463,-2.8514,-2.8291,-2.8291,-2.8291,-2.8291,-2.8848,-2.9111,-2.9122,-2.9355,-2.9481,-2.9499,-2.9153,-2.8984,-2.8975,-2.8847,-2.8563,-2.8159,-2.7347,-2.6659,-2.6042,-2.5343,-2.497,-2.4821,-2.4821,-2.4898,-2.5035,-2.5283,-2.5475,-2.5675,-2.6058,-2.6248,-2.6214,-2.5733,-2.5549,-2.5418,-2.5173,-2.5111,-2.505,-2.4857,-2.4548,-2.417,-2.386,-2.3549,-2.323,-2.3113,-2.3106,-2.3043,-2.2793,-2.2606,-2.2299,-2.1859,-2.1614,-2.1362,-2.1172,-2.1109,-2.1176,-2.1376,-2.1554,-2.159,-2.1677,-2.1777,-2.1819,-2.171,-2.1743,-2.1687,-2.1535,-2.182,-2.2017,-2.2017,-2.2362,-2.2565,-2.2565,-2.2227,-2.1939,-2.175,-2.1594,-2.151,-2.142,-2.1385,-2.1378,-2.1384,-2.1228,-2.1197,-2.3495,-2.3687,-2.3754,-2.3737,-2.3764,-2.3711,-2.3406,-2.3493,-2.3753,-2.4202,-2.4731,-2.5309,-2.6068,-2.6847,-2.7452,-2.7499,-2.7726,-2.7826,-2.7708,-2.7548,-2.7356,-2.7173,-2.7028,-2.6936,-2.7071,-2.7864,-2.8317,-2.8219,-2.848,-2.8674,-2.8611,-2.8504,-2.8461,-2.8461,-2.8755,-2.9021,-2.929,-2.9384,-2.9457,-2.9499,-2.9153,-2.8984,-2.8984,-2.8984,-2.8764,-2.8379,-2.7642,-2.6989,-2.6237,-2.5534,-2.5091,-2.4821,-2.4821,-2.4821,-2.4847,-2.5086,-2.5258,-2.548,-2.5999,-2.6175,-2.6161,-2.5867,-2.5602,-2.5357,-2.5173,-2.5111,-2.505,-2.4857,-2.4425,-2.4046,-2.386,-2.3417,-2.3106,-2.3106,-2.3106,-2.3043,-2.2863,-2.2675,-2.248,-2.2048,-2.1734,-2.1544,-2.1299,-2.1259,-2.1403,-2.1804,-2.177,-2.181,-2.2104,-2.2051,-2.1899,-2.1726,-2.1684,-2.1626,-2.1464,-2.1709,-2.1966,-2.2104,-2.2379,-2.2516,-2.2516,-2.2242,-2.202,-2.1839,-2.1945,-2.1876,-2.1703,-2.1729,-2.167,-2.1582,-2.1358,-2.1197,-2.3764,-2.4039,-2.4196,-2.4176,-2.3983,-2.381,-2.3757,-2.3767,-2.3941,-2.4414,-2.5092,-2.5722,-2.6135,-2.6978,-2.7515,-2.7347,-2.7536,-2.7751,-2.7911,-2.7778,-2.7641,-2.7672,-2.7672,-2.7525,-2.718,-2.7793,-2.8289,-2.8509,-2.8638,-2.8834,-2.9079,-2.8834,-2.8684,-2.8684,-2.879,-2.9092,-2.9531,-2.9706,-2.9689,-2.9499,-2.9153,-2.8984,-2.8984,-2.8984,-2.8773,-2.8367,-2.7804,-2.7067,-2.6308,-2.5661,-2.5163,-2.4847,-2.483,-2.4821,-2.4821,-2.4821,-2.5044,-2.5446,-2.6174,-2.6033,-2.5572,-2.5935,-2.5623,-2.5087,-2.5103,-2.5111,-2.5111,-2.5111,-2.461,-2.4108,-2.4108,-2.3604,-2.3106,-2.3106,-2.3113,-2.3113,-2.3106,-2.2863,-2.2606,-2.2613,-2.2048,-2.1551,-2.1628,-2.1619,-2.1809,-2.2311,-2.2164,-2.2091,-2.2385,-2.2164,-2.1826,-2.1437,-2.134,-2.1143,-2.0811,-2.1059,-2.1352,-2.1766,-2.1766,-2.1766,-2.1766,-2.1766,-2.1835,-2.1835,-2.2173,-2.231,-2.231,-2.2356,-2.2278,-2.1997,-2.1775,-2.148,-2.3888,-2.4156,-2.4286,-2.382,-2.3791,-2.3791,-2.3442,-2.3485,-2.3793,-2.4629,-2.4927,-2.5388,-2.6341,-2.6987,-2.749,-2.7746,-2.8186,-2.8498,-2.8492,-2.8458,-2.8401,-2.8351,-2.8342,-2.8243,-2.7954,-2.8421,-2.8686,-2.853,-2.8785,-2.9026,-2.9079,-2.8834,-2.8684,-2.8684,-2.8559,-2.8652,-2.9082,-2.9288,-2.9457,-2.9499,-2.9153,-2.8984,-2.8984,-2.8984,-2.8811,-2.8473,-2.798,-2.7436,-2.6749,-2.6,-2.5544,-2.5198,-2.4924,-2.4821,-2.4821,-2.4821,-2.4881,-2.5026,-2.5489,-2.5608,-2.5495,-2.5623,-2.5386,-2.5073,-2.5093,-2.5111,-2.505,-2.4795,-2.4417,-2.4046,-2.3798,-2.3417,-2.3106,-2.3106,-2.2926,-2.2793,-2.3043,-2.2863,-2.255,-2.2299,-2.167,-2.1303,-2.1531,-2.1632,-2.1742,-2.2038,-2.2031,-2.2091,-2.2385,-2.1965,-2.1489,-2.1101,-2.0956,-2.0811,-2.0477,-2.0921,-2.1214,-2.1352,-2.1628,-2.1766,-2.1766,-2.1766,-2.1904,-2.2173,-2.2242,-2.2448,-2.2722,-2.2498,-2.2378,-2.2298,-2.2011,-2.1847,-2.3826,-2.4053,-2.4146,-2.3762,-2.3639,-2.3536,-2.3278,-2.3432,-2.3802,-2.4368,-2.4779,-2.5255,-2.6021,-2.6792,-2.7381,-2.7657,-2.8208,-2.8715,-2.8972,-2.9019,-2.9042,-2.9107,-2.9059,-2.8918,-2.8533,-2.8768,-2.8837,-2.876,-2.9096,-2.9343,-2.9343,-2.9195,-2.9046,-2.8887,-2.8621,-2.8702,-2.9199,-2.9269,-2.9408,-2.9686,-2.9222,-2.8984,-2.8984,-2.8984,-2.8815,-2.8507,-2.8086,-2.7653,-2.7173,-2.6386,-2.5898,-2.5587,-2.5203,-2.4958,-2.4821,-2.4821,-2.4821,-2.4847,-2.5052,-2.5097,-2.5025,-2.5193,-2.5117,-2.4868,-2.4878,-2.4984,-2.505,-2.4857,-2.461,-2.4232,-2.3922,-2.3549,-2.33,-2.3113,-2.2856,-2.2668,-2.2856,-2.2606,-2.2299,-2.1922,-2.1607,-2.1393,-2.1568,-2.1614,-2.1715,-2.1944,-2.1746,-2.1635,-2.1925,-2.1687,-2.1264,-2.0734,-2.0778,-2.0743,-2.0545,-2.0784,-2.1006,-2.1214,-2.1283,-2.1352,-2.1559,-2.1559,-2.1691,-2.2035,-2.2242,-2.2379,-2.2654,-2.2631,-2.2545,-2.2412,-2.2251,-2.2215,-2.3639,-2.3826,-2.3888,-2.3805,-2.3484,-2.3163,-2.3111,-2.3412,-2.3774,-2.3857,-2.4509,-2.5132,-2.5543,-2.6428,-2.7157,-2.7342,-2.79,-2.8584,-2.9238,-2.9419,-2.9544,-2.9747,-2.9802,-2.9588,-2.9106,-2.9054,-2.9052,-2.9102,-2.9448,-2.9659,-2.9606,-2.9606,-2.9448,-2.9079,-2.8781,-2.8898,-2.9473,-2.9355,-2.9439,-2.9787,-2.9313,-2.9035,-2.8984,-2.8925,-2.8746,-2.8397,-2.808,-2.7765,-2.7388,-2.6745,-2.628,-2.5922,-2.5577,-2.5215,-2.4898,-2.4898,-2.4864,-2.4821,-2.4821,-2.4633,-2.444,-2.4779,-2.473,-2.452,-2.4555,-2.4793,-2.5048,-2.5095,-2.4857,-2.4548,-2.417,-2.386,-2.3549,-2.3175,-2.2801,-2.2543,-2.2606,-2.2299,-2.1922,-2.167,-2.1544,-2.1583,-2.1568,-2.1581,-2.161,-2.1872,-2.1411,-2.1065,-2.1219,-2.1225,-2.1021,-2.0468,-2.0582,-2.0743,-2.0743,-2.0721,-2.0804,-2.1144,-2.0873,-2.0873,-2.1214,-2.1214,-2.1421,-2.1835,-2.2173,-2.231,-2.2379,-2.2722,-2.2732,-2.2478,-2.2546,-2.2585,-2.305,-2.3582,-2.398,-2.3165,-2.3087,-2.3091,-2.2708,-2.2677,-2.2956,-2.3722,-2.4002,-2.4418,-2.5427,-2.5909,-2.6491,-2.7463,-2.7885,-2.8321,-2.9058,-2.9483,-2.9803,-3.0011,-3.0199,-3.0172,-2.9828,-2.9828,-2.9587,-2.9132,-2.9617,-2.9827,-2.9606,-2.9606,-2.9353,-2.8781,-2.8514,-2.8589,-2.9023,-2.9082,-2.9231,-2.9429,-2.9409,-2.9272,-2.8984,-2.8696,-2.8397,-2.808,-2.7711,-2.7435,-2.7125,-2.6679,-2.6473,-2.6385,-2.596,-2.5609,-2.5275,-2.5275,-2.5078,-2.4821,-2.4821,-2.4634,-2.44,-2.4458,-2.4318,-2.419,-2.4524,-2.4627,-2.473,-2.5024,-2.4857,-2.4548,-2.417,-2.386,-2.3549,-2.3175,-2.2613,-2.223,-2.2543,-2.2111,-2.167,-2.1607,-2.1362,-2.1266,-2.1568,-2.1349,-2.1235,-2.1444,-2.1215,-2.0876,-2.0636,-2.0407,-2.0291,-2.0383,-2.0386,-2.0415,-2.0415,-2.0583,-2.0735,-2.0804,-2.0735,-2.0873,-2.1214,-2.1214,-2.1553,-2.2173,-2.2242,-2.2448,-2.2791,-2.2859,-2.2839,-2.2854,-2.3127,-2.3235,-2.3023,-2.3287,-2.3583,-2.3382,-2.3229,-2.3047,-2.2739,-2.2835,-2.3097,-2.3463,-2.3794,-2.4326,-2.5242,-2.6075,-2.6866,-2.741,-2.8091,-2.8751,-2.9248,-2.9504,-2.9818,-3.0281,-3.0408,-3.0386,-3.0224,-3.0193,-2.9973,-2.9396,-2.9774,-2.9879,-2.9606,-2.9448,-2.9185,-2.893,-2.8504,-2.8496,-2.8916,-2.881,-2.8963,-2.9325,-2.9205,-2.9059,-2.8984,-2.8636,-2.8328,-2.796,-2.7642,-2.7401,-2.728,-2.6927,-2.6798,-2.6719,-2.6352,-2.5994,-2.566,-2.566,-2.5557,-2.5346,-2.5346,-2.5172,-2.4911,-2.4738,-2.452,-2.4327,-2.4544,-2.4706,-2.4889,-2.5063,-2.4988,-2.4734,-2.4232,-2.3984,-2.3736,-2.323,-2.2606,-2.2048,-2.1859,-2.1544,-2.1355,-2.1355,-2.1235,-2.1156,-2.1296,-2.1329,-2.1372,-2.1522,-2.1182,-2.0897,-2.091,-2.044,-2.0215,-2.0343,-2.0458,-2.0478,-2.0478,-2.0599,-2.0665,-2.0665,-2.0873,-2.1151,-2.149,-2.1691,-2.2035,-2.2585,-2.2585,-2.2722,-2.2928,-2.3065,-2.3065,-2.2934,-2.3475,-2.3739,-2.2994,-2.3079,-2.3218,-2.3495,-2.3392,-2.3165,-2.2864,-2.3171,-2.3487,-2.344,-2.3824,-2.443,-2.5157,-2.6206,-2.7097,-2.7282,-2.8084,-2.8844,-2.9296,-2.9423,-2.9714,-3.0219,-3.0439,-3.0507,-3.0419,-3.0442,-3.0287,-2.9816,-2.9931,-2.9889,-2.9722,-2.9396,-2.9185,-2.9079,-2.8664,-2.8511,-2.8779,-2.8668,-2.8788,-2.9108,-2.8991,-2.8944,-2.8974,-2.8659,-2.8328,-2.796,-2.7642,-2.7461,-2.7409,-2.7185,-2.7082,-2.6984,-2.6738,-2.6388,-2.6054,-2.6054,-2.5953,-2.5876,-2.5876,-2.5694,-2.5403,-2.5168,-2.4895,-2.4603,-2.4615,-2.4778,-2.5016,-2.5087,-2.505,-2.4857,-2.4232,-2.4046,-2.3798,-2.305,-2.2487,-2.1922,-2.1235,-2.1109,-2.1109,-2.1109,-2.1109,-2.1129,-2.1196,-2.1396,-2.1597,-2.1522,-2.1213,-2.1057,-2.1126,-2.0699,-2.0364,-2.0364,-2.0545,-2.0665,-2.0665,-2.0665,-2.0735,-2.0804,-2.1012,-2.1283,-2.1766,-2.2035,-2.2379,-2.2791,-2.2859,-2.2934,-2.2996,-2.327,-2.3338,-2.314,-2.3823,-2.4095,-2.273,-2.3053,-2.3289,-2.2891,-2.3264,-2.3568,-2.2937,-2.3171,-2.3622,-2.4011,-2.4178,-2.4471,-2.5389,-2.5677,-2.6097,-2.7129,-2.7392,-2.7808,-2.8738,-2.9252,-2.951,-2.9598,-3.0138,-3.0479,-3.0471,-3.0675,-3.062,-3.0339,-3.0141,-2.9994,-2.9942,-2.9722,-2.9396,-2.9132,-2.8834,-2.8587,-2.835,-2.8676,-2.8755,-2.8586,-2.9013,-2.9094,-2.8832,-2.8582,-2.8328,-2.796,-2.7642,-2.7349,-2.7133,-2.7133,-2.7116,-2.7082,-2.7082,-2.6782,-2.6439,-2.6439,-2.6225,-2.5876,-2.5876,-2.5688,-2.5489,-2.5438,-2.5046,-2.4512,-2.4603,-2.4603,-2.4698,-2.5016,-2.4857,-2.4548,-2.417,-2.386,-2.3425,-2.2418,-2.2174,-2.1922,-2.1235,-2.1109,-2.1109,-2.1109,-2.1109,-2.1196,-2.1527,-2.1601,-2.1535,-2.1328,-2.1289,-2.1138,-2.08,-2.0698,-2.0629,-2.0629,-2.0653,-2.0665,-2.0665,-2.0665,-2.0804,-2.1144,-2.0873,-2.1081,-2.1766,-2.1835,-2.2042,-2.2379,-2.2722,-2.3065,-2.3338,-2.3406,-2.3543,-2.3891,-2.4299,-2.4435,-2.3075,-2.3106,-2.3194,-2.3264,-2.3541,-2.3623,-2.3235,-2.3303,-2.3445,-2.3517,-2.3902,-2.4395,-2.499,-2.5928,-2.6808,-2.7437,-2.7999,-2.8556,-2.9166,-2.9247,-2.9396,-2.9705,-2.9827,-3.0079,-3.0453,-3.0589,-3.0559,-3.0422,-3.0287,-3.0193,-2.9994,-2.9774,-2.9448,-2.9132,-2.8834,-2.8568,-2.8291,-2.8457,-2.8519,-2.8516,-2.8509,-2.8512,-2.8423,-2.8259,-2.797,-2.7632,-2.7545,-2.7349,-2.7073,-2.7073,-2.7073,-2.7073,-2.7073,-2.6979,-2.6842,-2.6842,-2.6747,-2.6559,-2.6381,-2.6106,-2.58,-2.5635,-2.5234,-2.4895,-2.4918,-2.4897,-2.4928,-2.5071,-2.4857,-2.4548,-2.417,-2.3673,-2.3106,-2.2292,-2.2111,-2.1922,-2.1235,-2.1109,-2.1162,-2.1343,-2.1376,-2.147,-2.1764,-2.1826,-2.1825,-2.1915,-2.1758,-2.1639,-2.1678,-2.1283,-2.1006,-2.1006,-2.0804,-2.0665,-2.0665,-2.0665,-2.0873,-2.1214,-2.1075,-2.1352,-2.2035,-2.2104,-2.231,-2.2654,-2.2996,-2.327,-2.3406,-2.3816,-2.402,-2.4027,-2.4578,-2.4841,-2.3372,-2.3224,-2.3163,-2.3503,-2.3624,-2.3656,-2.3464,-2.3494,-2.3552,-2.3396,-2.382,-2.4317,-2.4822,-2.5928,-2.6952,-2.7612,-2.832,-2.8925,-2.9442,-2.9255,-2.9261,-2.9626,-2.9555,-2.9703,-3.0181,-3.0396,-3.0509,-3.0515,-3.0443,-3.0297,-2.9994,-2.9827,-2.9501,-2.9132,-2.893,-2.8664,-2.8291,-2.8291,-2.834,-2.8433,-2.8146,-2.8032,-2.8108,-2.7946,-2.7737,-2.752,-2.7481,-2.7365,-2.7185,-2.7133,-2.7073,-2.7073,-2.7073,-2.7073,-2.7073,-2.7073,-2.7073,-2.7073,-2.67,-2.6388,-2.6014,-2.5725,-2.5357,-2.5111,-2.5111,-2.5111,-2.5111,-2.4988,-2.4672,-2.4232,-2.3922,-2.3425,-2.2926,-2.2237,-2.2111,-2.1922,-2.1235,-2.1109,-2.1169,-2.1383,-2.1561,-2.1715,-2.1937,-2.2031,-2.2115,-2.2336,-2.2112,-2.1966,-2.2104,-2.1691,-2.1352,-2.1352,-2.1151,-2.0943,-2.0735,-2.0804,-2.1006,-2.1352,-2.1352,-2.1622,-2.2242,-2.231,-2.2516,-2.2859,-2.3201,-2.3543,-2.3747,-2.4224,-2.4435,-2.4374,-2.4849,-2.5187,-2.3593,-2.3446,-2.3298,-2.3309,-2.3486,-2.3656,-2.3464,-2.3752,-2.4097,-2.4097,-2.4097,-2.4327,-2.5047,-2.5378,-2.5997,-2.7457,-2.7898,-2.8354,-2.9351,-2.9255,-2.9082,-2.9093,-2.9324,-2.9489,-2.95,-3.0106,-3.056,-3.0795,-3.0557,-3.0297,-2.9994,-2.9994,-2.9732,-2.9132,-2.9079,-2.8814,-2.8291,-2.8291,-2.8291,-2.8301,-2.8122,-2.7982,-2.8001,-2.7864,-2.7822,-2.7903,-2.7561,-2.7428,-2.7461,-2.7185,-2.7073,-2.7073,-2.7073,-2.7073,-2.7073,-2.7073,-2.7073,-2.7073,-2.67,-2.6388,-2.6014,-2.5725,-2.5357,-2.5111,-2.5111,-2.5111,-2.505,-2.4672,-2.4108,-2.3549,-2.3168,-2.3113,-2.2926,-2.2237,-2.2111,-2.1922,-2.1235,-2.1109,-2.1109,-2.1109,-2.1349,-2.1715,-2.1937,-2.2225,-2.2383,-2.2333,-2.2304,-2.2173,-2.1835,-2.1766,-2.1766,-2.1766,-2.1766,-2.149,-2.0735,-2.1006,-2.1352,-2.1766,-2.1766,-2.1973,-2.231,-2.231,-2.2516,-2.2859,-2.3201,-2.3747,-2.4503,-2.4503,-2.4706,-2.5119,-2.5127,-2.5464,-2.4007,-2.3751,-2.3482,-2.3335,-2.3345,-2.3381,-2.3155,-2.3237,-2.3346,-2.3346,-2.3607,-2.4065,-2.4783,-2.5347,-2.611,-2.7408,-2.8096,-2.8724,-2.9407,-2.942,-2.9347,-2.9347,-2.9465,-2.962,-2.9947,-3.0438,-3.0752,-3.0795,-3.0724,-3.0464,-3.0047,-2.9994,-2.9722,-2.9132,-2.9079,-2.8814,-2.8291,-2.8291,-2.8291,-2.8291,-2.7835,-2.7566,-2.7585,-2.7456,-2.7257,-2.7101,-2.7274,-2.7266,-2.7078,-2.7028,-2.7013,-2.7073,-2.7073,-2.7073,-2.7073,-2.7073,-2.7073,-2.7012,-2.6449,-2.6197,-2.6014,-2.541,-2.5173,-2.5111,-2.5111,-2.5111,-2.4988,-2.4417,-2.3922,-2.3549,-2.3175,-2.3106,-2.2926,-2.2237,-2.2111,-2.1922,-2.1235,-2.1109,-2.1169,-2.137,-2.1554,-2.171,-2.2198,-2.2157,-2.2181,-2.2614,-2.2448,-2.2307,-2.2247,-2.2023,-2.181,-2.1548,-2.1501,-2.1488,-2.1477,-2.1559,-2.1766,-2.2104,-2.1904,-2.2042,-2.2654,-2.2448,-2.2585,-2.3201,-2.3611,-2.4027,-2.4503,-2.4781,-2.4984,-2.5127,-2.5599,-2.5869,-2.4345,-2.4007,-2.3666,-2.3567,-2.3409,-2.3261,-2.315,-2.3038,-2.3001,-2.3001,-2.3279,-2.3809,-2.4636,-2.525,-2.6084,-2.7371,-2.8091,-2.8677,-2.9401,-2.9342,-2.9227,-2.9233,-2.9253,-2.9467,-3.0144,-3.0472,-3.0669,-3.0785,-3.0786,-3.0579,-3.0047,-2.9994,-2.9722,-2.9132,-2.9079,-2.8814,-2.8291,-2.8291,-2.8291,-2.8291,-2.7701,-2.7377,-2.7387,-2.7104,-2.692,-2.6899,-2.704,-2.7053,0.0,-2.6964,-2.6952,-2.7073,-2.7073,-2.7073,-2.7073,-2.7073,-2.7012,-2.6822,-2.6319,-2.6014,-2.5839,-2.5296,-2.5111,-2.5111,-2.5111,-2.4919,-2.461,-2.4232,-2.3798,-2.3355,-2.3168,-2.3106,-2.2926,-2.2237,-2.2111,-2.1922,-2.1235,-2.1109,-2.1162,-2.1349,-2.1692,-2.2027,-2.2191,-2.2371,-2.2584,-2.2832,-2.2561,-2.2354,-2.2378,-2.2217,-2.2016,-2.1832,-2.1873,-2.1978,-2.2229,-2.211,-2.2104,-2.231,-2.2242,-2.2448,-2.2866,-2.2791,-2.2996,-2.3611,-2.4027,-2.4367,-2.4706,-2.4984,-2.5194,-2.5329,-2.5869,-2.6205,0.0,-2.4236,-2.3934,-2.3934,-2.3641,-2.3346,-2.3342,-2.3205,0.0,-2.3099,-2.326,-2.3696,-2.4675,-2.5206,-2.5916,-2.7322,-2.7817,-2.831,-2.9251,-2.8991,-2.8711,-2.8784,-2.8836,-2.923,-3.0122,-3.0242,-3.0398,-3.0764,-3.0786,-3.0579,-3.0047,-2.9994,-2.9722,-2.9132,-2.9079,-2.8814,-2.8291,-2.8291,-2.8291,-2.8291,-2.7701,-2.7377,-2.7377,-2.6854,-2.6784,-2.7132,-2.6807,-2.6927,-2.7349,-2.7014,-2.6952,-2.7073,-2.7073,-2.7073,-2.7073,-2.7073,-2.6882,-2.6571,-2.6172,-2.5859,-2.5509,-2.5162,-2.5048,-2.5071,-2.5071,-2.4656,-2.4108,-2.4108,-2.3611,-2.3113,-2.3113,-2.3113,-2.2918,-2.2237,-2.2111,-2.1859,-2.1235,-2.1109,-2.1109,-2.1109,-2.1822,-2.2352,-2.205,-2.2721,-2.3243,-2.2928,-2.2612,-2.2418,-2.2418,-2.2398,-2.2385,-2.2385,-2.2652,-2.2826,-2.2826,-2.2572,-2.2379,-2.2379,-2.2722,-2.2928,-2.2996,-2.327,-2.3611,-2.4027,-2.4367,-2.4713,-2.5127,-2.5127,-2.5329,-2.5667,-2.6003,-2.6331,-2.4682,0.0,-2.4127,-2.4127,-2.3824,-2.3583,0.0,-2.3672,-2.3667,-2.4061,-2.4321,-2.4681,-2.5411,-2.5802,-2.6291,-2.7154,-2.7683,-2.8015,-2.802,-2.8275,-2.8529,-2.8784,-2.9132,-2.9543,-3.0155,-3.0526,-3.0734,-3.0785,-3.0786,-3.0579,-3.0047,-2.9994,-2.9722,-2.9132,-2.9079,-2.8814,-2.8291,-2.8291,-2.8291,-2.8291,-2.7701,-2.7377,-2.7377,-2.6854,-2.6637,-2.6747,-2.6698,-2.6814,-2.6951,-2.6892,-2.6952,-2.7073,-2.7073,-2.7073,-2.7073,-2.7073,-2.6882,-2.6537,-2.5899,-2.5499,-2.5149,-2.4508,-2.4484,-2.4706,-2.4706,-2.4583,-2.4425,-2.417,-2.3798,-2.3417,-2.3168,-2.2926,-2.2606,-2.2174,-2.1922,-2.1607,-2.1172,-2.1109,-2.1172,-2.1425,-2.1659,-2.1919,-2.2338,-2.2545,-2.2734,-2.2894,-2.2612,-2.2418,-2.2418,-2.2225,-2.2084,-2.2084,-2.2345,-2.2525,-2.2525,-2.2664,-2.2859,-2.3133,-2.3201,-2.3406,-2.3754,-2.3823,-2.402,-2.4367,-2.4781,-2.5119,-2.5464,-2.5464,-2.5667,-2.6003,-2.6398,-2.6733,-2.4765,-2.4502,-2.4236,-2.4309,-2.4152,-2.397,-2.4087,-2.4101,-2.4159,-2.4432,-2.4662,-2.4981,-2.5652,-2.5971,-2.6371,-2.7098,-2.7378,-2.7542,-2.7644,-2.7966,-2.8347,-2.8749,-2.8892,-2.9291,-3.0144,-3.0439,-3.0626,-3.0785,-3.0786,-3.0579,-3.0047,-2.9994,-2.9722,-2.9132,-2.9079,-2.8814,-2.8291,-2.8291,-2.8291,-2.8291,-2.7701,-2.7377,-2.7377,-2.6854,-2.6683,-2.6866,-2.6901,-2.699,-2.7084,-2.712,-2.7139,-2.7073,-2.7073,-2.7073,-2.7073,-2.7073,-2.672,-2.6121,-2.5749,-2.5209,-2.4638,-2.4428,-2.4428,-2.4611,-2.4778,-2.4708,-2.4548,-2.417,-2.386,-2.3549,-2.3175,-2.2856,-2.2543,-2.2174,-2.1859,-2.1488,-2.1172,-2.1109,-2.1212,-2.1729,-2.1937,-2.2171,-2.2661,-2.2828,-2.2883,-2.2908,-2.2498,-2.2218,-2.2218,-2.1964,-2.1837,-2.1971,-2.2245,-2.2539,-2.2808,-2.3038,-2.3201,-2.3406,-2.3543,-2.3754,-2.3959,-2.4163,-2.4367,-2.4781,-2.5119,-2.5397,-2.5599,-2.5734,-2.6003,-2.6398,-2.6599,-2.6992,-2.4682,-2.4548,-2.434,-2.457,-2.444,-2.435,-2.4496,-2.4564,-2.4618,-2.4694,-2.4832,-2.513,-2.5735,-2.6033,-2.637,-2.6987,-2.6933,-2.697,-2.7501,-2.7766,-2.8067,-2.8582,-2.8556,-2.8942,-3.0025,-3.0177,-3.0342,-3.0774,-3.0776,-3.0516,-3.0047,-2.9994,-2.9722,-2.9132,-2.9079,-2.8814,-2.8291,-2.8291,-2.8291,-2.8291,-2.7701,-2.7377,-2.7377,-2.6854,-2.6802,-2.7178,-2.7186,-2.7293,-2.7393,-2.7388,-2.7319,-2.7073,-2.7073,-2.7073,-2.7073,-2.7073,-2.6472,-2.5547,-2.5372,-2.4771,-2.414,-2.4384,-2.4492,-2.4635,-2.4936,-2.4818,-2.4548,-2.417,-2.386,-2.3549,-2.3175,-2.2793,-2.2425,-2.2174,-2.1796,-2.1418,-2.1172,-2.1172,-2.1309,-2.1879,-2.2271,-2.2592,-2.2912,-2.3207,-2.327,-2.2997,-2.2425,-2.2003,-2.2043,-2.1795,-2.1728,-2.1951,-2.2245,-2.2653,-2.3181,-2.3379,-2.3475,-2.3475,-2.3884,-2.4095,-2.4163,-2.4435,-2.4781,-2.5119,-2.5464,-2.5599,-2.5667,-2.6003,-2.6406,-2.68,-2.68,-2.7126,-2.4502,-2.4682,-2.4834,-2.5032,-2.469,-2.4529,-2.5368,-2.5333,-2.5226,-2.56,-2.5843,-2.5989,-2.6108,-2.6367,-2.6543,-2.6663,-2.6479,-2.6459,-2.6971,-2.725,-2.751,-2.7817,-2.8549,-2.9214,-2.9791,-3.0024,-3.0293,-3.0795,-3.0609,-3.0349,-2.9994,-2.9994,-2.9722,-2.9132,-2.9079,-2.8814,-2.8291,-2.8291,-2.8291,-2.8291,-2.7701,-2.7377,-2.7377,-2.6854,-2.6802,-2.7196,-2.7253,-2.7324,-2.742,-2.7491,-2.7306,-2.7073,-2.7073,-2.7073,-2.7073,-2.7073,-2.6472,-2.5413,-2.4271,-2.3905,-2.3989,-2.3747,-2.4102,-2.4587,-2.4642,-2.4621,-2.4548,-2.417,-2.386,-2.3549,-2.3175,-2.2668,-2.2167,-2.2111,-2.1607,-2.1172,-2.1109,-2.1299,-2.1558,-2.1669,-2.2127,-2.2583,-2.296,-2.3025,-2.3084,-2.3359,-2.2649,-2.2158,-2.2411,-2.1926,-2.1728,-2.1951,-2.2245,-2.2438,-2.2546,-2.3398,-2.3891,-2.3891,-2.4231,-2.457,-2.4924,-2.4984,-2.5052,-2.5127,-2.5464,-2.5734,-2.6003,-2.6398,-2.68,-2.7134,-2.7134,-2.7533,-2.4309,-2.4434,-2.459,-2.4866,-2.5004,-2.5183,-2.5561,-2.5628,-2.5633,-2.5852,-2.5979,-2.6074,-2.6199,-2.6229,-2.6307,-2.6561,-2.6606,-2.6786,-2.7404,-2.7388,-2.7487,-2.8006,-2.8214,-2.8519,-2.9171,-2.9653,-3.0024,-3.0187,-3.0461,-3.0464,-2.9994,-2.9994,-2.9722,-2.9132,-2.9079,-2.8814,-2.8291,-2.8291,-2.8291,-2.8291,-2.7701,-2.7377,-2.7377,-2.6854,-2.6921,-2.7508,-2.7578,-2.7602,-2.7712,-2.776,-2.7539,-2.7073,-2.7073,-2.7073,-2.7047,-2.6489,-2.599,-2.5394,-2.4404,-2.4053,-2.4022,-2.4277,-2.4444,-2.4619,-2.4809,-2.4731,-2.4548,-2.417,-2.386,-2.3549,-2.3175,-2.2606,-2.2111,-2.2111,-2.1607,-2.1172,-2.1362,-2.1481,-2.1725,-2.2074,-2.2468,-2.2831,-2.2962,-2.3154,-2.3234,-2.32,-2.2607,-2.2114,-2.225,-2.1754,-2.143,-2.1724,-2.1871,-2.2276,-2.2928,-2.3421,-2.3986,-2.4563,-2.4713,-2.4916,-2.5119,-2.5127,-2.5127,-2.5127,-2.5599,-2.5936,-2.6071,-2.6674,-2.7067,-2.72,-2.7392,-2.7791,-2.42,-2.4281,-2.4379,-2.4581,-2.511,-2.5596,-2.5518,-2.5711,-2.5906,-2.5853,-2.5822,-2.5864,-2.5937,-2.5994,-2.6148,-2.654,-2.6811,-2.7195,-2.7684,-2.7573,-2.7547,-2.7993,-2.7757,-2.7857,-2.8561,-2.9174,-2.9593,-2.9707,-3.0242,-3.0412,-2.9994,-2.9994,-2.9722,-2.9132,-2.9079,-2.8814,-2.8291,-2.8291,-2.8291,-2.8291,-2.7701,-2.7377,-2.7377,-2.6854,-2.6967,-2.7684,-2.7785,-2.7821,-2.7896,-2.7984,-2.7668,-2.7073,-2.7073,-2.7073,-2.6969,-2.5996,-2.5619,-2.5537,-2.4859,-2.447,-2.4405,-2.4957,-2.5004,-2.4883,-2.5024,-2.4795,-2.4425,-2.417,-2.3798,-2.3417,-2.3168,-2.2606,-2.2111,-2.2111,-2.1607,-2.1172,-2.1425,-2.1607,-2.1865,-2.2291,-2.2713,-2.3053,-2.3053,-2.325,-2.3328,-2.3153,-2.2535,-2.2084,-2.2084,-2.1504,-2.1196,-2.1487,-2.1641,-2.2218,-2.3486,-2.3669,-2.4111,-2.5044,-2.5127,-2.5127,-2.5127,-2.5127,-2.5127,-2.5127,-2.5734,-2.6071,-2.6071,-2.6867,-2.72,-2.7208,-2.7517,-2.7915,-2.42,-2.4522,-2.4765,-2.4408,-2.4686,-2.515,-2.5429,-2.5711,-2.5864,-2.5644,-2.5612,-2.5559,-2.5338,-2.583,-2.6325,-2.6584,-2.6988,-2.7205,-2.7081,-2.7414,-2.75,-2.7073,-2.7369,-2.782,-2.8368,-2.8585,-2.8944,-2.9656,-2.9932,-3.0047,-2.9994,-2.9994,-2.9722,-2.9132,-2.9079,-2.8814,-2.8291,-2.8291,-2.8291,-2.8291,-2.7701,-2.7377,-2.7377,-2.6854,-2.682,-2.7242,-2.7666,-2.7667,-2.7455,-2.7878,-2.7668,-2.7073,-2.7073,-2.7073,-2.6969,-2.5996,-2.5726,-2.583,-2.4949,-2.4972,-2.5362,-2.5171,-2.5295,-2.5448,-2.5165,-2.4672,-2.4108,-2.4108,-2.3611,-2.3113,-2.3113,-2.2606,-2.2111,-2.2111,-2.1607,-2.1109,-2.1109,-2.1607,-2.1992,-2.1698,-2.2455,-2.3121,-2.3121,-2.3135,-2.3214,-2.3505,-2.2722,-2.2083,-2.2083,-2.1495,-2.1116,-2.1136,-2.163,-2.2523,-2.3875,-2.4263,-2.4617,-2.5059,-2.5127,-2.5127,-2.5127,-2.5127,-2.5127,-2.5127,-2.5734,-2.6071,-2.6071,-2.6867,-2.72,-2.7208,-2.7517,-2.7915,-2.3861,-2.3948,-2.4021,-2.3761,-2.4237,-2.4897,-2.5216,-2.5505,-2.5738,-2.577,-2.5549,-2.5338,-2.52,-2.5905,-2.6552,-2.6834,-2.7224,-2.7601,-2.7823,-2.7729,-2.7556,-2.7369,-2.7385,-2.7562,-2.7872,-2.8467,-2.898,-2.9218,-2.9879,-3.0193,-2.9994,-2.9994,-2.9722,-2.9132,-2.9079,-2.8814,-2.8291,-2.8291,-2.8291,-2.8291,-2.7701,-2.7377,-2.7377,-2.6854,-2.6802,-2.7187,-2.7334,-2.7431,-2.7402,-2.7544,-2.7389,-2.7073,-2.7073,-2.7073,-2.7056,-2.6419,-2.6286,-2.627,-2.5946,-2.5801,-2.5827,-2.5742,-2.5672,-2.5488,-2.4919,-2.461,-2.4293,-2.3922,-2.3611,-2.3355,-2.3168,-2.2606,-2.2174,-2.2362,-2.1734,-2.1299,-2.1922,-2.2048,-2.2111,-2.2237,-2.287,-2.3276,-2.2891,-2.3147,-2.3403,-2.3325,-2.2622,-2.2111,-2.2111,-2.1481,-2.1182,-2.1363,-2.2304,-2.3147,-2.3651,-2.4388,-2.4916,-2.5119,-2.5127,-2.5127,-2.5127,-2.5127,-2.5127,-2.5127,-2.5734,-2.6071,-2.6071,-2.6867,-2.72,-2.72,-2.7791,-2.8122,-2.3629,-2.3593,-2.3601,-2.3534,-2.4139,-2.479,-2.5135,-2.5422,-2.5612,-2.5686,-2.5295,-2.5083,-2.5349,-2.6087,-2.6791,-2.7246,-2.7677,-2.8017,-2.8247,-2.7867,-2.7594,-2.7489,-2.7394,-2.7404,-2.7584,-2.846,-2.9055,-2.9126,-2.9928,-3.0339,-3.0151,-3.0047,-2.9774,-2.929,-2.9185,-2.8867,-2.8451,-2.8344,-2.8291,-2.8291,-2.7701,-2.7498,-2.7566,-2.691,-2.6802,-2.7178,-2.7178,-2.7207,-2.7205,-2.7346,-2.7267,-2.7073,-2.7073,-2.7073,-2.7073,-2.67,-2.6592,-2.6525,-2.6478,-2.6282,-2.6002,-2.594,-2.5725,-2.5365,-2.4795,-2.4425,-2.417,-2.3736,-2.3549,-2.3417,-2.3175,-2.2675,-2.2292,-2.2543,-2.1985,-2.1607,-2.2292,-2.2362,-2.2362,-2.255,-2.3037,-2.3313,-2.2837,-2.317,-2.3362,-2.3142,-2.255,-2.2111,-2.2111,-2.1481,-2.1263,-2.165,-2.2786,-2.3532,-2.363,-2.4516,-2.5127,-2.5127,-2.5127,-2.5127,-2.5127,-2.5127,-2.5127,-2.5127,-2.5734,-2.6071,-2.6071,-2.6867,-2.72,-2.72,-2.7932,-2.8329,-2.3641,-2.3604,-2.3642,-2.3917,-2.4354,-2.479,-2.5135,-2.538,-2.5517,-2.5242,-2.4828,-2.4814,-2.5741,-2.6361,-2.6976,-2.7869,-2.8221,-2.8301,-2.8045,-2.7762,-2.7547,-2.7299,-2.7309,-2.7404,-2.7594,-2.846,-2.9094,-2.9374,-3.003,-3.0391,-3.0391,-3.0141,-2.9879,-2.9606,-2.929,-2.8983,-2.8684,-2.8451,-2.8291,-2.8291,-2.7701,-2.7585,-2.7963,-2.703,-2.6802,-2.7169,-2.7169,-2.6992,-2.6711,-2.7173,-2.7267,-2.7073,-2.7073,-2.7073,-2.7073,-2.67,-2.6571,-2.6571,-2.6197,-2.6075,-2.6075,-2.5725,-2.5357,-2.5042,-2.4672,-2.4108,-2.3611,-2.3611,-2.3362,-2.3106,-2.3106,-2.2863,-2.2606,-2.2606,-2.2362,-2.2111,-2.2111,-2.2355,-2.2606,-2.2606,-2.2856,-2.3106,-2.3106,-2.3106,-2.3106,-2.3106,-2.255,-2.2111,-2.2111,-2.1488,-2.1343,-2.1924,-2.2917,-2.3623,-2.3999,-2.4713,-2.5127,-2.5127,-2.5127,-2.5127,-2.5127,-2.5127,-2.5127,-2.5127,-2.5734,-2.6071,-2.6071,-2.6867,-2.72,-2.72,-2.7932,-2.8329,-2.3261,-2.3327,-2.3509,-2.3727,-2.4294,-2.4805,-2.4916,-2.511,-2.5211,-2.4786,-2.5009,-2.5402,-2.5817,-2.656,-2.7301,-2.7914,-2.8221,-2.8301,-2.8045,-2.7762,-2.7547,-2.7299,-2.7309,-2.7577,-2.8322,-2.8747,-2.9331,-3.012,-3.0476,-3.0609,-3.0391,-3.0339,-3.0088,-2.9606,-2.929,-2.8983,-2.8684,-2.8451,-2.8291,-2.8291,-2.7916,-2.7704,-2.7557,-2.691,-2.6655,-2.6765,-2.6765,-2.6746,-2.6711,-2.6932,-2.708,-2.7073,-2.7073,-2.7073,-2.7073,-2.7012,-2.6952,-2.6882,-2.6571,-2.6449,-2.6388,-2.5786,-2.5549,-2.5296,-2.4479,-2.4293,-2.4232,-2.3736,-2.3549,-2.3425,-2.3425,-2.3168,-2.2918,-2.2918,-2.2543,-2.2237,-2.2668,-2.2668,-2.2668,-2.2926,-2.305,-2.3106,-2.3106,-2.3106,-2.3043,-2.2801,-2.2362,-2.1999,-2.1774,-2.1726,-2.1871,-2.2251,-2.3226,-2.3861,-2.402,-2.4713,-2.5127,-2.5127,-2.5127,-2.5127,-2.5127,-2.5127,-2.5127,-2.5127,-2.5532,-2.5869,-2.6071,-2.6599,-2.7,-2.72,-2.7932,-2.8403,-2.2835,-2.288,-2.3116,-2.3608,-2.4086,-2.448,-2.4772,-2.4945,-2.4988,-2.4583,-2.5114,-2.5733,-2.6159,-2.6884,-2.7673,-2.8198,-2.834,-2.8348,-2.8196,-2.7914,-2.7715,-2.7584,-2.7584,-2.7905,-2.8764,-2.9125,-2.9682,-3.0565,-3.0858,-3.0879,-3.0713,-3.0495,-3.0235,-2.9921,-2.9396,-2.9026,-2.8887,-2.8504,-2.8291,-2.8291,-2.8014,-2.7799,-2.7584,-2.7008,-2.6828,-2.6985,-2.6875,-2.6909,-2.6998,-2.7064,-2.708,-2.7073,-2.7073,-2.7073,-2.7073,-2.7073,-2.7073,-2.7012,-2.6571,-2.6388,-2.6266,-2.5602,-2.5296,-2.5111,-2.4487,-2.4355,-2.4293,-2.3922,-2.3673,-2.3611,-2.3611,-2.3362,-2.3106,-2.3106,-2.2793,-2.2613,-2.2981,-2.2918,-2.2863,-2.305,-2.3106,-2.3106,-2.3106,-2.3106,-2.305,-2.2863,-2.2524,-2.2109,-2.1659,-2.1904,-2.2225,-2.2398,-2.3229,-2.3747,-2.3747,-2.4299,-2.4713,-2.4849,-2.4849,-2.4916,-2.5119,-2.5127,-2.5127,-2.5127,-2.5464,-2.5734,-2.6071,-2.6532,-2.6867,-2.72,-2.7932,-2.8461,-2.2387,-2.2434,-2.2652,-2.3554,-2.3852,-2.4087,-2.4756,-2.4861,-2.4786,-2.4634,-2.514,-2.5853,-2.666,-2.7312,-2.7971,-2.868,-2.8617,-2.8441,-2.8395,-2.8196,-2.8045,-2.7998,-2.803,-2.8337,-2.908,-2.9591,-3.0154,-3.093,-3.1124,-3.123,-3.1178,-3.0703,-3.0443,-3.0391,-2.9554,-2.9079,-2.9079,-2.8558,-2.8291,-2.8291,-2.8067,-2.796,-2.7906,-2.7314,-2.7204,-2.7512,-2.7271,-2.7278,-2.7399,-2.7376,-2.7327,-2.7133,-2.7133,-2.7073,-2.7073,-2.7073,-2.7073,-2.7012,-2.6327,-2.6075,-2.6014,-2.5349,-2.4919,-2.4672,-2.461,-2.4425,-2.417,-2.417,-2.3922,-2.3673,-2.3673,-2.3355,-2.3106,-2.3106,-2.3106,-2.3106,-2.3106,-2.3106,-2.3106,-2.3106,-2.3106,-2.3106,-2.3106,-2.3106,-2.3106,-2.305,-2.273,-2.2295,-2.1777,-2.2051,-2.2398,-2.2452,-2.3039,-2.3406,-2.3475,-2.3823,-2.4163,-2.4503,-2.4503,-2.4706,-2.5059,-2.5127,-2.5127,-2.5127,-2.5397,-2.5734,-2.6071,-2.6465,-2.6867,-2.72,-2.7932,-2.8461,-2.2573,-2.2679,-2.291,-2.3639,-2.4247,-2.4703,-2.4861,-2.4743,-2.4719,-2.5256,-2.5621,-2.6168,-2.728,-2.7744,-2.8154,-2.8727,-2.8757,-2.8617,-2.8441,-2.8348,-2.8243,-2.8045,-2.8328,-2.8828,-2.9602,-3.0076,-3.0651,-3.1382,-3.1513,-3.1424,-3.123,-3.0879,-3.0609,-3.0391,-2.9554,-2.9079,-2.9079,-2.8558,-2.8291,-2.8291,-2.8237,-2.8237,-2.8184,-2.7593,-2.7262,-2.7148,-2.7197,-2.7227,-2.7306,-2.7387,-2.7437,-2.7409,-2.7185,-2.7073,-2.7073,-2.7073,-2.7073,-2.7012,-2.6327,-2.6075,-2.6014,-2.5349,-2.505,-2.4919,-2.4672,-2.4734,-2.4857,-2.4548,-2.4232,-2.3984,-2.3984,-2.3549,-2.3106,-2.3106,-2.3106,-2.3106,-2.3106,-2.3106,-2.3106,-2.3106,-2.3106,-2.3106,-2.3106,-2.3106,-2.2988,-2.2731,-2.223,-2.1938,-2.2288,-2.2195,-2.2385,-2.312,-2.3297,-2.3543,-2.3823,-2.3959,-2.4163,-2.4503,-2.4503,-2.4706,-2.5059,-2.5127,-2.5127,-2.5127,-2.5194,-2.5532,-2.6071,-2.6205,-2.654,-2.72,-2.765,-2.8178,-2.2045,-2.2262,-2.2636,-2.3328,-2.423,-2.4871,-2.4743,-2.47,-2.4942,-2.5939,-2.622,-2.6566,-2.7497,-2.8085,-2.8462,-2.876,-2.8803,-2.8757,-2.8617,-2.8581,-2.8611,-2.8696,-2.8944,-2.9413,-3.0263,-3.0556,-3.0954,-3.1534,-3.1618,-3.1527,-3.1373,-3.1127,-3.0868,-3.0609,-2.9879,-2.9448,-2.9343,-2.8771,-2.8514,-2.8514,-2.8344,-2.8291,-2.8291,-2.7701,-2.7373,-2.7261,-2.7447,-2.7521,-2.7575,-2.7803,-2.7774,-2.7521,-2.7358,-2.7185,-2.7073,-2.7073,-2.7073,-2.7012,-2.651,-2.6258,-2.6014,-2.5541,-2.5234,-2.505,-2.4919,-2.4988,-2.5042,-2.4919,-2.4487,-2.4108,-2.4293,-2.3736,-2.3168,-2.3293,-2.323,-2.3106,-2.3106,-2.3106,-2.3106,-2.3106,-2.3106,-2.3106,-2.3106,-2.3106,-2.2988,-2.2668,-2.23,-2.2128,-2.2322,-2.216,-2.2237,-2.2874,-2.2841,-2.2908,-2.325,-2.3116,-2.3313,-2.3997,-2.4004,-2.4345,-2.5052,-2.5127,-2.5127,-2.5127,-2.5127,-2.5464,-2.6071,-2.6071,-2.6473,-2.7208,-2.7517,-2.8111,-2.1409,-2.1766,-2.2293,-2.3076,-2.4012,-2.4724,-2.4605,-2.4786,-2.5284,-2.6393,-2.6683,-2.6941,-2.7739,-2.8392,-2.8803,-2.8803,-2.8803,-2.8803,-2.8803,-2.8869,-2.9077,-2.9434,-2.962,-3.0035,-3.0821,-3.0974,-3.1181,-3.1586,-3.1618,-3.1618,-3.1618,-3.1322,-3.1075,-3.0827,-3.0256,-2.9879,-2.9606,-2.8993,-2.8684,-2.8684,-2.8408,-2.8291,-2.8291,-2.7755,-2.7512,-2.7594,-2.7715,-2.7836,-2.7889,-2.8246,-2.8086,-2.7642,-2.7581,-2.7349,-2.7185,-2.7133,-2.7073,-2.7012,-2.664,-2.6327,-2.6014,-2.5664,-2.5357,-2.5111,-2.5111,-2.5111,-2.5111,-2.5111,-2.4672,-2.4232,-2.4548,-2.3922,-2.3355,-2.3611,-2.3479,-2.3238,-2.3168,-2.3175,-2.3175,-2.3175,-2.3168,-2.3106,-2.3106,-2.3106,-2.2988,-2.2738,-2.2582,-2.2446,-2.2181,-2.2018,-2.2062,-2.2438,-2.2182,-2.2116,-2.2438,-2.2182,-2.2415,-2.3332,-2.3462,-2.3951,-2.4964,-2.5097,-2.5127,-2.5127,-2.5127,-2.5464,-2.6071,-2.6071,-2.6473,-2.7208,-2.7451,-2.8012,-2.1376,-2.1805,-2.2331,-2.3226,-2.3865,-2.4388,-2.4777,-2.4988,-2.5402,-2.6173,-2.6536,-2.7093,-2.8403,-2.8713,-2.8803,-2.8803,-2.8803,-2.8803,-2.8803,-2.9164,-2.9412,-2.9478,-3.0209,-3.0756,-3.0887,-3.128,-3.1553,-3.1618,-3.1618,-3.1618,-3.1618,-3.1322,-3.1075,-3.0827,-3.0256,-2.9879,-2.9606,-2.8993,-2.8684,-2.8684,-2.8408,-2.8291,-2.8291,-2.797,-2.7666,-2.7427,-2.7576,-2.7706,-2.7818,-2.7939,-2.8133,-2.8337,-2.7711,-2.7461,-2.7401,-2.7194,-2.7073,-2.7012,-2.6388,-2.6136,-2.6014,-2.5349,-2.5111,-2.5111,-2.5111,-2.5111,-2.5111,-2.5111,-2.4857,-2.4548,-2.461,-2.4293,-2.3984,-2.4046,-2.3984,-2.386,-2.3611,-2.3549,-2.3549,-2.3549,-2.3293,-2.3106,-2.3106,-2.3106,-2.3113,-2.3043,-2.2523,-2.2272,-2.2474,-2.2035,-2.1905,-2.2417,-2.2182,-2.2116,-2.2438,-2.2182,-2.2327,-2.3018,-2.3343,-2.3852,-2.4635,-2.4973,-2.5127,-2.5127,-2.5127,-2.5464,-2.6071,-2.6071,-2.6473,-2.72,-2.7267,-2.769,-2.1544,-2.1844,-2.223,-2.2793,-2.3384,-2.3896,-2.4263,-2.4567,-2.5051,-2.5894,-2.6516,-2.7187,-2.8187,-2.8617,-2.8803,-2.8803,-2.8803,-2.8803,-2.8803,-2.9219,-2.9587,-2.986,-3.0482,-3.0996,-3.128,-3.1498,-3.1618,-3.1618,-3.1618,-3.1618,-3.1618,-3.1476,-3.123,-3.0827,-3.0568,-3.0256,-2.9827,-2.9406,-2.9046,-2.8684,-2.8408,-2.8291,-2.8291,-2.8184,-2.797,-2.772,-2.7757,-2.7772,-2.7697,-2.798,-2.7988,-2.7828,-2.7582,-2.7407,-2.7237,-2.7133,-2.7073,-2.7073,-2.6761,-2.638,-2.6075,-2.577,-2.541,-2.5111,-2.5111,-2.5111,-2.5111,-2.5111,-2.4857,-2.4672,-2.4857,-2.4479,-2.417,-2.4363,-2.4363,-2.4355,-2.417,-2.386,-2.3542,-2.3362,-2.3168,-2.3106,-2.3106,-2.3106,-2.3106,-2.3106,-2.2668,-2.2349,-2.2356,-2.1876,-2.1669,-2.1991,-2.169,-2.1619,-2.194,-2.1876,-2.2073,-2.2762,-2.3097,-2.3658,-2.4554,-2.4708,-2.4936,-2.5119,-2.5127,-2.5464,-2.6071,-2.6071,-2.6473,-2.72,-2.7392,-2.7791,-2.1504,-2.169,-2.1939,-2.2373,-2.2903,-2.3446,-2.3867,-2.4272,-2.4721,-2.5551,-2.6323,-2.7017,-2.7628,-2.8296,-2.8803,-2.8803,-2.8803,-2.8803,-2.8803,-2.9328,-2.9805,-3.0166,-3.0723,-3.1225,-3.1586,-3.1618,-3.1618,-3.1618,-3.1618,-3.1618,-3.1618,-3.1618,-3.1373,-3.0838,-3.0786,-3.0516,-2.9994,-2.9669,-2.9195,-2.8684,-2.8408,-2.8291,-2.8291,-2.8291,-2.8184,-2.7979,-2.7962,-2.7842,-2.7595,-2.7893,-2.7799,-2.7369,-2.7408,-2.7274,-2.7065,-2.7099,-2.7073,-2.7073,-2.7012,-2.6571,-2.6075,-2.6014,-2.5594,-2.5111,-2.5111,-2.5111,-2.5111,-2.5111,-2.4919,-2.4795,-2.505,-2.4734,-2.4417,-2.4672,-2.4734,-2.4672,-2.4487,-2.4108,-2.3611,-2.3175,-2.3106,-2.3106,-2.3106,-2.3106,-2.3106,-2.3106,-2.2793,-2.2487,-2.2237,-2.1859,-2.1607,-2.1607,-2.1299,-2.1172,-2.1418,-2.1544,-2.183,-2.2447,-2.2851,-2.353,-2.4423,-2.4525,-2.4789,-2.5119,-2.5194,-2.5532,-2.6071,-2.6205,-2.6607,-2.7208,-2.7517,-2.7915,-2.1108,-2.1103,-2.1282,-2.2174,-2.2604,-2.3087,-2.4,-2.4344,-2.4626,-2.5136,-2.584,-2.6454,-2.6951,-2.8032,-2.8803,-2.8803,-2.8803,-2.8803,-2.8803,-2.9576,-3.0188,-3.0209,-3.1029,-3.1545,-3.1618,-3.1618,-3.1618,-3.1618,-3.1618,-3.1618,-3.1618,-3.1618,-3.1373,-3.0838,-3.0786,-3.0516,-2.9994,-2.9396,-2.8983,-2.8684,-2.8408,-2.8291,-2.8291,-2.8291,-2.8291,-2.8291,-2.7989,-2.7796,-2.7577,-2.7595,-2.7509,-2.7332,-2.736,-2.7226,-2.6991,-2.7065,-2.7073,-2.7073,-2.6761,-2.6388,-2.6075,-2.5725,-2.5418,-2.5111,-2.5111,-2.5111,-2.5111,-2.5111,-2.5111,-2.5111,-2.5111,-2.505,-2.505,-2.505,-2.505,-2.4919,-2.4232,-2.4108,-2.386,-2.3238,-2.3106,-2.3106,-2.3106,-2.3106,-2.3106,-2.3106,-2.2793,-2.2606,-2.2613,-2.1985,-2.1607,-2.1607,-2.1299,-2.1109,-2.1109,-2.1418,-2.174,-2.2069,-2.273,-2.3428,-2.4093,-2.4401,-2.4789,-2.5119,-2.5397,-2.5734,-2.6071,-2.6465,-2.6867,-2.7208,-2.7517,-2.7915,-2.1097,-2.0981,-2.1064,-2.1867,-2.2009,-2.2153,-2.3098,-2.3568,-2.3997,-2.4461,-2.5338,-2.6193,-2.6663,-2.759,-2.8396,-2.8749,-2.8803,-2.8803,-2.8803,-2.9598,-3.0209,-3.0209,-3.105,-3.1618,-3.1618,-3.1618,-3.1618,-3.1618,-3.1618,-3.1618,-3.1618,-3.1618,-3.1373,-3.0838,-3.0786,-3.0516,-2.9994,-2.9606,-2.9237,-2.893,-2.8674,-2.8461,-2.8291,-2.8291,-2.8291,-2.8291,-2.8184,-2.7895,-2.7441,-2.7277,-2.7124,-2.6891,-2.6759,-2.6777,-2.6922,-2.6764,-2.6859,-2.7073,-2.6943,-2.6571,-2.6075,-2.5953,-2.5533,-2.5111,-2.5111,-2.5111,-2.5111,-2.5111,-2.5111,-2.5111,-2.5111,-2.5111,-2.5111,-2.5111,-2.5111,-2.4988,-2.4548,-2.4232,-2.3984,-2.3487,-2.323,-2.3106,-2.3106,-2.3106,-2.3106,-2.3106,-2.2981,-2.2856,-2.2613,-2.2174,-2.1859,-2.1607,-2.1299,-2.1109,-2.1109,-2.1607,-2.1985,-2.2111,-2.2713,-2.3523,-2.4381,-2.4522,-2.4973,-2.5727,-2.613,-2.6264,-2.6071,-2.6532,-2.6867,-2.72,-2.7799,-2.813,-2.1192,-2.1063,-2.1092,-2.1631,-2.162,-2.1686,-2.2594,-2.3006,-2.3334,-2.395,-2.4767,-2.5507,-2.6131,-2.6943,-2.7787,-2.8566,-2.8757,-2.8803,-2.8803,-2.9598,-3.0209,-3.0209,-3.105,-3.1618,-3.1618,-3.1618,-3.1618,-3.1618,-3.1618,-3.1618,-3.1618,-3.1618,-3.1373,-3.0838,-3.063,-3.036,-2.9994,-2.9711,-2.9448,-2.9079,-2.8834,-2.8568,-2.8291,-2.8291,-2.8291,-2.8291,-2.8077,-2.7755,-2.7377,-2.7215,-2.6875,-2.6468,-2.6444,-2.6478,-2.6539,-2.6485,-2.6661,-2.6876,-2.6876,-2.6651,-2.6258,-2.6136,-2.5717,-2.5234,-2.5111,-2.5111,-2.5111,-2.5111,-2.5111,-2.5111,-2.5111,-2.5111,-2.5111,-2.5111,-2.5111,-2.5042,-2.4795,-2.4417,-2.3984,-2.3673,-2.3362,-2.3106,-2.3106,-2.3106,-2.3106,-2.3106,-2.3106,-2.3043,-2.2793,-2.2362,-2.1985,-2.1796,-2.1481,-2.1299,-2.1299,-2.1859,-2.2299,-2.2299,-2.2793,-2.348,-2.4218,-2.4481,-2.4998,-2.5754,-2.6404,-2.6599,-2.6272,-2.6666,-2.7,-2.72,-2.7932,-2.8395,0.0,0.0,0.0,-2.1487,-2.1553,-2.1824,-2.259,-2.2637,-2.2749,-2.3691,-2.4013,-2.4462,-2.5418,-2.6087,-2.6971,-2.8154,-2.8606,-2.8803,-2.8803,-2.9587,-3.0199,-3.0209,-3.104,-3.1556,-3.1618,-3.1618,-3.1618,-3.1618,-3.1618,-3.1618,-3.1618,-3.1567,-3.1333,-3.0838,-3.0256,-2.9994,-2.9994,-2.9722,-2.9448,-2.9132,-2.8834,-2.8568,-2.8291,-2.8291,-2.8291,-2.8291,-2.7647,-2.7431,-2.7377,-2.7377,-2.689,-2.6163,-2.6541,-2.6311,-2.5865,-2.6231,-2.6431,-2.6473,-2.6482,-2.6551,-2.6554,-2.6197,-2.5839,-2.5549,-2.5173,-2.5111,-2.5111,-2.5111,-2.5111,-2.5111,-2.5111,-2.5111,-2.5111,-2.5111,-2.5103,-2.5111,-2.5111,-2.461,-2.4046,-2.3673,-2.3355,-2.3113,-2.3106,-2.3106,-2.3106,-2.3106,-2.3106,-2.3106,-2.3106,-2.2543,-2.2111,-2.2111,-2.1796,-2.1607,-2.1607,-2.223,-2.2606,-2.2606,-2.2918,-2.3252,-2.3581,-2.4233,-2.4762,-2.5165,-2.6155,-2.6725,-2.6725,-2.7067,-2.72,-2.72,-2.7932,-2.8659,-2.1769,0.0,0.0,0.0,0.0,0.0,-2.2308,-2.2713,-2.2955,-2.306,-2.3425,-2.3938,-2.4689,-2.5262,-2.5956,-2.6939,-2.7896,-2.8581,-2.8757,-2.9339,-2.9816,-3.0177,-3.0734,-3.1236,-3.1586,-3.1618,-3.1618,-3.1618,-3.1618,-3.1618,-3.1618,-3.123,-3.0931,-3.0786,-3.0256,-2.9994,-2.9994,-2.9942,-2.9774,-2.9448,-2.9132,-2.8824,-2.8568,-2.8408,-2.8291,-2.8291,-2.7906,-2.7638,-2.7377,-2.6954,-2.6691,-2.6427,-2.6308,-2.6192,-2.613,-2.5992,-2.5993,-2.6131,-2.6396,-2.633,-2.6166,-2.6114,-2.5839,-2.5549,-2.5173,-2.5111,-2.5173,-2.5418,-2.5296,-2.5173,-2.5418,-2.5656,-2.5778,-2.5541,-2.5488,-2.5418,-2.5173,-2.4734,-2.4355,-2.4046,-2.3673,-2.3362,-2.3168,-2.3106,-2.3106,-2.3106,-2.3106,-2.3106,-2.3106,-2.2738,-2.2355,-2.2111,-2.2048,-2.1859,-2.1607,-2.223,-2.2606,-2.2606,-2.2918,-2.3385,-2.397,-2.4626,-2.5291,-2.5874,-2.6686,-2.7067,-2.7067,-2.7134,-2.72,-2.72,-2.7932,-2.8659,-2.2507,-2.2163,-2.1935,-2.1924,0.0,0.0,-2.224,-2.2632,-2.2909,-2.2801,-2.3063,-2.3473,-2.3888,-2.4514,-2.5221,-2.5923,-2.6836,-2.7731,-2.8351,-2.9052,-2.9587,-2.9871,-3.0319,-3.0799,-3.1269,-3.1323,-3.14,-3.1607,-3.1618,-3.1618,-3.1618,-3.1075,-3.0786,-3.0786,-3.0256,-2.9994,-2.9994,-2.9994,-2.9889,-2.9606,-2.9237,-2.8983,-2.8674,-2.8408,-2.8291,-2.8291,-2.8014,-2.7691,-2.7377,-2.6954,-2.6691,-2.6591,-2.6364,-2.628,-2.6209,-2.5866,-2.5926,-2.6134,-2.6241,-2.6355,-2.6422,-2.6192,-2.5961,-2.5725,-2.5226,-2.5111,-2.5173,-2.5488,-2.5488,-2.5357,-2.5549,-2.5725,-2.59,-2.5847,-2.5725,-2.5549,-2.5357,-2.505,-2.4672,-2.417,-2.386,-2.3479,-2.3175,-2.3106,-2.3106,-2.3106,-2.3106,-2.3106,-2.3106,-2.2801,-2.255,-2.2362,-2.2299,-2.2237,-2.2048,-2.2487,-2.2801,-2.2801,-2.2981,-2.3256,-2.3636,-2.4687,-2.5359,-2.5804,-2.6748,-2.72,-2.72,-2.72,-2.7334,-2.7666,-2.813,-2.8659,-2.3389,0.0,0.0,-2.2169,-2.2182,0.0,-2.2275,-2.248,-2.2708,-2.2755,-2.2921,-2.3062,-2.3179,-2.385,-2.453,-2.5082,-2.5711,-2.653,-2.7728,-2.8746,-2.9347,-2.9401,-2.9838,-3.0308,-3.0777,-3.0821,-3.1018,-3.1509,-3.1586,-3.1618,-3.1618,-3.1075,-3.0786,-3.0786,-3.0256,-2.9994,-2.9994,-2.9994,-2.9889,-2.9606,-2.9237,-2.8983,-2.8674,-2.8408,-2.8291,-2.8291,-2.8014,-2.7745,-2.7431,-2.7152,-2.6836,-2.6591,-2.6591,-2.6418,-2.6081,-2.5842,-2.6025,-2.6278,-2.6026,-2.6439,-2.6952,-2.6371,-2.6136,-2.5953,-2.5349,-2.5111,-2.5173,-2.5488,-2.5672,-2.5733,-2.561,-2.5672,-2.5786,-2.6014,-2.5839,-2.5672,-2.561,-2.5357,-2.4988,-2.4301,-2.386,-2.3549,-2.3168,-2.3106,-2.3106,-2.3106,-2.3106,-2.3106,-2.3106,-2.2856,-2.2668,-2.2606,-2.2613,-2.2668,-2.2606,-2.2926,-2.3106,-2.3106,-2.3106,-2.3106,-2.3106,-2.4453,-2.5203,-2.5203,-2.6522,-2.72,-2.72,-2.72,-2.76,-2.8329,-2.8329,-2.8659,-2.4145,-2.3846,-2.3475,-2.2719,-2.2595,0.0,-2.2093,-2.2313,-2.2586,-2.2429,-2.2584,-2.2842,-2.309,-2.3406,-2.3777,-2.4261,-2.4938,-2.5875,-2.7216,-2.7903,-2.8462,-2.8902,-2.9325,-2.9816,-3.0297,-3.0351,-3.0537,-3.0996,-3.14,-3.1618,-3.1618,-3.1075,-3.0786,-3.0786,-3.0256,-2.9994,-2.9994,-2.9994,-2.9889,-2.9606,-2.9237,-2.8983,-2.8674,-2.8408,-2.8291,-2.8291,-2.8014,-2.7853,-2.7745,-2.7206,-2.6836,-2.6591,-2.6591,-2.6418,-2.6108,-2.6163,-2.6095,-2.5957,-2.6282,-2.6473,-2.6594,-2.6539,-2.6319,-2.6014,-2.5602,-2.5296,-2.5103,-2.5173,-2.597,-2.6648,-2.5794,-2.597,-2.6327,-2.6136,-2.6075,-2.5961,-2.5672,-2.5549,-2.5296,-2.461,-2.4232,-2.3798,-2.3168,-2.3106,-2.3106,-2.3106,-2.3106,-2.3106,-2.3106,-2.3043,-2.2918,-2.2613,-2.2856,-2.2918,-2.2606,-2.2926,-2.3106,-2.3106,-2.3106,-2.3106,-2.3106,-2.4453,-2.5203,-2.5203,-2.6522,-2.72,-2.72,-2.72,-2.76,-2.8329,-2.8329,-2.8659,-2.5,-2.466,-2.4271,-2.343,-2.316,0.0,0.0,-2.2514,-2.2597,-2.257,-2.2669,-2.2794,-2.301,-2.3297,-2.3601,-2.3978,-2.4447,-2.5072,-2.6022,-2.6801,-2.7555,-2.8309,-2.8615,-2.9052,-2.9784,-2.9849,-3.0133,-3.0843,-3.1116,-3.1367,-3.1607,-3.123,-3.0931,-3.0786,-3.0412,-3.0151,-2.9994,-2.9994,-2.9889,-2.9606,-2.9237,-2.8983,-2.8674,-2.8408,-2.8291,-2.8291,-2.8184,-2.7916,-2.7638,-2.7314,-2.6954,-2.6591,-2.6591,-2.6592,-2.6617,-2.6379,-2.6416,-2.6574,-2.653,-2.661,-2.6756,-2.6633,-2.651,-2.6266,-2.5961,-2.5839,-2.5839,-2.5656,-2.6205,-2.67,-2.6214,-2.6336,-2.6571,-2.638,-2.6197,-2.6022,-2.5672,-2.548,-2.5173,-2.4672,-2.4479,-2.4108,-2.3479,-2.3238,-2.3106,-2.3106,-2.3106,-2.3106,-2.3106,-2.3106,-2.305,-2.2856,-2.2981,-2.3106,-2.3106,-2.3106,-2.3168,-2.3355,-2.3168,-2.3106,-2.3106,-2.4453,-2.5493,-2.6152,-2.6893,-2.72,-2.72,-2.7392,-2.7724,-2.8329,-2.8469,-2.8799,-2.5731,-2.545,-2.5102,-2.4217,-2.3838,-2.3544,0.0,0.0,0.0,-2.2646,-2.2801,-2.2952,-2.3051,-2.3427,-2.3764,-2.3942,-2.4122,-2.4366,-2.4809,-2.568,-2.6647,-2.7556,-2.7796,-2.8198,-2.9117,-2.9379,-2.9794,-3.057,-3.0712,-3.0974,-3.1455,-3.1192,-3.0989,-3.0879,-3.0557,-3.0297,-3.0099,-3.0047,-2.9827,-2.9501,-2.9237,-2.893,-2.8621,-2.8408,-2.8291,-2.8291,-2.8291,-2.8023,-2.7539,-2.7431,-2.7171,-2.6745,-2.6636,-2.6784,-2.7022,-2.6489,-2.669,-2.7131,-2.6675,-2.6696,-2.697,-2.6736,-2.664,-2.651,-2.6197,-2.6327,-2.651,-2.6197,-2.638,-2.67,-2.651,-2.6571,-2.6571,-2.651,-2.6319,-2.6022,-2.5672,-2.5365,-2.5111,-2.4734,-2.4672,-2.4363,-2.3736,-2.3362,-2.3168,-2.3113,-2.3106,-2.3106,-2.3106,-2.3106,-2.3106,-2.3106,-2.3106,-2.3238,-2.3549,-2.3362,-2.33,-2.3611,-2.3362,-2.3197,-2.3263,-2.4607,-2.597,-2.7193,-2.7267,-2.7334,-2.7334,-2.7716,-2.8056,-2.8337,-2.8667,-2.8996,-2.6195,-2.6079,-2.584,-2.4932,-2.4594,-2.4184,-2.2974,0.0,-2.275,-2.2256,0.0,-2.336,-2.3335,0.0,0.0,-2.394,-2.3951,-2.4047,-2.4355,-2.4909,-2.5538,-2.632,-2.6965,-2.761,-2.8111,-2.8986,-2.9532,-2.9642,-3.0046,-3.0493,-3.0952,-3.0745,-3.0737,-3.1167,-3.0651,-3.0391,-3.0339,-3.0141,-2.9732,-2.9185,-2.9132,-2.8824,-2.8344,-2.8291,-2.8291,-2.8291,-2.8291,-2.8237,-2.8184,-2.7647,-2.7377,-2.7269,-2.68,-2.6619,-2.6646,-2.639,-2.6344,-2.6408,-2.6494,-2.6516,-2.661,-2.6961,-2.6822,-2.651,-2.6197,-2.6327,-2.651,-2.6197,-2.6571,-2.6891,-2.6327,-2.6388,-2.651,-2.6258,-2.6136,-2.6022,-2.5672,-2.5549,-2.5418,-2.5111,-2.4795,-2.4363,-2.3736,-2.3549,-2.3417,-2.3168,-2.3106,-2.3106,-2.3106,-2.3106,-2.3106,-2.3106,-2.3106,-2.3238,-2.3549,-2.3549,-2.3549,-2.3611,-2.3542,-2.3676,-2.3974,-2.5336,-2.6467,-2.72,-2.7517,-2.7642,-2.7642,-2.8329,-2.8535,-2.8337,-2.8667,-2.8996,-2.6483,-2.6305,-2.6117,-2.5697,-2.5162,-2.4486,-2.3658,-2.3123,-2.273,-2.2486,0.0,0.0,0.0,0.0,0.0,0.0,-2.4209,-2.4462,-2.4561,-2.4808,-2.5323,-2.627,-2.6773,-2.7217,-2.7566,-2.8244,-2.8757,-2.9088,-2.951,-3.0002,-3.0472,-3.0406,-3.0474,-3.0798,-3.0402,-3.0283,-3.0391,-3.0141,-2.9774,-2.9396,-2.9185,-2.892,-2.8514,-2.8344,-2.8291,-2.8291,-2.8291,-2.8237,-2.8077,-2.7799,-2.7476,-2.7152,-2.6944,-2.6884,-2.6893,-2.6603,-2.6593,-2.6641,-2.6713,-2.66,-2.6551,-2.6944,-2.7012,-2.6882,-2.67,-2.6761,-2.6882,-2.67,-2.6882,-2.7012,-2.6761,-2.6761,-2.6822,-2.6449,-2.6258,-2.6022,-2.5672,-2.5426,-2.5296,-2.5111,-2.4988,-2.4672,-2.3984,-2.3736,-2.3487,-2.3168,-2.3106,-2.3106,-2.3106,-2.3106,-2.3106,-2.3106,-2.3106,-2.3238,-2.3549,-2.3611,-2.3611,-2.3611,-2.3791,-2.4242,-2.4973,-2.5952,-2.6711,-2.72,-2.7724,-2.7915,-2.7708,-2.8461,-2.8741,-2.8601,-2.893,-2.9304,-2.6771,-2.6529,-2.64,-2.6251,-2.5684,-2.5003,-2.4353,-2.3622,-2.3006,-2.281,-2.2677,0.0,0.0,0.0,-2.3998,-2.4059,0.0,-2.4696,-2.4778,-2.4931,-2.5367,-2.6192,-2.6724,-2.7081,-2.7261,-2.7655,-2.8138,-2.8666,-2.8935,-2.9358,-2.998,-3.0013,-3.0133,-3.0402,-3.0074,-3.0045,-3.0305,-2.9953,-2.9755,-2.9606,-2.9237,-2.8983,-2.8674,-2.8408,-2.8291,-2.8291,-2.8237,-2.8067,-2.7906,-2.7799,-2.7476,-2.6989,-2.6989,-2.7012,-2.7013,-2.6662,-2.6563,-2.6592,-2.6568,-2.6546,-2.6551,-2.6944,-2.7073,-2.7073,-2.7073,-2.7073,-2.7073,-2.7073,-2.7073,-2.7073,-2.7073,-2.7073,-2.7012,-2.67,-2.6319,-2.6022,-2.5672,-2.5365,-2.5111,-2.5111,-2.5111,-2.4865,-2.4232,-2.3922,-2.3604,-2.3168,-2.3106,-2.3106,-2.3106,-2.3106,-2.3106,-2.3106,-2.3106,-2.3293,-2.3673,-2.3736,-2.3798,-2.386,-2.4177,-2.4772,-2.5646,-2.6429,-2.6974,-2.7193,-2.7998,-2.8263,-2.7849,-2.8593,-2.893,-2.8939,-2.9296,-2.9624,-2.7145,-2.6996,-2.6836,-2.6338,-2.6201,-2.5924,-2.4981,-2.4344,-2.3777,-2.3107,-2.2979,-2.2991,-2.3003,-2.3436,-2.392,0.0,-2.4314,0.0,0.0,-2.5188,-2.5555,-2.5693,-2.6662,-2.7269,-2.7292,-2.7566,-2.7933,-2.8375,-2.8181,-2.8506,-2.9456,-2.951,-2.9729,-3.022,-2.9681,-2.9657,-3.0085,-2.9587,-2.9446,-2.9606,-2.9237,-2.8983,-2.8674,-2.8408,-2.8291,-2.8291,-2.8014,-2.7906,-2.7853,-2.753,-2.726,-2.6989,-2.6989,-2.6845,-2.6609,-2.6263,-2.5934,-2.5721,-2.5839,-2.6114,-2.6551,-2.6944,-2.7073,-2.7073,-2.7073,-2.7073,-2.7073,-2.7073,-2.7073,-2.7073,-2.7073,-2.7073,-2.7012,-2.67,-2.6319,-2.6022,-2.5672,-2.5365,-2.5111,-2.5111,-2.5111,-2.4865,-2.4232,-2.4108,-2.386,-2.3168,-2.3106,-2.3106,-2.3106,-2.3106,-2.3106,-2.3106,-2.3106,-2.3355,-2.4046,-2.4108,-2.4232,-2.4548,-2.4875,-2.5288,-2.571,-2.6631,-2.7179,-2.7193,-2.8271,-2.8601,-2.8263,-2.8988,-2.9307,-2.9316,-2.9701,-2.989,-2.757,-2.7323,-2.72,-2.6658,-2.6522,-2.6241,-2.5044,-2.467,-2.4226,-2.3224,-2.3011,-2.2903,-2.2522,-2.3216,-2.3833,0.0,0.0,-2.5002,0.0,-2.5467,-2.5638,-2.5402,-2.6153,-2.6726,-2.6816,-2.7225,-2.7587,-2.7911,-2.8153,-2.8479,-2.9011,-2.9044,-2.9274,-2.9718,-2.9391,-2.9336,-2.9647,-2.9572,-2.9496,-2.9384,-2.9201,-2.9026,-2.893,-2.8504,-2.8291,-2.8291,-2.8014,-2.7906,-2.7853,-2.7539,-2.726,-2.6989,-2.6989,-2.6836,-2.6591,-2.6473,-2.6245,-2.5997,-2.6158,-2.6313,-2.661,-2.7168,-2.7237,-2.7133,-2.7297,-2.7237,-2.7133,-2.7297,-2.7349,-2.7349,-2.7349,-2.7349,-2.7297,-2.7004,-2.651,-2.6075,-2.5961,-2.5472,-2.5111,-2.5111,-2.4919,-2.461,-2.417,-2.3922,-2.3611,-2.3168,-2.3106,-2.3106,-2.3106,-2.3106,-2.3106,-2.3106,-2.3106,-2.33,-2.3736,-2.3984,-2.4355,-2.4919,-2.5062,-2.5242,-2.5628,-2.6882,-2.7442,-2.7179,-2.8467,-2.8996,-2.8609,-2.9053,-2.9307,-2.9325,-2.9958,-3.0249,-2.8191,-2.78,-2.7556,-2.7103,-2.6968,-2.6686,-2.5616,-2.5229,-2.4784,-2.3746,-2.3388,-2.3192,-2.2811,-2.3348,-2.3866,0.0,0.0,0.0,0.0,-2.5505,-2.5538,-2.5322,-2.6012,-2.6525,-2.6545,-2.6918,-2.7287,-2.7532,-2.7944,-2.824,-2.8519,-2.8705,-2.8946,-2.9263,-2.899,-2.894,-2.9157,-2.9179,-2.9253,-2.9311,-2.9134,-2.9033,-2.9079,-2.8664,-2.8398,-2.8291,-2.7916,-2.7691,-2.7691,-2.7377,-2.7107,-2.689,-2.6935,-2.6836,-2.6591,-2.6591,-2.6309,-2.5997,-2.6149,-2.6218,-2.6413,-2.708,-2.7254,-2.7133,-2.7401,-2.7297,-2.7133,-2.7297,-2.7349,-2.7409,-2.7461,-2.7401,-2.7349,-2.7237,-2.6684,-2.6075,-2.6075,-2.5586,-2.5111,-2.5111,-2.4919,-2.461,-2.417,-2.3922,-2.3611,-2.3168,-2.3106,-2.3106,-2.3106,-2.3106,-2.3106,-2.3106,-2.3106,-2.3282,-2.3713,-2.4166,-2.4665,-2.5046,-2.5078,-2.525,-2.5573,-2.663,-2.7059,-2.6882,-2.8209,-2.8793,-2.8401,-2.8986,-2.9307,-2.9333,-3.0078,-3.0429]},{"header":{"parameterUnit":"m.s-1","parameterCategory":1,"la1":30.6,"la2":29.2853,"lo1":-89.7004,"lo2":-87.6739,"dy":0.0162,"dx":0.0183,"nx":112,"ny":82,"refTime":"2023-05-05T18:00:00:Z","depth":0,"parameterNumber":3,"parameterNumberName":"V-component_of_WINDS"},"data":[0.0,0.0,0.0,0.0,0.0,0.0,0.0,0.0,0.0,0.0,0.0,0.0,0.0,0.0,0.0,0.0,0.0,0.0,0.0,0.0,0.0,0.0,0.0,0.0,0.0,0.0,0.0,0.0,0.0,0.0,0.0,0.0,0.0,0.0,0.0,0.0,0.0,0.0,0.0,0.0,0.0,0.0,0.0,0.0,0.0,0.0,0.0,0.0,0.0,0.0,0.0,0.0,0.0,0.0,0.0,0.0,0.0,0.0,0.0,0.0,0.0,0.0,0.0,0.0,0.0,0.0,0.0,0.0,0.0,0.0,0.0,0.0,0.0,0.0,0.0,0.0,0.0,0.0,0.0,0.0,0.0,0.0,0.0,0.0,0.0,0.0,0.0,0.0,0.0,0.0,3.3546,3.4235,3.4312,3.4252,3.4164,3.4509,3.4718,3.4718,0.0,0.0,0.0,0.0,0.0,0.0,0.0,0.0,0.0,0.0,0.0,0.0,0.0,0.0,0.0,0.0,0.0,0.0,0.0,0.0,0.0,0.0,0.0,0.0,0.0,0.0,0.0,0.0,0.0,0.0,0.0,0.0,0.0,0.0,0.0,0.0,0.0,0.0,0.0,0.0,0.0,0.0,0.0,0.0,0.0,0.0,0.0,0.0,0.0,0.0,0.0,0.0,0.0,0.0,0.0,0.0,0.0,0.0,0.0,0.0,0.0,0.0,0.0,0.0,0.0,0.0,0.0,0.0,0.0,0.0,0.0,0.0,0.0,0.0,0.0,0.0,0.0,0.0,0.0,0.0,0.0,0.0,0.0,0.0,0.0,0.0,0.0,0.0,0.0,0.0,0.0,0.0,0.0,0.0,0.0,0.0,0.0,0.0,0.0,0.0,0.0,0.0,0.0,0.0,3.3919,3.4716,3.4778,3.4794,3.4765,3.5383,3.577,3.577,0.0,0.0,0.0,0.0,0.0,0.0,0.0,0.0,0.0,0.0,0.0,0.0,0.0,0.0,0.0,0.0,0.0,0.0,0.0,0.0,0.0,0.0,0.0,0.0,0.0,0.0,0.0,0.0,0.0,0.0,0.0,0.0,0.0,0.0,0.0,0.0,0.0,0.0,0.0,0.0,0.0,0.0,0.0,0.0,0.0,0.0,0.0,0.0,0.0,0.0,0.0,0.0,0.0,0.0,0.0,0.0,0.0,0.0,0.0,0.0,0.0,0.0,0.0,0.0,0.0,0.0,0.0,0.0,0.0,0.0,0.0,0.0,0.0,0.0,0.0,0.0,0.0,0.0,0.0,0.0,0.0,0.0,0.0,0.0,0.0,0.0,0.0,0.0,0.0,0.0,0.0,0.0,0.0,0.0,0.0,0.0,0.0,0.0,0.0,0.0,0.0,0.0,0.0,3.4813,3.5341,3.6056,3.6164,3.6105,3.6032,3.6477,3.6739,3.6665,3.6587,0.0,0.0,0.0,0.0,0.0,0.0,0.0,0.0,0.0,0.0,0.0,0.0,0.0,0.0,0.0,0.0,0.0,0.0,0.0,0.0,0.0,0.0,0.0,0.0,0.0,0.0,0.0,0.0,0.0,0.0,0.0,0.0,0.0,0.0,0.0,0.0,0.0,0.0,0.0,0.0,0.0,0.0,0.0,0.0,0.0,0.0,0.0,0.0,0.0,0.0,0.0,0.0,0.0,0.0,0.0,0.0,0.0,0.0,0.0,0.0,0.0,0.0,0.0,0.0,0.0,0.0,0.0,0.0,0.0,0.0,0.0,0.0,0.0,0.0,0.0,0.0,0.0,0.0,0.0,0.0,0.0,0.0,0.0,0.0,0.0,0.0,0.0,0.0,0.0,0.0,0.0,0.0,0.0,0.0,0.0,0.0,0.0,0.0,0.0,0.0,0.0,0.0,3.5938,3.6632,3.7294,3.7373,3.7329,3.7211,3.7419,3.7476,3.7373,3.7714,0.0,0.0,0.0,0.0,0.0,0.0,0.0,0.0,0.0,0.0,0.0,0.0,0.0,0.0,0.0,0.0,0.0,0.0,0.0,0.0,0.0,0.0,0.0,0.0,0.0,0.0,0.0,0.0,0.0,0.0,0.0,0.0,0.0,0.0,0.0,0.0,0.0,0.0,0.0,0.0,0.0,0.0,0.0,0.0,0.0,0.0,0.0,0.0,0.0,0.0,0.0,0.0,0.0,0.0,0.0,0.0,0.0,0.0,0.0,0.0,0.0,0.0,0.0,0.0,0.0,0.0,0.0,0.0,0.0,0.0,0.0,0.0,0.0,0.0,0.0,0.0,0.0,0.0,0.0,0.0,0.0,0.0,0.0,0.0,0.0,0.0,0.0,0.0,0.0,0.0,0.0,0.0,0.0,0.0,0.0,0.0,0.0,0.0,0.0,0.0,0.0,0.0,3.639,3.7121,3.7767,3.7831,3.7847,3.7847,3.7831,3.7876,3.7831,3.786,0.0,0.0,0.0,0.0,0.0,0.0,0.0,0.0,0.0,0.0,0.0,0.0,0.0,0.0,0.0,0.0,0.0,0.0,0.0,0.0,0.0,0.0,0.0,0.0,0.0,0.0,0.0,0.0,0.0,0.0,0.0,0.0,0.0,0.0,0.0,0.0,0.0,0.0,0.0,0.0,0.0,0.0,0.0,0.0,0.0,0.0,0.0,0.0,0.0,0.0,0.0,0.0,0.0,0.0,0.0,0.0,0.0,0.0,0.0,0.0,0.0,0.0,0.0,0.0,0.0,0.0,0.0,0.0,0.0,0.0,0.0,0.0,0.0,0.0,0.0,0.0,0.0,0.0,0.0,0.0,0.0,0.0,0.0,0.0,0.0,0.0,0.0,0.0,0.0,0.0,0.0,0.0,0.0,0.0,0.0,0.0,0.0,0.0,0.0,0.0,0.0,0.0,3.6501,3.715,3.7825,3.7905,3.7905,3.7905,3.802,3.802,3.7905,0.0,0.0,0.0,0.0,0.0,0.0,0.0,0.0,0.0,0.0,0.0,0.0,0.0,0.0,0.0,0.0,0.0,0.0,0.0,0.0,0.0,0.0,0.0,0.0,0.0,0.0,0.0,0.0,0.0,0.0,0.0,0.0,0.0,0.0,0.0,0.0,0.0,0.0,0.0,0.0,0.0,0.0,0.0,0.0,0.0,0.0,0.0,0.0,0.0,0.0,0.0,0.0,0.0,0.0,0.0,0.0,0.0,0.0,0.0,0.0,0.0,0.0,0.0,0.0,0.0,0.0,0.0,0.0,0.0,0.0,0.0,0.0,0.0,0.0,0.0,0.0,0.0,0.0,0.0,0.0,0.0,0.0,0.0,0.0,0.0,0.0,0.0,0.0,0.0,0.0,0.0,0.0,0.0,0.0,0.0,0.0,0.0,0.0,0.0,0.0,0.0,0.0,3.647,3.6933,3.7459,3.8124,3.8148,3.8135,3.8135,3.8193,3.8193,3.8078,0.0,0.0,0.0,0.0,0.0,0.0,0.0,0.0,0.0,0.0,0.0,0.0,0.0,0.0,0.0,0.0,0.0,0.0,0.0,0.0,0.0,0.0,0.0,0.0,0.0,0.0,0.0,0.0,0.0,0.0,0.0,0.0,0.0,0.0,0.0,0.0,0.0,0.0,0.0,0.0,0.0,0.0,0.0,0.0,0.0,0.0,0.0,0.0,0.0,0.0,0.0,0.0,0.0,0.0,0.0,0.0,0.0,0.0,0.0,0.0,0.0,0.0,0.0,0.0,0.0,0.0,0.0,0.0,0.0,0.0,0.0,0.0,0.0,0.0,0.0,0.0,0.0,0.0,0.0,0.0,0.0,0.0,0.0,0.0,0.0,0.0,0.0,0.0,0.0,0.0,0.0,0.0,0.0,0.0,0.0,0.0,0.0,0.0,0.0,0.0,0.0,0.0,3.7718,3.7816,3.8078,3.8723,3.8683,3.8588,3.8588,3.8492,3.8408,0.0,0.0,0.0,0.0,0.0,0.0,0.0,0.0,0.0,0.0,0.0,0.0,0.0,0.0,0.0,0.0,0.0,0.0,0.0,0.0,0.0,0.0,0.0,0.0,0.0,0.0,0.0,0.0,0.0,0.0,0.0,0.0,0.0,0.0,0.0,0.0,0.0,0.0,0.0,0.0,0.0,0.0,0.0,0.0,0.0,0.0,0.0,0.0,0.0,0.0,0.0,0.0,0.0,0.0,0.0,0.0,0.0,0.0,0.0,0.0,0.0,0.0,0.0,0.0,0.0,0.0,0.0,0.0,0.0,0.0,0.0,0.0,0.0,0.0,0.0,0.0,0.0,0.0,0.0,0.0,0.0,0.0,0.0,0.0,0.0,0.0,0.0,0.0,0.0,0.0,0.0,0.0,0.0,0.0,0.0,0.0,0.0,0.0,0.0,0.0,0.0,0.0,0.0,3.8041,3.8397,3.8684,3.8788,3.875,3.8711,3.8616,3.9032,3.9325,3.9337,0.0,0.0,0.0,0.0,0.0,0.0,0.0,0.0,0.0,0.0,0.0,0.0,0.0,0.0,0.0,0.0,0.0,0.0,0.0,0.0,0.0,0.0,0.0,0.0,0.0,0.0,0.0,0.0,0.0,0.0,0.0,0.0,0.0,0.0,0.0,0.0,0.0,0.0,0.0,0.0,0.0,0.0,0.0,0.0,0.0,0.0,0.0,0.0,0.0,0.0,0.0,0.0,0.0,0.0,0.0,0.0,0.0,0.0,0.0,0.0,0.0,0.0,0.0,0.0,0.0,0.0,0.0,0.0,0.0,0.0,0.0,0.0,0.0,0.0,0.0,0.0,0.0,0.0,0.0,0.0,0.0,0.0,0.0,0.0,0.0,0.0,0.0,0.0,0.0,0.0,0.0,0.0,0.0,0.0,0.0,0.0,0.0,0.0,0.0,0.0,0.0,0.0,3.9192,3.9528,3.9785,4.0012,3.9952,3.9829,3.9762,4.0058,4.023,4.0214,0.0,0.0,0.0,0.0,0.0,0.0,0.0,0.0,0.0,0.0,0.0,0.0,0.0,0.0,0.0,0.0,0.0,0.0,0.0,0.0,0.0,0.0,0.0,0.0,0.0,0.0,0.0,0.0,0.0,0.0,0.0,0.0,0.0,0.0,0.0,0.0,0.0,0.0,0.0,0.0,0.0,0.0,0.0,0.0,0.0,0.0,0.0,0.0,0.0,0.0,0.0,0.0,0.0,0.0,0.0,0.0,0.0,0.0,0.0,0.0,0.0,0.0,0.0,0.0,0.0,0.0,0.0,0.0,0.0,0.0,0.0,0.0,0.0,0.0,0.0,0.0,0.0,0.0,0.0,0.0,0.0,0.0,0.0,0.0,0.0,0.0,0.0,0.0,0.0,0.0,0.0,0.0,0.0,0.0,0.0,0.0,0.0,0.0,0.0,0.0,0.0,0.0,4.0852,4.0953,4.1204,4.1831,4.1683,4.1531,4.1503,4.1296,4.1169,4.114,0.0,0.0,0.0,0.0,0.0,0.0,0.0,0.0,0.0,0.0,0.0,0.0,0.0,0.0,0.0,0.0,0.0,0.0,0.0,0.0,0.0,0.0,0.0,0.0,0.0,0.0,0.0,0.0,0.0,0.0,0.0,0.0,0.0,0.0,0.0,0.0,0.0,0.0,0.0,0.0,0.0,0.0,0.0,0.0,0.0,0.0,0.0,0.0,0.0,0.0,0.0,0.0,0.0,0.0,0.0,0.0,0.0,0.0,0.0,0.0,3.0756,3.0405,0.0,0.0,0.0,0.0,0.0,0.0,0.0,0.0,0.0,0.0,0.0,0.0,0.0,0.0,0.0,0.0,0.0,0.0,0.0,0.0,0.0,0.0,0.0,0.0,0.0,0.0,0.0,0.0,0.0,0.0,0.0,0.0,0.0,0.0,0.0,0.0,0.0,0.0,0.0,0.0,4.1912,4.1987,4.1957,4.1909,4.1843,4.1777,4.1655,4.2131,4.236,4.2196,4.2183,0.0,0.0,0.0,0.0,0.0,0.0,0.0,0.0,0.0,0.0,0.0,0.0,0.0,0.0,0.0,0.0,0.0,0.0,0.0,0.0,0.0,0.0,0.0,0.0,0.0,0.0,0.0,0.0,0.0,0.0,0.0,0.0,0.0,0.0,0.0,0.0,0.0,0.0,0.0,0.0,0.0,0.0,0.0,0.0,0.0,0.0,0.0,0.0,0.0,0.0,0.0,0.0,0.0,0.0,0.0,0.0,0.0,0.0,0.0,3.2642,3.1753,0.0,0.0,0.0,0.0,0.0,0.0,0.0,0.0,0.0,0.0,0.0,0.0,0.0,0.0,0.0,0.0,0.0,0.0,0.0,0.0,0.0,0.0,0.0,0.0,0.0,0.0,0.0,0.0,0.0,0.0,0.0,0.0,0.0,0.0,0.0,0.0,0.0,0.0,0.0,0.0,4.3,4.3059,4.3141,4.3362,4.3314,4.3248,4.3065,4.335,4.3454,4.3265,4.3281,0.0,0.0,0.0,0.0,0.0,0.0,0.0,0.0,0.0,0.0,0.0,0.0,0.0,0.0,0.0,0.0,0.0,0.0,0.0,0.0,0.0,0.0,0.0,0.0,0.0,0.0,0.0,0.0,0.0,0.0,0.0,0.0,0.0,0.0,0.0,0.0,0.0,0.0,0.0,0.0,0.0,0.0,0.0,0.0,0.0,0.0,0.0,0.0,0.0,0.0,0.0,0.0,0.0,3.7017,3.7119,3.7352,3.7219,3.717,3.7037,3.4444,3.3207,3.3064,3.304,0.0,0.0,0.0,0.0,0.0,0.0,0.0,0.0,0.0,0.0,0.0,0.0,0.0,0.0,0.0,0.0,0.0,0.0,0.0,0.0,0.0,0.0,3.9914,4.0788,4.1562,4.1722,4.0429,0.0,0.0,0.0,0.0,0.0,0.0,0.0,0.0,0.0,0.0,0.0,4.4281,4.4487,4.4785,4.533,4.5305,4.5167,4.5021,4.488,4.4754,4.4569,4.4569,4.4569,0.0,0.0,0.0,0.0,0.0,0.0,0.0,0.0,0.0,0.0,0.0,0.0,0.0,0.0,0.0,0.0,0.0,0.0,0.0,0.0,0.0,0.0,0.0,0.0,0.0,0.0,0.0,0.0,0.0,0.0,0.0,0.0,3.0022,3.0022,0.0,0.0,0.0,0.0,0.0,0.0,0.0,0.0,0.0,0.0,0.0,0.0,0.0,3.6692,3.6692,3.7019,3.7536,3.816,3.7669,3.7769,3.8363,3.7744,3.746,3.7476,3.7686,0.0,3.564,3.5024,0.0,0.0,0.0,0.0,0.0,0.0,0.0,0.0,0.0,0.0,0.0,0.0,0.0,0.0,0.0,0.0,0.0,0.0,0.0,0.0,0.0,0.0,4.1864,4.2805,4.3113,4.3187,4.3143,4.3068,4.2861,4.228,4.2182,4.2165,0.0,0.0,0.0,0.0,0.0,0.0,4.6113,4.6776,4.7131,4.7027,4.6971,4.6959,4.6942,4.6914,4.6771,4.6469,4.6439,4.6439,4.6439,4.6469,0.0,0.0,0.0,0.0,0.0,0.0,0.0,0.0,0.0,0.0,0.0,0.0,0.0,0.0,0.0,0.0,0.0,0.0,0.0,0.0,0.0,0.0,0.0,0.0,0.0,0.0,0.0,0.0,0.0,3.0073,3.0733,3.1157,3.203,3.2634,0.0,0.0,0.0,0.0,0.0,0.0,0.0,0.0,0.0,3.7018,3.7585,3.806,3.846,3.8996,3.972,4.0581,4.0314,4.0467,4.0968,4.0646,4.0468,4.0485,4.0832,4.057,3.98,3.8444,3.7583,3.7062,0.0,0.0,0.0,0.0,3.6944,3.7364,3.7751,3.7921,3.8023,3.8479,0.0,0.0,0.0,0.0,0.0,0.0,0.0,4.2102,4.2781,4.3578,4.4433,4.5331,4.5955,4.637,4.6527,4.6569,4.5905,4.3769,4.3366,4.3372,4.3441,4.4185,0.0,0.0,0.0,4.7404,4.7411,4.7704,4.7857,4.7655,4.7655,4.7571,4.7437,4.7409,4.7324,4.7106,4.7077,4.7077,4.7077,4.7135,4.7267,0.0,0.0,0.0,0.0,0.0,0.0,0.0,0.0,0.0,0.0,0.0,0.0,0.0,0.0,0.0,0.0,0.0,0.0,0.0,0.0,0.0,0.0,0.0,0.0,0.0,0.0,0.0,0.0,3.1115,3.1546,3.2197,3.3177,3.3884,0.0,0.0,0.0,0.0,0.0,0.0,3.7325,3.7775,3.8093,3.8195,3.9058,3.9746,4.0309,4.0889,4.1678,4.2644,4.2441,4.259,4.3065,4.2834,4.2748,4.2808,4.297,4.3065,4.2997,4.1214,4.0237,3.9873,3.9805,3.9585,3.9283,3.933,3.9502,3.9733,3.9842,3.9887,3.9893,4.0023,4.0095,4.0157,4.0157,0.0,0.0,0.0,0.0,4.4265,4.4998,4.5735,4.6572,4.746,4.8194,4.8735,4.8862,4.8979,4.8261,4.5576,4.5058,4.5064,4.5174,4.6153,0.0,4.6914,4.8086,4.8863,4.8557,4.866,4.8729,4.8556,4.8556,4.8463,4.8258,4.823,4.8174,4.8043,4.8043,4.8015,4.7957,4.806,4.8145,4.8191,0.0,0.0,0.0,0.0,0.0,0.0,0.0,0.0,0.0,0.0,0.0,0.0,0.0,0.0,0.0,0.0,0.0,0.0,0.0,0.0,0.0,0.0,0.0,0.0,0.0,0.0,0.0,0.0,0.0,3.3032,3.4496,0.0,0.0,0.0,0.0,3.7385,3.797,3.8361,3.8514,3.9852,4.0632,4.0615,4.147,4.1954,4.1987,4.2139,4.2695,4.362,4.2855,4.2968,4.3799,4.29,4.2619,4.2826,4.3411,4.3807,4.3906,4.2236,4.1585,4.1624,4.1064,4.1304,4.2018,4.2137,4.2671,4.3339,4.3339,4.3339,4.3363,4.3441,4.3612,4.3819,4.3819,4.3981,0.0,0.0,4.4595,4.5388,4.6205,4.698,4.7738,4.8682,4.8962,4.9004,4.9146,4.9195,4.8886,4.7824,4.7605,4.7623,4.7605,0.0,4.7995,4.8749,4.951,4.9922,4.9653,5.0232,5.0562,5.0293,5.0265,5.0265,5.0265,5.0237,5.0209,5.0067,5.0039,4.9982,4.9792,4.9792,4.9879,5.0067,5.0067,0.0,0.0,0.0,0.0,0.0,0.0,0.0,0.0,0.0,0.0,0.0,0.0,0.0,0.0,0.0,0.0,0.0,0.0,0.0,0.0,0.0,0.0,0.0,0.0,0.0,0.0,0.0,0.0,3.5405,3.6148,0.0,3.6821,3.7578,3.8087,3.8204,3.93,3.9995,4.0152,4.1083,4.1675,4.1765,4.2061,4.2513,4.3129,4.3182,4.369,4.4666,4.4375,4.4729,4.5625,4.5306,4.5444,4.5944,4.5765,4.5759,4.5813,4.5295,4.4759,4.4249,4.4158,4.3989,4.376,4.3339,4.3393,4.3668,4.3668,4.3715,4.381,4.3927,4.402,4.4112,4.4203,4.4688,4.5181,4.5027,4.5988,4.7204,4.7851,4.8629,4.945,5.0391,5.0612,5.0662,5.077,5.123,5.1472,5.1162,4.9837,4.8763,4.8763,4.9197,4.9617,4.9803,5.0957,5.1695,5.1529,5.2075,5.2396,5.2236,5.2077,5.1974,5.1905,5.1877,5.1877,5.1801,5.1819,5.1564,5.1009,5.0991,5.0777,5.0331,5.0509,5.0602,0.0,0.0,0.0,0.0,0.0,0.0,0.0,0.0,0.0,0.0,0.0,0.0,0.0,0.0,0.0,0.0,0.0,0.0,0.0,0.0,0.0,0.0,0.0,0.0,0.0,3.4945,3.5569,3.6818,3.7275,3.756,3.7786,3.8782,3.9445,3.9471,4.0622,4.1338,4.1427,4.2153,4.2567,4.2675,4.3183,4.3745,4.4353,4.4663,4.5186,4.5894,4.5922,4.6323,4.6965,4.6921,4.7196,4.77,4.7227,4.7084,4.7192,4.7612,4.7439,4.6908,4.676,4.6236,4.5486,4.5047,4.4729,4.4557,4.4605,4.4876,4.5223,4.5317,4.5564,4.5841,4.5934,4.6399,4.6895,4.6825,4.7749,4.8868,4.9323,5.0001,5.0728,5.1406,5.1607,5.1658,5.1758,5.2408,5.2988,5.3039,5.1933,5.0972,5.0972,5.1468,5.1743,5.1358,5.2414,5.3085,5.2687,5.3175,5.3472,5.3341,5.3212,5.3109,5.2995,5.2995,5.2995,5.2995,5.2995,5.2739,5.2239,5.2193,5.1826,5.1022,5.1015,5.1061,5.1114,0.0,0.0,0.0,0.0,0.0,0.0,0.0,0.0,0.0,0.0,0.0,0.0,0.0,0.0,0.0,0.0,0.0,0.0,0.0,0.0,0.0,0.0,0.0,3.5652,3.6275,3.6838,3.7135,3.7816,3.8419,3.8841,4.0162,4.1073,4.1212,4.1914,4.2337,4.2354,4.3081,4.3477,4.3494,4.4959,4.5737,4.5737,4.6605,4.7089,4.7216,4.7392,4.7595,4.7724,4.7584,4.7629,4.7758,4.7601,4.7707,4.8016,4.8916,4.9393,4.9423,4.8644,4.7893,4.7272,4.7382,4.6958,4.6291,4.642,4.7077,4.7847,4.7847,4.8458,4.9195,4.9195,4.9256,4.9293,4.9293,4.9791,5.0346,5.0463,5.1002,5.1548,5.1701,5.1844,5.1961,5.1979,5.2605,5.3229,5.3336,5.3925,5.4387,5.4307,5.4417,5.4223,5.345,5.3882,0.0,5.3072,5.3512,5.3815,5.3698,5.367,5.367,5.367,5.367,5.367,5.367,5.367,5.3598,5.3442,5.3442,5.3054,5.2243,5.1784,5.1599,5.1715,0.0,0.0,0.0,0.0,0.0,0.0,0.0,0.0,0.0,0.0,0.0,0.0,0.0,0.0,0.0,0.0,0.0,0.0,0.0,0.0,0.0,3.6075,3.6636,3.6576,3.7263,3.8037,3.8766,3.9181,3.9697,4.0321,4.0847,4.1398,4.1948,4.2675,4.3352,4.3955,4.4671,4.5314,4.5855,4.6377,4.6668,4.6783,4.7176,4.7437,4.7561,4.7634,4.7937,4.8499,4.8471,4.8781,4.9338,4.8808,4.8706,4.8943,4.9306,4.951,4.9635,4.9398,4.9188,4.8969,4.839,4.8158,4.8101,4.8126,4.8367,4.8686,4.8784,4.8993,4.9201,4.9256,4.9287,4.9293,4.9293,4.9864,5.0446,5.0488,5.1076,5.1851,5.253,5.2749,5.296,5.3627,5.4389,5.4909,5.496,5.5659,5.5831,5.4538,5.4417,5.4353,5.3872,5.4542,5.4971,5.4625,5.5124,5.5549,5.5632,5.554,5.5484,5.5484,5.5484,5.5411,5.5281,5.5281,5.5005,5.4457,5.4504,5.4011,5.2868,5.273,5.2487,0.0,0.0,0.0,0.0,0.0,0.0,0.0,0.0,0.0,0.0,0.0,0.0,0.0,0.0,0.0,0.0,0.0,0.0,0.0,0.0,0.0,0.0,3.741,3.8013,3.7987,3.843,3.9066,3.9947,4.0225,4.0667,4.1471,4.1895,4.2303,4.2726,4.3775,4.457,4.5026,4.5754,4.6363,4.6786,4.7179,4.7449,4.7561,4.8077,4.8409,4.8535,4.8609,4.9062,4.974,4.943,4.9735,5.0424,4.9735,4.953,4.9754,4.9836,5.0,5.0215,0.0,0.0,0.0,0.0,4.8615,4.8786,4.8819,4.9156,4.9582,4.9706,4.9987,5.0236,5.0292,5.0316,5.0316,5.0316,5.0637,5.0994,5.0994,5.1601,5.2347,5.2964,5.338,5.3832,5.446,5.517,5.5692,5.5743,5.6443,0.0,5.5608,5.5548,5.5447,5.4909,5.5538,5.6041,5.5954,5.6519,5.7117,5.754,5.7189,5.6937,5.6937,5.6634,0.0,0.0,0.0,5.6069,5.565,5.5446,0.0,0.0,0.0,5.3749,5.344,5.3575,0.0,0.0,5.2431,5.2304,0.0,0.0,0.0,0.0,0.0,0.0,0.0,0.0,0.0,0.0,0.0,0.0,0.0,0.0,0.0,0.0,3.8585,3.9385,3.9591,3.9701,4.0037,4.0849,4.1059,4.1488,4.2354,4.3031,4.346,4.3646,4.4942,4.5771,4.594,4.6566,0.0,0.0,0.0,4.8111,4.8256,4.9202,4.9727,4.9875,5.0113,5.0597,5.1218,5.0476,5.0493,5.108,5.0321,5.0149,5.0415,5.0415,5.0582,5.0891,5.0978,5.0627,4.9995,4.9293,4.9125,4.9254,4.9389,0.0,0.0,5.0855,5.1387,5.1958,5.1958,5.1958,5.1958,5.1958,5.1958,5.1958,5.1958,5.2519,5.3105,5.3329,5.3993,5.4633,5.4909,5.5494,5.5995,5.6095,5.6642,5.7054,5.7054,5.7112,5.6953,5.6204,5.661,5.6984,5.6977,5.7575,5.8295,5.8997,5.8529,0.0,5.8026,5.736,5.691,5.6812,5.6794,5.6821,5.6847,5.6266,5.5934,5.5869,5.5408,5.5151,5.506,5.5194,5.5318,5.5391,5.4547,5.4542,0.0,0.0,0.0,0.0,0.0,0.0,0.0,0.0,0.0,0.0,0.0,0.0,0.0,0.0,0.0,3.8128,3.8918,3.9648,4.0138,4.0818,4.1388,4.1659,4.1913,4.2344,4.3115,4.3308,4.3899,4.5179,4.5534,4.6227,4.7398,4.7631,4.797,4.8562,4.8836,4.9056,4.9236,5.0155,5.0682,5.0831,5.1464,0.0,5.1946,5.1205,5.0976,5.108,5.0321,5.0149,5.0415,5.0415,5.0582,5.0943,5.1558,5.2084,5.2516,5.233,5.2388,5.2498,5.2643,5.2883,5.3158,5.3271,5.3413,5.3555,5.3555,5.3555,0.0,5.3555,5.3555,5.3555,5.3555,5.3784,5.42,5.492,5.5379,5.5819,5.6577,5.6837,5.6946,5.6971,5.7173,5.7313,5.7313,5.7239,5.7058,5.6683,5.6843,5.6977,5.6847,5.7522,5.8106,5.8375,5.8834,5.8889,5.8239,5.8023,5.761,5.683,5.6794,5.6899,5.7112,5.6993,5.6738,5.6303,5.6304,5.5971,5.5309,5.557,5.6029,5.6632,5.5609,5.5208,0.0,0.0,0.0,0.0,0.0,0.0,0.0,0.0,0.0,0.0,0.0,3.7242,3.7547,0.0,3.848,3.9536,4.0127,4.0707,4.1438,4.2344,4.2762,4.2395,4.2578,4.3057,4.3799,4.4277,4.4874,4.5652,4.6397,4.7111,4.7855,4.8257,4.8629,4.8984,4.9528,4.9899,5.0065,5.0986,5.1533,5.1636,5.1998,5.2394,5.2787,5.2011,5.1636,5.1602,5.0873,5.0495,5.0415,5.0582,5.0965,5.1487,5.1874,5.226,5.2646,5.3032,5.3285,5.3425,5.3545,5.3681,5.3816,5.3975,5.4001,5.4001,5.4001,5.4001,5.4001,5.4001,5.4001,5.4001,5.4001,5.4436,5.4978,5.5492,5.6034,5.6584,5.7091,5.7188,5.7213,5.7307,5.7338,5.7412,5.7504,5.7437,5.7313,5.7112,5.7105,5.7224,5.7544,5.7993,5.8487,5.8963,5.9051,5.8939,5.854,5.8141,5.7699,5.7224,5.7188,5.7264,5.7388,5.7461,5.74,5.7188,5.7276,5.7143,5.6785,5.6871,5.714,5.7589,5.6987,5.674,0.0,0.0,0.0,0.0,0.0,0.0,0.0,3.6976,3.7575,3.7672,3.7838,3.8149,3.8813,3.9001,3.9478,4.0721,4.1327,4.1879,4.2563,4.3468,4.386,4.3294,4.3484,4.3917,4.4461,4.5363,4.5945,4.6051,4.7212,4.7939,4.8122,4.868,4.9001,4.9001,4.9853,5.043,5.0611,5.1658,5.2276,5.2412,5.2567,5.2994,5.3598,5.2804,5.2356,5.2136,5.1329,5.076,5.0443,5.0764,5.1242,5.1803,5.1934,5.2119,5.233,5.312,5.3602,5.3866,5.3987,5.4151,5.4287,5.4421,5.4465,5.4465,5.4465,5.4465,5.4465,5.4465,5.4465,5.4474,5.45,5.5088,5.5711,5.5823,5.6482,5.7079,5.7181,5.7213,5.7264,5.7363,5.7437,5.751,5.7625,5.7649,5.7601,5.748,5.7356,5.7499,5.8152,5.8489,5.8885,5.9539,5.9258,5.8987,5.8823,5.8057,5.7601,5.7601,5.7601,5.7625,5.7649,5.7768,5.7904,5.8042,5.8088,5.8207,5.8481,5.8373,5.8395,5.8481,5.835,5.8276,3.458,3.5252,3.5913,3.5997,3.6677,3.735,0.0,3.7605,3.7672,3.7696,3.8316,3.8813,3.8665,3.9781,4.0695,4.0648,4.1733,4.2546,4.2531,4.3327,4.4127,4.4693,4.5144,4.538,4.5303,4.614,4.6879,4.7339,4.7727,4.8176,4.8849,4.8968,4.9001,4.9001,4.9743,5.0272,5.0611,5.2064,5.2958,5.327,5.3942,5.4305,5.4356,5.3615,5.2891,5.2149,5.0991,5.0456,5.0443,5.0764,5.0943,5.1084,5.1751,5.2435,5.3166,5.3892,5.4699,5.5442,5.5614,5.5755,5.594,5.6078,5.6133,5.6133,5.6133,5.6133,5.6133,5.6133,5.6133,5.616,5.6277,5.6465,5.6695,5.6807,5.7007,5.7163,5.7206,5.7289,5.7363,5.7406,5.7601,5.7768,5.7768,5.7768,5.7721,5.7601,5.7559,5.7589,5.768,5.8342,5.8816,5.8907,5.9472,5.9564,5.8877,5.8057,5.7601,5.7601,5.7601,5.7649,5.7768,5.7904,5.8042,5.8174,5.8338,5.8773,5.9423,5.9494,5.9494,5.9423,5.9442,5.8969,3.5509,3.5913,3.6319,3.6826,3.7617,3.827,3.8319,3.873,3.9083,3.9083,3.9741,4.0223,4.0034,4.0829,4.1586,4.1794,4.2247,4.2709,4.3098,4.3652,4.4144,4.4445,4.5202,4.5797,4.601,4.69,4.7551,4.7747,4.8247,4.868,4.8984,4.9001,4.9001,4.9001,5.0246,5.1046,5.1295,5.2863,5.3776,5.4046,5.4356,5.4512,5.4494,5.4184,5.3373,5.2166,5.1385,5.0787,5.0443,5.0764,5.0891,5.0926,5.1242,5.1839,5.2646,5.3857,5.4892,5.5706,5.5861,5.6021,5.6225,5.6346,5.6401,5.6401,5.6401,5.6401,5.6401,5.6401,5.6455,5.6519,5.66,5.6742,5.6925,5.7003,5.7087,5.7213,5.7289,5.7363,5.7455,5.7601,5.7721,5.7815,5.7886,5.7927,5.7904,5.7839,5.7697,5.7601,5.7601,5.7965,5.8439,5.8963,5.9334,5.9591,5.9719,5.9408,5.9225,5.9225,5.9225,5.9249,5.932,5.9438,5.9357,5.9028,5.956,5.9812,5.9723,6.0145,6.0082,5.9593,5.9507,5.9016,3.6037,3.6519,3.7002,3.7693,3.8513,3.9151,3.9151,3.9648,4.0163,4.0367,4.0806,4.1184,4.1244,4.173,4.2245,4.2591,4.2742,4.2986,4.3515,4.3894,4.4181,4.4365,4.5118,4.5857,4.643,4.7342,4.7973,4.8146,4.8683,4.9001,4.9001,4.9001,4.9001,4.9001,5.0566,5.1522,5.1711,5.3325,5.4239,5.4416,5.4463,5.4512,5.4494,5.4305,5.3477,5.2166,5.1685,5.1065,5.0443,5.0764,5.0891,5.0891,5.0891,5.1347,5.2155,5.326,5.44,5.5424,5.5733,5.5993,5.6225,5.6318,5.6373,5.6401,5.6401,5.6401,5.6401,5.6401,5.6492,5.66,5.6653,5.6821,5.7003,5.7054,5.713,5.7232,5.7313,5.7388,5.751,5.7697,5.7792,5.7904,5.7973,5.7997,5.7997,5.7997,5.8017,5.7953,5.7734,5.7993,5.8545,5.9488,5.9585,5.9848,6.0459,6.0472,6.0449,6.0449,6.0425,6.0401,6.0401,6.052,6.0361,5.9899,6.0476,6.0673,6.0411,6.0628,6.0453,5.9862,5.9504,5.8906,3.6155,3.7352,3.8564,3.8723,3.9412,4.0062,4.0062,4.0096,4.0316,4.1018,4.1073,4.1177,4.1781,4.23,4.2641,4.2502,4.3085,4.3565,4.3598,4.3894,4.4365,4.5081,4.5316,4.5707,4.643,4.7342,4.8132,4.8717,4.8909,4.9001,4.9001,4.9001,4.9001,4.9001,5.0456,5.1314,5.1522,5.3164,5.4078,5.419,5.4416,5.4512,5.4494,5.377,5.2994,5.2166,5.1685,5.1065,5.0443,5.0764,5.0891,5.0891,5.0891,5.1347,5.2032,5.2039,5.3152,5.4748,5.546,5.5925,5.6197,5.6197,5.629,5.6401,5.6401,5.6401,5.6401,5.6401,5.6492,5.6626,5.6768,5.6899,5.7028,5.7163,5.7206,5.7188,5.7206,5.7412,5.7601,5.7601,5.7815,5.7997,5.7997,5.7997,5.7997,5.7997,5.8652,5.8872,5.8107,5.8671,5.953,6.0461,6.0554,6.0623,6.0775,6.066,6.0572,6.0572,6.0472,6.0401,6.0401,6.0538,6.0609,6.0572,6.0725,6.1159,6.1939,6.1024,6.059,6.0558,5.9622,5.8786,3.7361,3.807,3.863,3.9362,3.9673,3.9867,4.0045,4.0037,4.018,4.0912,4.1425,4.1873,4.2345,4.2924,4.323,4.3129,4.3177,4.3295,4.3432,4.3658,4.3905,4.4302,4.4453,4.4838,4.5559,4.6797,4.7698,4.8043,4.8562,4.8894,4.9001,4.9001,4.9001,4.9001,4.9965,5.0805,5.1473,5.2686,5.3599,5.419,5.4399,5.4512,5.4494,5.4253,5.3718,5.2959,5.2394,5.1761,5.1111,5.0829,5.0774,5.0891,5.0891,5.1049,5.1329,5.1839,5.2375,5.3081,5.4479,5.5341,5.5897,5.6141,5.6225,5.6263,5.6373,5.6401,5.6428,5.6492,5.6626,5.6768,5.6899,5.7028,5.7138,5.7206,5.7188,5.7213,5.7313,5.7388,5.7528,5.7697,5.781,5.7904,5.7973,5.7997,5.818,5.8731,5.9019,5.9318,5.9557,5.9832,6.0357,6.1308,6.14,6.1669,6.2322,6.2264,6.2174,6.2174,6.2071,6.1998,6.1998,6.212,6.1953,6.1419,6.2053,6.2248,6.1989,6.1671,6.1218,6.0595,5.9739,5.8837,3.7967,3.8559,3.8954,3.9603,3.9746,3.9755,3.9935,3.9884,4.0025,4.0781,4.1466,4.2122,4.2644,4.3173,4.3509,4.3479,4.3312,4.3363,4.3809,4.3979,4.4099,4.4234,4.4323,4.4608,4.5165,4.626,4.7127,4.755,4.8349,4.8801,4.8815,4.8877,4.8925,4.8925,4.968,5.0519,5.1378,5.2335,5.3278,5.419,5.4399,5.4512,5.4512,5.4512,5.4098,5.3373,5.3099,5.2403,5.1494,5.1214,5.1019,5.0891,5.0891,5.0891,5.0943,5.1435,5.1786,5.2242,5.3901,5.4878,5.5468,5.595,5.6179,5.629,5.6373,5.6401,5.6428,5.6492,5.668,5.6821,5.6899,5.7061,5.7188,5.7188,5.7188,5.7213,5.7307,5.7381,5.7437,5.7625,5.7745,5.7815,5.7927,5.8212,5.8804,5.9905,5.9813,5.9924,6.0731,6.0584,6.0785,6.1779,6.1877,6.2145,6.278,6.3047,6.3123,6.3075,6.2978,6.2929,6.2929,6.3026,6.2835,6.2319,6.2841,6.2865,6.2367,6.2006,6.1406,6.0525,5.9692,5.8837,3.803,3.8847,3.9484,3.9451,3.9523,3.9627,3.9636,3.9653,3.9845,4.0632,4.1249,4.1871,4.2649,4.3069,4.3399,4.3552,4.3432,4.3666,4.4558,4.4779,4.4886,4.4936,4.4936,4.5027,4.5236,4.5801,4.6505,4.7331,4.8255,4.8707,4.8515,4.8707,4.8818,4.8818,4.9615,5.0388,5.115,5.2107,5.3149,5.419,5.4399,5.4512,5.4512,5.4512,5.4115,5.3491,5.3697,5.2978,5.1633,5.1892,5.1593,5.0943,5.0908,5.0891,5.0891,5.0891,5.1347,5.2172,5.3664,5.4426,5.4839,5.5617,5.6063,5.6347,5.6383,5.6401,5.6401,5.6401,5.66,5.6794,5.6794,5.6984,5.7188,5.7188,5.7206,5.7206,5.7188,5.7307,5.7388,5.7406,5.7625,5.7834,5.7847,5.86,5.9716,6.13,6.0896,6.0694,6.1502,6.0896,6.079,6.1818,6.1976,6.2064,6.2197,6.2937,6.3354,6.3213,6.3213,6.3213,6.3213,6.3213,6.3189,6.3189,6.3051,6.3002,6.3002,6.2053,6.1208,6.0438,5.9625,5.8817,3.8136,3.8752,3.9246,3.8776,3.8633,3.8633,3.8823,3.8797,3.9113,4.0388,4.0777,4.1228,4.236,4.2462,4.2534,4.3136,4.299,4.3159,4.4189,4.435,4.4688,4.5481,4.5578,4.564,4.584,4.6493,4.7041,4.7364,4.8145,4.8547,4.8515,4.8707,4.8818,4.8818,4.9094,4.9627,5.0371,5.203,5.3278,5.419,5.4399,5.4512,5.4512,5.4512,5.4471,5.4406,5.3892,5.3557,5.3358,5.2291,5.1798,5.1663,5.1101,5.0891,5.0891,5.0891,5.1013,5.1312,5.226,5.3092,5.3904,5.4793,5.5226,5.5497,5.6195,5.6401,5.6428,5.6519,5.6662,5.6821,5.6925,5.7061,5.7188,5.7188,5.7282,5.7313,5.7213,5.7307,5.7431,5.7528,5.7768,5.8134,5.8757,5.9032,5.9533,6.0548,6.0529,6.0694,6.1502,6.0969,6.0682,6.1066,6.1735,6.2197,6.2328,6.2983,6.34,6.3354,6.326,6.3213,6.3213,6.3213,6.3165,6.3051,6.3026,6.2953,6.2855,6.2022,6.1484,6.1263,6.0474,5.9619,3.8129,3.8493,3.8735,3.8399,3.8015,3.7757,3.7894,3.8143,3.8557,3.9379,4.0043,4.0713,4.134,4.1753,4.2163,4.2589,4.2718,4.3179,4.4506,4.4685,4.5043,4.6021,4.6167,4.6278,4.6562,4.6945,4.7406,4.7864,4.8186,4.8356,4.8356,4.8468,4.858,4.8675,4.8832,4.9463,5.0574,5.213,5.3327,5.411,5.4385,5.4512,5.4512,5.4512,5.4623,5.4762,5.4387,5.4126,5.391,5.3212,5.2516,5.1885,5.153,5.1171,5.0891,5.0891,5.0891,5.0943,5.1365,5.1886,5.2613,5.3873,5.464,5.5204,5.5713,5.6115,5.6428,5.6492,5.66,5.6742,5.6873,5.7028,5.713,5.7206,5.7289,5.7363,5.7289,5.7388,5.7528,5.7673,5.7792,5.8184,5.9056,5.9184,5.9459,6.0291,6.0155,6.0257,6.1066,6.0819,6.0679,6.0862,6.1651,6.2219,6.2305,6.3029,6.347,6.34,6.3377,6.3354,6.3284,6.3284,6.3218,6.3099,6.3026,6.2978,6.288,6.2389,6.1942,6.1575,6.1135,6.042,3.7739,3.8037,3.8136,3.7911,3.7491,3.7069,3.6986,3.7466,3.7954,3.8179,3.9222,4.0122,4.0094,4.0988,4.1819,4.2002,4.2453,4.3289,4.4916,4.5194,4.5602,4.647,4.6667,4.6895,4.7265,4.7296,4.7641,4.8433,4.8292,4.8163,4.8195,4.8195,4.8292,4.8515,4.8738,4.9552,5.1048,5.2149,5.3109,5.3876,5.4269,5.4463,5.4512,5.4543,5.4637,5.4842,5.4961,5.4639,5.4042,5.4233,5.3438,5.2134,5.2151,5.1698,5.1049,5.1049,5.0978,5.0891,5.0891,5.1069,5.1529,5.2988,5.4109,5.4911,5.5152,5.5687,5.6258,5.6365,5.6492,5.6626,5.6768,5.6899,5.7028,5.7181,5.7332,5.7412,5.7388,5.7528,5.7673,5.7768,5.7815,5.8113,5.9056,5.9093,5.9373,6.0296,5.9839,5.9693,6.055,6.0568,6.0619,6.0952,6.1737,6.2219,6.2219,6.307,6.3557,6.3424,6.3534,6.3534,6.34,6.34,6.3331,6.3189,6.3051,6.3002,6.2978,6.2855,6.2456,6.1759,6.1734,6.1221,3.6356,3.7105,3.7732,3.6537,3.6679,3.6953,3.634,3.629,3.6738,3.7963,3.8411,3.8887,3.9913,4.0184,4.0598,4.1689,4.1831,4.2385,4.4006,4.4755,4.5457,4.6323,4.7062,4.7589,4.7851,4.7851,4.8046,4.8483,4.8212,4.8082,4.8195,4.8195,4.8373,4.8738,4.8894,4.9393,5.027,5.1272,5.2196,5.3092,5.3884,5.4335,5.4512,5.4686,5.4842,5.4961,5.5126,5.5177,5.5156,5.4548,5.4127,5.38,5.3225,5.2506,5.1821,5.1821,5.1417,5.0891,5.0891,5.1501,5.2325,5.26,5.2901,5.3389,5.4759,5.5312,5.5544,5.6204,5.6492,5.6626,5.6768,5.6899,5.7028,5.7181,5.7406,5.7534,5.7412,5.7601,5.7768,5.7792,5.7904,5.823,5.9056,5.8657,5.874,6.0346,5.9909,5.978,6.0792,6.0333,6.0208,6.0919,6.1823,6.2369,6.2369,6.3115,6.3579,6.3557,6.3579,6.3534,6.34,6.34,6.3265,6.3051,6.3026,6.2953,6.283,6.2805,6.275,6.2578,6.2478,6.1938,3.5793,3.6204,3.6664,3.6352,3.6288,3.6265,3.5952,3.6191,3.6695,3.7457,3.7895,3.8368,3.9243,3.9866,4.0398,4.1021,4.1646,4.2425,4.3669,4.4155,4.4838,4.6077,4.6601,4.7127,4.7787,4.7853,4.7968,4.8324,4.8115,4.8049,4.8195,4.8292,4.8452,4.8627,4.8877,4.9357,5.0084,5.0663,5.1585,5.2904,5.3372,5.394,5.4512,5.4717,5.4855,5.5022,5.5139,5.5259,5.5319,5.5057,5.4642,5.418,5.3881,5.3296,5.2611,5.2611,5.24,5.2112,5.2112,5.2478,5.297,5.3051,5.3496,5.4162,5.4964,5.5491,5.5901,5.6294,5.6455,5.6546,5.6742,5.6847,5.6951,5.7138,5.7388,5.7625,5.7697,5.7815,5.7886,5.7886,5.795,5.8125,5.851,5.8602,5.8919,5.9737,6.0024,6.0476,6.138,6.1311,6.1304,6.1693,6.2498,6.3026,6.3026,6.3397,6.3602,6.3602,6.3534,6.3442,6.3307,6.3218,6.3099,6.2904,6.2904,6.2855,6.278,6.273,6.273,6.2798,6.2578,6.2248,3.5324,3.5454,3.5667,3.6093,3.602,3.5841,3.5803,3.6371,3.6957,3.7241,3.7668,3.8163,3.8646,3.9499,4.0173,4.0448,4.1344,4.2363,4.3331,4.3622,4.4156,4.5439,4.5879,4.642,4.7292,4.7556,4.777,4.8065,4.8017,4.8066,4.8147,4.8324,4.8452,4.8515,4.8784,4.9258,4.9847,5.0159,5.1012,5.2377,5.2843,5.3447,5.4207,5.4617,5.4855,5.5022,5.5139,5.5229,5.5277,5.5431,5.5068,5.4419,5.4519,5.4103,5.3418,5.3418,5.3359,5.3201,5.3201,5.3419,5.371,5.382,5.4312,5.4937,5.5125,5.5651,5.6186,5.6347,5.6428,5.6492,5.6742,5.6821,5.6925,5.7232,5.7455,5.7673,5.795,5.7997,5.7997,5.7997,5.7997,5.8052,5.8235,5.8786,5.9336,5.9737,6.0531,6.1371,6.2235,6.2542,6.2673,6.2673,6.323,6.3602,6.3602,6.3602,6.3579,6.3557,6.3488,6.3377,6.3213,6.3099,6.2978,6.283,6.2805,6.2798,6.2755,6.2654,6.2629,6.2723,6.2467,6.2362,3.4423,3.4911,3.527,3.4667,3.5567,3.6465,3.5918,3.6371,3.7079,3.7781,3.7953,3.8136,3.8541,3.8702,3.915,4.0316,4.061,4.113,4.2505,4.3266,4.3751,4.3881,4.5211,4.6157,4.6256,4.701,4.7604,4.7737,4.7886,4.8001,4.8033,4.8147,4.8324,4.8483,4.8707,4.8897,4.9103,4.9794,5.0311,5.0655,5.2206,5.3032,5.3241,5.4326,5.4855,5.5022,5.5139,5.5306,5.5478,5.5478,5.5443,5.5373,5.5373,5.4911,5.4208,5.4208,5.377,5.3201,5.3201,5.3855,5.4662,5.4707,5.4329,5.41,5.4937,5.5259,5.5473,5.6186,5.6492,5.6626,5.6768,5.6899,5.7079,5.7461,5.7577,5.7673,5.795,5.7997,5.7997,5.7997,5.7997,5.8235,5.8946,5.9148,5.9774,6.1505,6.1828,6.2272,6.3311,6.3468,6.349,6.349,6.3565,6.3602,6.3602,6.3602,6.3557,6.3424,6.3534,6.3465,6.3213,6.3189,6.3117,6.2978,6.2855,6.273,6.2629,6.2603,6.2552,6.2441,6.2283,6.223,3.405,3.4336,3.463,3.4818,3.5314,3.5775,3.5609,3.5798,3.6102,3.6474,3.6806,3.7208,3.7845,3.844,3.9188,4.0202,4.055,4.1067,4.2141,4.2655,4.3073,4.3525,4.4221,4.5016,4.601,4.6435,4.6945,4.7638,4.777,4.7853,4.8001,4.8115,4.8292,4.8483,4.8707,4.8863,4.9001,4.9289,4.9772,5.0402,5.1168,5.1836,5.2485,5.357,5.4161,5.4378,5.4947,5.5306,5.5507,5.5507,5.5507,5.5507,5.5507,5.5314,5.5033,5.5033,5.484,5.4606,5.4693,5.5041,5.5486,5.5606,5.5532,5.5427,5.5802,5.5919,5.599,5.6311,5.6492,5.6626,5.6768,5.6977,5.7188,5.751,5.7601,5.7673,5.795,5.7997,5.8143,5.8639,5.8731,5.8988,5.9795,6.0375,6.0998,6.1671,6.2306,6.2844,6.3181,6.3377,6.347,6.347,6.3557,6.3602,6.3602,6.3602,6.3534,6.34,6.3447,6.3354,6.3099,6.3075,6.3002,6.288,6.2755,6.2654,6.2603,6.2449,6.237,6.2389,6.2195,6.2069,3.3848,3.3949,3.418,3.4681,3.5024,3.5237,3.5366,3.558,3.5752,3.5855,3.616,3.6651,3.7324,3.7992,3.8852,4.0082,4.0446,4.0928,4.1949,4.227,4.2574,4.3106,4.3509,4.414,4.5276,4.5814,4.6535,4.7555,4.7671,4.7787,4.8001,4.8082,4.826,4.8483,4.8627,4.8784,4.9001,4.9001,4.9334,5.0,5.0387,5.0963,5.1634,5.2697,5.3424,5.3865,5.452,5.5037,5.5431,5.5478,5.5507,5.5507,5.5507,5.5507,5.5507,5.5507,5.5507,5.5507,5.5666,5.5793,5.5947,5.6123,5.629,5.6401,5.6401,5.6401,5.6401,5.6455,5.6573,5.6742,5.6873,5.7079,5.7282,5.7553,5.7601,5.7673,5.795,5.7997,5.8162,5.8749,5.9038,5.9459,6.0272,6.1152,6.1807,6.1998,6.2658,6.3123,6.3075,6.3218,6.3354,6.3354,6.3442,6.3511,6.3579,6.3557,6.347,6.3354,6.3354,6.3242,6.3026,6.3002,6.2929,6.2805,6.2679,6.2552,6.2475,6.2291,6.223,6.2275,6.2087,6.195,3.3694,3.3797,3.3899,3.3915,3.4574,3.5237,3.5366,3.5971,3.6492,3.6492,3.6492,3.6668,3.7221,3.7185,3.7826,3.9951,4.0121,4.0494,4.1917,4.227,4.2413,4.2429,4.317,4.3719,4.3735,4.5163,4.6501,4.7421,4.7621,4.7787,4.8001,4.8001,4.8164,4.8483,4.8515,4.8673,4.9001,4.9001,4.9001,4.9018,5.0087,5.0611,5.0646,5.1722,5.274,5.3602,5.3801,5.4416,5.5229,5.5431,5.5507,5.5507,5.5507,5.5507,5.5507,5.5507,5.5507,5.5507,5.5666,5.5793,5.5947,5.6123,5.629,5.6401,5.6401,5.6401,5.6428,5.6573,5.6794,5.7028,5.7163,5.7206,5.7282,5.7553,5.7601,5.7673,5.795,5.7997,5.7997,5.7997,5.8657,5.9459,6.0272,6.1062,6.1918,6.2849,6.2984,6.3051,6.3189,6.3213,6.3213,6.3213,6.3213,6.3307,6.3579,6.347,6.3354,6.3213,6.3213,6.3141,6.3002,6.3002,6.2929,6.2805,6.2679,6.2475,6.2203,6.2203,6.2123,6.1978,6.1996,6.1858,3.3424,3.3607,3.3771,3.3873,3.4127,3.4339,3.4491,3.4695,3.4857,3.4857,3.5247,3.5762,3.6314,3.6708,3.7463,3.8962,3.948,3.9992,4.0944,4.1725,4.2206,4.2206,4.3073,4.3913,4.4399,4.534,4.6351,4.7421,4.7537,4.7704,4.7968,4.8001,4.8147,4.8483,4.8515,4.8673,4.9001,4.9001,4.9001,4.9001,4.9576,4.9859,4.9894,5.0965,5.1669,5.206,5.2674,5.3512,5.446,5.4507,5.4928,5.5507,5.5507,5.5507,5.5507,5.5507,5.5507,5.5537,5.5764,5.5861,5.5947,5.6245,5.6373,5.6401,5.6401,5.6401,5.6455,5.6662,5.6873,5.7028,5.7181,5.7188,5.7282,5.7553,5.7601,5.7673,5.795,5.7997,5.8162,5.8712,5.9019,5.9648,6.0988,6.1501,6.1991,6.2769,6.2953,6.2775,6.2175,6.2192,6.2019,6.149,6.2003,6.2627,6.327,6.3284,6.3213,6.3075,6.3165,6.3117,6.288,6.2953,6.2904,6.2679,6.2526,6.2389,6.2203,6.2114,6.2033,6.1996,6.1802,6.169,3.3203,3.3424,3.3642,3.3736,3.3822,3.3924,3.4,3.4075,3.4101,3.4101,3.4431,3.4969,3.5846,3.6229,3.6908,3.8462,3.8931,3.9471,4.0467,4.1231,4.1837,4.2238,4.2864,4.3686,4.469,4.5176,4.6008,4.7404,4.752,4.7654,4.7968,4.8001,4.8147,4.8483,4.8515,4.8673,4.9001,4.9001,4.9001,4.9001,4.9337,4.9518,4.9535,5.0312,5.0897,5.1262,5.1805,5.281,0.0,5.408,5.4653,5.5507,5.5507,5.5507,5.5507,5.5507,5.5537,5.5607,5.5804,5.5947,5.6049,5.6318,5.6401,5.6401,5.6401,5.6465,5.66,5.6742,5.6925,5.7087,5.7163,5.7188,5.7282,5.7553,5.7601,5.7673,5.795,5.7997,5.8143,5.8657,5.9197,5.9907,6.097,6.1673,6.2261,6.2732,6.2622,6.2261,6.1692,6.1667,6.1531,6.1016,6.1769,6.2498,6.299,6.3093,6.3075,6.3002,6.3026,6.2953,6.2823,6.283,6.2755,6.2526,6.2389,6.2257,6.2123,6.2033,6.1969,6.1913,6.169,6.1548,0.0,3.3282,3.3477,3.3477,3.3684,3.3889,3.3963,3.4081,0.0,3.4246,3.4161,3.4478,3.5819,3.5831,3.6333,3.8305,3.8551,3.8965,4.0261,4.0833,4.1483,4.2474,4.2651,4.3233,4.4658,4.4836,4.5602,4.7372,4.752,4.7654,4.7968,4.8001,4.8147,4.8483,4.8515,4.8673,4.9001,4.9001,4.9001,4.9001,4.9337,4.9518,4.9518,4.9848,5.0373,5.1028,5.1222,5.2282,5.3821,5.4034,5.4653,5.5507,5.5507,5.5507,5.5507,5.5507,5.5578,5.5706,5.5808,5.5932,5.6136,5.6185,5.6258,5.6311,5.6311,5.6537,5.6794,5.6794,5.7003,5.7206,5.7206,5.7206,5.7264,5.7553,5.7601,5.7697,5.795,5.7997,5.7997,5.7997,5.915,6.0182,6.0377,6.1587,6.2581,6.278,6.2126,6.1594,6.1594,6.1539,6.1502,6.1502,6.2236,6.2713,6.2713,6.2867,6.2978,6.2978,6.2855,6.278,6.2755,6.2654,6.2526,6.2389,6.2257,6.2141,6.1996,6.1996,6.1913,6.1774,6.1633,6.1473,3.2978,0.0,3.3361,3.3361,3.3555,3.3915,0.0,3.4849,3.5088,3.5671,3.5636,3.5744,3.6545,3.651,3.6689,3.7632,3.819,3.8648,3.9102,4.0382,4.1608,4.2474,4.3088,4.38,4.4706,4.5257,4.6105,4.7404,4.752,4.7654,4.7968,4.8001,4.8147,4.8483,4.8515,4.8673,4.9001,4.9001,4.9001,4.9001,4.9337,4.9518,4.9518,4.9848,5.0097,5.0304,5.1014,5.1923,5.3037,5.3789,5.4653,5.5507,5.5507,5.5507,5.5507,5.5507,5.5578,5.5636,5.5225,5.5152,5.5184,5.4724,5.4991,5.5491,5.5491,5.6036,5.668,5.6768,5.6925,5.7061,5.7163,5.7282,5.7388,5.7577,5.7673,5.7792,5.7973,5.7997,5.7973,5.7881,5.871,5.9614,6.0146,6.1111,6.204,6.2688,6.2126,6.1594,6.1594,6.1062,6.0676,6.0676,6.1392,6.1887,6.1887,6.2481,6.2805,6.2705,6.2679,6.2603,6.2493,6.2467,6.237,6.2257,6.2114,6.1978,6.1858,6.1858,6.1774,6.1633,6.1444,6.1299,3.2939,3.3112,3.3282,3.3229,3.3704,3.4312,3.4802,3.5314,3.5817,3.6222,3.6136,3.6178,3.6806,3.6749,3.68,3.7383,3.7856,3.8435,3.9297,4.0596,4.1732,4.2522,4.3037,4.3734,4.469,4.5127,4.5943,4.7404,4.752,4.7654,4.7968,4.8001,4.8147,4.8483,4.8515,4.8673,4.9001,4.9001,4.9001,4.9001,4.9337,4.9518,4.9518,4.9848,5.0183,5.0528,5.0996,5.1985,5.3298,5.3805,5.4582,5.5507,5.5507,5.5507,5.5507,5.5507,5.5396,5.5228,5.4906,5.4684,5.4536,5.4545,5.4866,5.5277,5.5651,5.6152,5.6626,5.6768,5.6899,5.7028,5.7181,5.7289,5.7412,5.7577,5.7697,5.7857,5.7973,5.7997,5.8084,5.8309,5.9066,5.9895,6.0609,6.1464,6.2235,6.2725,6.1814,6.1043,6.1043,6.0346,5.9997,6.0364,6.1117,6.1716,6.2033,6.2448,6.2679,6.2603,6.2552,6.2493,6.2415,6.2336,6.2257,6.2114,6.1978,6.1886,6.1802,6.1746,6.1633,6.1444,6.1357,6.1164,3.2978,3.3175,3.3424,3.328,3.4027,3.4856,3.5065,3.5825,3.6497,3.661,3.647,3.6479,3.701,3.6921,3.6969,3.7488,3.7671,3.8339,3.9921,4.0875,4.1709,4.2375,4.2839,4.352,4.4723,4.495,4.5733,4.7388,4.7504,4.7671,4.7968,4.8001,4.8147,4.8483,4.8515,4.8673,4.9001,4.9001,4.9001,4.9001,4.9337,4.9518,4.9518,4.9848,5.0407,5.1114,5.1265,5.229,5.3908,5.4042,5.4645,5.5507,5.5507,5.5507,5.5507,5.5507,5.519,5.4785,5.4565,5.4197,5.3904,5.4608,5.5009,5.533,5.6008,5.6402,5.6626,5.6768,5.6899,5.7028,5.7181,5.7313,5.748,5.7577,5.7721,5.7862,5.7973,5.7973,5.8152,5.8712,5.9566,6.0426,6.1078,6.1864,6.2446,6.2547,6.1196,6.0248,6.0358,5.968,5.9496,6.0309,6.1117,6.182,6.2416,6.253,6.2578,6.2578,6.2423,6.2362,6.2336,6.223,6.2114,6.1978,6.1858,6.1802,6.1774,6.1633,6.1462,6.127,6.127,6.1105,3.3112,3.3585,3.4103,3.3983,3.4376,3.5113,3.6313,3.686,3.7311,3.7954,3.7955,3.7903,3.7987,3.7831,3.7732,3.7815,3.7992,3.8409,3.9242,4.0116,4.0978,4.1829,4.3031,4.4137,4.4903,4.5685,4.6536,4.7421,4.7588,4.7754,4.8001,4.8001,4.8147,4.8483,4.8515,4.8673,4.9001,4.9001,4.9001,4.9001,4.9337,4.9518,4.9518,4.9848,5.0407,5.1149,5.1936,5.2912,5.396,5.469,5.5219,5.5507,5.5507,5.5507,5.5507,5.5507,5.519,5.4654,5.3566,5.3067,5.2944,5.3181,5.4135,5.5223,5.5348,5.5955,5.6626,5.6768,5.6899,5.7028,5.7181,5.7363,5.7559,5.7601,5.7792,5.7973,5.7997,5.7927,5.7852,5.7956,5.9182,6.02,6.0204,6.0973,6.1535,6.1452,6.0176,5.9463,6.014,5.9632,5.9496,6.0309,6.1117,6.1649,6.1734,6.2168,6.2441,6.2441,6.231,6.2177,6.2078,6.2033,6.2005,6.1996,6.1858,6.1746,6.1633,6.1444,6.127,6.1123,6.1123,6.0944,3.3229,3.3477,3.3846,3.4225,3.5136,3.6133,3.6846,3.7464,3.8003,3.8327,3.8335,3.8294,3.8209,3.8164,3.8277,3.8647,3.8711,3.9156,4.0342,4.0989,4.1626,4.2313,4.3135,4.3915,4.4493,4.5228,4.6012,4.6931,4.7358,4.7704,4.8001,4.8001,4.8147,4.8483,4.8515,4.8673,4.9001,4.9001,4.9001,4.9001,4.9337,4.9518,4.9518,4.9848,5.0631,5.1735,5.214,5.3164,5.4535,5.4926,5.5234,5.5507,5.5507,5.5507,5.5455,5.5226,5.4642,5.3995,5.3549,5.3086,5.2864,5.3735,5.4581,5.5294,5.5723,5.6206,5.6626,5.6768,5.6899,5.7028,5.7181,5.7388,5.7601,5.7601,5.7792,5.7973,5.7904,5.7839,5.7914,5.8263,5.9304,6.0065,6.0015,6.0715,6.1124,6.0635,5.967,5.9146,5.9511,5.8967,5.8877,5.9685,6.0089,6.0585,6.1323,6.1617,6.1881,6.2158,6.2141,6.206,6.1978,6.1996,6.1996,6.1996,6.1802,6.1662,6.1605,6.1346,6.1152,6.1093,6.0986,6.0805,3.3309,3.3419,3.371,3.4382,3.5612,3.6726,3.7042,3.7762,3.8408,3.842,3.8464,3.8436,3.8363,3.8537,3.8857,3.9347,3.947,3.9941,4.1237,4.1757,4.2217,4.2696,4.3152,4.3622,4.4191,4.4817,4.557,4.6519,4.7243,4.7737,4.8001,4.8001,4.8147,4.8483,4.8515,4.8673,4.9001,4.9001,4.9001,4.9001,4.9337,4.9518,4.9518,4.9848,5.0718,5.1929,5.2119,5.316,5.4748,5.4922,5.5191,5.5507,5.5507,5.5507,5.5449,5.4963,5.432,5.3689,5.377,5.354,5.3398,5.4606,5.5185,5.5561,5.6204,5.6519,5.668,5.6768,5.6925,5.7061,5.7163,5.7388,5.7601,5.7601,5.7792,5.7973,5.7881,5.7792,5.7904,5.8452,5.9169,5.9666,5.9666,6.0176,6.0377,5.9732,5.9091,5.8677,5.8677,5.8289,5.8235,5.8836,5.9258,6.0024,6.1383,6.1459,6.1602,6.1987,6.1996,6.1996,6.1996,6.1996,6.1996,6.1996,6.1746,6.1605,6.1605,6.1241,6.1093,6.1111,6.0908,6.0727,3.3309,3.3751,3.4322,3.4697,3.5337,3.6085,3.6913,3.7762,3.8436,3.856,3.8604,3.8616,3.8738,3.921,3.9585,3.9505,4.0011,4.0524,4.0818,4.1417,4.1945,4.2292,4.296,4.3668,4.4315,4.5195,4.5985,4.6551,4.744,4.7968,4.8001,4.8001,4.8147,4.8483,4.8515,4.8673,4.9001,4.9001,4.9001,4.9001,4.9337,4.9518,4.9518,4.9848,5.0442,5.1235,5.1895,5.2866,5.403,5.4713,5.5191,5.5507,5.5507,5.5507,5.5449,5.4963,5.4702,5.4458,5.3965,5.4169,5.4699,5.4916,5.5504,5.6164,5.6355,5.6573,5.6794,5.6794,5.7003,5.7206,5.7206,5.7388,5.7601,5.7601,5.7792,5.7997,5.7997,5.7792,5.7667,5.7841,5.8306,5.8696,5.8696,5.8732,5.8744,5.8544,5.8055,5.7716,5.7716,5.7875,5.8015,5.807,5.9428,6.0848,6.2196,6.2192,6.2095,6.2023,6.1996,6.1996,6.1996,6.1996,6.1996,6.1996,6.1746,6.1605,6.1605,6.1241,6.1093,6.1111,6.0908,6.0727,3.3529,3.373,3.3989,3.4172,3.5101,3.6141,3.7035,3.7901,3.852,3.8476,3.86,3.8738,3.8805,3.9231,3.9738,4.0161,4.084,4.1504,4.2036,4.2495,4.284,4.296,4.3297,4.3578,4.3751,4.49,4.5708,4.5974,4.7127,4.7853,4.8001,4.8001,4.8147,4.8483,4.8515,4.8673,4.9001,4.9001,4.9001,4.9001,4.9337,4.9518,4.9518,4.9848,5.0407,5.1132,5.1407,5.2416,5.3925,5.4204,5.4785,5.5507,5.5507,5.5507,5.5472,5.5389,5.4955,5.4464,5.4857,5.4861,5.4762,5.5362,5.5847,5.6253,5.6465,5.66,5.6715,5.6873,5.7003,5.7087,5.7163,5.7388,5.7577,5.7504,5.7745,5.7927,5.7673,5.7625,5.7601,5.7553,5.806,5.8341,5.7926,5.8203,5.829,5.7732,5.7612,5.7601,5.7601,5.7839,5.8198,5.8694,6.0054,6.1094,6.1613,6.1913,6.206,6.1978,6.1996,6.1996,6.1996,6.1996,6.1996,6.1996,6.1746,6.1605,6.1605,6.1241,6.1093,6.1093,6.0805,6.0653,3.3668,3.3694,3.3784,3.4163,3.5122,3.6238,3.709,3.7957,3.8604,3.8532,3.8766,3.8997,3.9127,3.9601,4.019,4.0872,4.1618,4.2329,4.288,4.3221,4.3419,4.3462,4.3522,4.3539,4.3402,4.4673,4.5498,4.5499,4.6864,4.7737,4.7902,4.7968,4.8115,4.8388,4.8452,4.8642,4.8909,4.897,4.9001,4.9001,4.9337,4.9607,4.9859,4.9951,5.0407,5.1114,5.1114,5.185,5.3105,5.3669,5.454,5.5507,5.5507,5.5507,5.5507,5.5666,5.5285,5.484,5.5512,5.5411,5.5133,5.5787,5.6123,5.6308,5.6519,5.668,5.6768,5.6951,5.7028,5.7061,5.7181,5.7381,5.751,5.7412,5.7649,5.7792,5.751,5.7504,5.7504,5.7431,5.7742,5.7884,5.7422,5.771,5.7822,5.7279,5.7431,5.7601,5.7601,5.7839,5.8419,5.9483,6.0541,6.1303,6.1558,6.1841,6.1996,6.1996,6.1996,6.1996,6.1996,6.1996,6.1996,6.1996,6.1746,6.1605,6.1605,6.1241,6.1093,6.1093,6.0762,6.0578,3.3684,3.371,3.3922,3.48,3.5519,3.6238,3.709,3.7984,3.8644,3.8777,3.9067,3.9423,3.9827,4.0496,4.1145,4.1513,4.2335,4.2961,4.3082,4.3265,4.3449,4.3582,4.3598,4.3539,4.3419,4.4673,4.545,4.534,4.6799,4.7704,4.7704,4.7886,4.8049,4.8195,4.8388,4.8595,4.8818,4.8909,4.9001,4.9001,4.9337,4.9894,5.0577,5.0174,5.0407,5.1097,5.1097,5.1168,5.1448,5.3187,5.454,5.5507,5.5507,5.5507,5.5507,5.5666,5.5706,5.5706,5.5861,5.5918,5.5918,5.6123,5.629,5.641,5.6573,5.6794,5.7003,5.7003,5.7105,5.7188,5.7188,5.7307,5.7388,5.7388,5.7504,5.7601,5.7601,5.7486,5.7388,5.7388,5.7289,5.7188,5.7188,5.7188,5.7188,5.7188,5.7431,5.7601,5.7601,5.7857,5.8639,6.0236,6.0889,6.154,6.2316,6.2141,6.1996,6.1996,6.1996,6.1996,6.1996,6.1996,6.1996,6.1996,6.1746,6.1605,6.1605,6.1241,6.1093,6.1093,6.0762,6.0578,3.3924,3.4422,3.4936,3.5095,3.6103,3.7124,3.7378,3.8117,3.8821,3.9094,3.8975,3.9023,3.9755,4.0319,4.0859,4.1482,4.2335,4.2961,4.3082,4.3265,4.3449,4.3582,4.3598,4.3707,4.3926,4.4907,4.56,4.5832,4.6929,4.7588,4.7704,4.7737,4.7919,4.8195,4.8388,4.8595,4.8818,4.8909,4.9001,4.9001,4.9216,4.947,4.9842,4.9951,5.0131,5.0338,5.0338,5.0702,5.1448,5.3288,5.4612,5.5507,5.5507,5.5507,5.5507,5.5537,5.5566,5.5578,5.5706,5.5764,5.5793,5.6095,5.6225,5.6318,5.6635,5.6715,5.6742,5.6951,5.7028,5.7079,5.7079,5.7163,5.7264,5.7264,5.7412,5.7553,5.7363,5.7363,5.7363,5.7282,5.7232,5.7188,5.7188,5.7188,5.7213,5.7332,5.7504,5.7874,5.8626,5.9289,6.0089,6.1135,6.1711,6.216,6.237,6.2141,6.1996,6.1996,6.1996,6.1996,6.1996,6.1996,6.1996,6.1996,6.183,6.169,6.1605,6.1357,6.1182,6.1093,6.0762,6.091,3.4095,3.4651,3.5174,3.5668,3.6476,3.7339,3.7965,3.8504,3.8942,3.9245,3.9232,3.9437,4.0185,4.0714,4.1221,4.1904,4.2514,4.293,4.3007,4.319,4.3295,4.3402,4.3402,4.3591,4.4082,4.4849,4.5489,4.596,4.6843,4.7436,4.7521,4.7638,4.7803,4.8,4.8324,4.8547,4.8675,4.8877,4.9001,4.9001,4.9138,4.926,4.9381,4.9742,5.0061,5.0354,5.0412,5.1146,5.2421,5.3549,5.4612,5.5507,5.5507,5.5507,5.5507,5.5507,5.5507,5.5537,5.5706,5.5793,5.585,5.6179,5.6318,5.6401,5.6653,5.6689,5.6715,5.6873,5.6977,5.7003,5.7003,5.7105,5.7188,5.7188,5.7313,5.7406,5.7239,5.7264,5.7307,5.7232,5.7188,5.7188,5.7188,5.7188,5.7232,5.7307,5.7734,5.8354,5.9106,6.0181,6.1062,6.1539,6.2128,6.2475,6.2475,6.2283,6.2141,6.2087,6.2087,6.206,6.1978,6.1996,6.1996,6.1996,6.1858,6.1746,6.1605,6.1386,6.1241,6.1093,6.0762,6.1034,3.4227,3.4546,3.4964,3.6357,3.6816,3.7269,3.8673,3.9023,3.9094,3.9328,3.9748,4.029,4.0954,4.1461,4.1961,4.252,4.2728,4.2868,4.2899,4.3007,4.3082,4.3113,4.3162,4.3428,4.4039,4.4707,4.5342,4.5856,4.669,4.7183,4.7217,4.7504,4.7671,4.7704,4.8227,4.8515,4.8515,4.8846,4.9001,4.9001,4.9107,4.9168,4.9199,4.953,5.0103,5.0802,5.102,5.2122,5.3774,5.3873,5.451,5.5478,5.5478,5.5507,5.5507,5.5507,5.5507,5.5537,5.5822,5.5918,5.5947,5.6273,5.6465,5.6573,5.66,5.668,5.6768,5.6768,5.6873,5.6977,5.6977,5.7087,5.7188,5.7188,5.7188,5.7188,5.7188,5.7188,5.7188,5.7188,5.7188,5.7188,5.7188,5.7188,5.7188,5.7232,5.8073,5.8848,5.9229,6.0584,6.1539,6.1686,6.224,6.2603,6.2578,6.2467,6.2336,6.2203,6.2203,6.2123,6.2023,6.1996,6.1996,6.1996,6.1886,6.1746,6.1605,6.1415,6.1241,6.1093,6.0762,6.1034,3.4105,3.4923,3.5703,3.6488,3.7607,3.8591,3.893,3.9121,3.9367,3.9836,3.9928,4.0295,4.1412,4.162,4.1839,4.2489,4.2634,4.2728,4.2868,4.293,4.2976,4.3082,4.3621,4.418,4.4724,4.544,4.609,4.6635,4.683,4.703,4.7183,4.7436,4.7588,4.7704,4.8227,4.8515,4.8515,4.8846,4.9001,4.9001,4.9032,4.9032,4.9063,4.9398,4.9692,5.0,5.075,5.1751,5.2877,5.3604,5.4433,5.5277,5.5431,5.5507,5.5507,5.5507,5.5507,5.5537,5.5822,5.5918,5.5947,5.6273,5.6428,5.6465,5.6573,5.6546,5.6492,5.6626,5.6742,5.6847,5.6847,5.7028,5.7188,5.7188,5.7188,5.7188,5.7188,5.7188,5.7188,5.7188,5.7188,5.7188,5.7188,5.7188,5.7257,5.7338,5.7723,5.8481,5.981,6.0365,6.1086,6.2251,6.2519,6.2552,6.2467,6.2415,6.2336,6.2203,6.2203,6.2123,6.2023,6.1996,6.1996,6.1996,6.1969,6.183,6.1605,6.1548,6.1404,6.1093,6.0848,6.1122,3.3704,3.4611,3.5531,3.6618,3.7943,3.904,3.9121,3.9148,3.9435,4.0327,4.0471,4.0713,4.1643,4.1933,4.2197,4.2538,4.2602,4.2634,4.2728,4.2775,4.292,4.3355,4.373,4.4333,4.5292,4.5731,4.6217,4.6862,4.6876,4.6961,4.7064,4.7251,4.742,4.7588,4.8049,4.8292,4.8356,4.8721,4.8894,4.8894,4.897,4.9001,4.9001,4.9337,4.9765,5.0338,5.1214,5.217,5.3112,5.3983,5.4657,5.5199,5.5324,5.5431,5.5507,5.5507,5.5507,5.5537,5.5735,5.5833,5.5947,5.6207,5.6346,5.6428,5.6465,5.6455,5.641,5.6465,5.6653,5.6794,5.6715,5.6951,5.7163,5.7112,5.7138,5.7188,5.7188,5.7188,5.7188,5.7188,5.7188,5.7188,5.7188,5.7188,5.7257,5.7363,5.7905,5.8598,5.9505,6.0066,6.0683,6.1384,6.1501,6.1476,6.1368,6.1419,6.1532,6.1709,6.1727,6.1804,6.2005,6.1996,6.1996,6.1996,6.1996,6.1858,6.1605,6.1605,6.1433,6.1111,6.0908,6.1153,3.3046,3.4001,3.5078,3.6662,3.7965,3.8902,3.9185,3.9094,3.9309,4.0545,4.0893,4.119,4.1811,4.2291,4.2602,4.2602,4.2602,4.2602,4.2602,4.2699,4.3007,4.3638,4.3913,4.4528,4.5694,4.5921,4.6228,4.6828,4.6876,4.6876,4.6876,4.7098,4.7285,4.747,4.7836,4.8049,4.8195,4.8612,4.8818,4.8818,4.8956,4.9001,4.9001,4.9307,4.9889,5.0691,5.158,5.249,5.3433,5.426,5.4826,5.5139,5.5169,5.5306,5.5431,5.5478,5.5507,5.5537,5.5695,5.5822,5.5947,5.6151,5.629,5.6401,5.6401,5.6401,5.6401,5.6401,5.6573,5.6742,5.6626,5.6873,5.7087,5.7003,5.7036,5.7156,5.7163,5.7181,5.7181,5.7181,5.7163,5.7188,5.7188,5.7188,5.7257,5.7356,5.8068,5.8665,5.8933,5.9681,6.0206,6.0213,6.0329,6.0353,6.0213,6.0329,6.0555,6.0982,6.112,6.1392,6.1788,6.1924,6.1996,6.1996,6.1996,6.1858,6.1605,6.1605,6.1433,6.1111,6.0938,6.1112,3.1992,3.3417,3.5053,3.6545,3.755,3.8282,3.8891,3.8942,3.9023,3.9732,4.0475,4.1324,4.2307,4.2569,4.2602,4.2602,4.2602,4.2602,4.2602,4.3136,4.3605,4.3702,4.4787,4.5597,4.5791,4.6374,4.6779,4.6876,4.6876,4.6876,4.6876,4.7098,4.7285,4.747,4.7836,4.8049,4.8195,4.8612,4.8818,4.8818,4.8956,4.9001,4.9001,4.9185,4.9402,4.9736,5.0656,5.1563,5.2455,5.3385,5.4187,5.4873,5.5126,5.5229,5.5259,5.5448,5.5507,5.5537,5.5793,5.589,5.5947,5.6273,5.6401,5.6401,5.6401,5.6401,5.6401,5.6401,5.6492,5.6626,5.66,5.6715,5.6847,5.6821,5.6847,5.6899,5.7003,5.7028,5.7028,5.7028,5.7112,5.7188,5.7188,5.7188,5.7206,5.7213,5.7546,5.802,5.8738,5.9133,5.9577,6.0158,6.0329,6.0353,6.0213,6.0329,6.0317,6.0161,6.081,6.1137,6.0973,6.1616,6.1996,6.1996,6.1996,6.1858,6.1605,6.1605,6.1433,6.1093,6.1064,6.0937,3.2396,3.3718,3.4979,3.6125,3.6884,3.76,3.8362,3.8377,3.8483,3.9588,4.0348,4.1075,4.1887,4.2327,4.2602,4.2602,4.2602,4.2602,4.2602,4.3217,4.3864,4.4269,4.5192,4.5953,4.6374,4.6698,4.6876,4.6876,4.6876,4.6876,4.6876,4.6996,4.7183,4.747,4.7637,4.7836,4.8082,4.834,4.858,4.8818,4.8956,4.9001,4.9001,4.9063,4.9185,4.9371,5.0334,5.1017,5.1546,5.2347,5.3337,5.4322,5.4425,5.482,5.5383,5.5478,5.5507,5.5507,5.5637,5.5775,5.5918,5.606,5.6245,5.6401,5.6401,5.6401,5.6401,5.6401,5.6492,5.6573,5.6492,5.6635,5.6768,5.6707,5.6707,5.6689,5.6768,5.6899,5.701,5.7105,5.7163,5.7188,5.7188,5.7188,5.7188,5.7188,5.7363,5.7656,5.8051,5.8317,5.854,5.8816,5.899,5.8996,5.8877,5.8901,5.9036,5.9297,5.9586,6.0059,6.0774,6.1154,6.1525,6.1978,6.1996,6.1858,6.1605,6.1605,6.1433,6.1093,6.0986,6.0805,3.2259,3.3399,3.4354,3.5374,3.6125,3.6891,3.7919,3.7916,3.8068,3.9345,4.0054,4.0626,4.1251,4.2049,4.2602,4.2602,4.2602,4.2602,4.2602,4.3379,4.4188,4.4723,4.5548,4.6293,4.6828,4.6876,4.6876,4.6876,4.6876,4.6876,4.6876,4.6876,4.7064,4.7486,4.752,4.7671,4.8001,4.8179,4.8468,4.8818,4.8956,4.9001,4.9001,4.9001,4.9063,4.9202,4.993,5.0488,5.0957,5.1506,5.2421,5.357,5.3791,5.4406,5.5185,5.5408,5.5507,5.5507,5.5537,5.5706,5.5918,5.5947,5.6162,5.6401,5.6401,5.6401,5.6401,5.6401,5.6465,5.6519,5.6428,5.6546,5.6662,5.6573,5.6546,5.6573,5.6653,5.6794,5.7003,5.7181,5.7188,5.7188,5.7188,5.7188,5.7188,5.7188,5.7313,5.7455,5.7553,5.7697,5.7792,5.7792,5.7927,5.7973,5.7862,5.7815,5.8,5.8476,5.8571,5.9165,6.0448,6.0701,6.1163,6.1978,6.1969,6.183,6.1605,6.1548,6.1375,6.1111,6.0908,6.0727,3.0569,3.1658,3.2849,3.4226,3.5227,3.6239,3.7672,3.7847,3.792,3.8707,3.932,3.9968,4.0622,4.1756,4.2602,4.2602,4.2602,4.2602,4.2602,4.3848,4.4755,4.4787,4.6002,4.6878,4.6876,4.6876,4.6876,4.6876,4.6876,4.6876,4.6876,4.6876,4.7064,4.7486,4.752,4.7671,4.8001,4.8324,4.8595,4.8818,4.8956,4.9001,4.9001,4.9001,4.9001,4.9001,4.9219,4.9888,5.0922,5.0957,5.1602,5.2644,5.3552,5.4015,5.4285,5.5185,5.5507,5.5507,5.5637,5.5793,5.5918,5.6123,5.6263,5.6401,5.6401,5.6401,5.6401,5.6401,5.6401,5.6401,5.6401,5.6428,5.6428,5.6428,5.6428,5.6465,5.6742,5.6794,5.6899,5.7156,5.7188,5.7188,5.7188,5.7188,5.7188,5.7188,5.7313,5.7388,5.7406,5.7649,5.7792,5.7792,5.7927,5.7997,5.7997,5.7862,5.7763,5.768,5.8262,5.8911,5.9633,6.0394,6.1163,6.1978,6.1886,6.1746,6.1605,6.1415,6.1241,6.1111,6.0908,6.0727,3.0482,3.1105,3.1824,3.3353,3.4053,3.4773,3.6256,3.6906,3.7396,3.812,3.9111,4.0046,4.0765,4.1488,4.2099,4.2522,4.2602,4.2602,4.2602,4.3881,4.4787,4.4787,4.6034,4.6876,4.6876,4.6876,4.6876,4.6876,4.6876,4.6876,4.6876,4.6876,4.7064,4.7486,4.752,4.7671,4.8001,4.8195,4.842,4.8627,4.8801,4.8925,4.9001,4.9001,4.9001,4.9001,4.9063,4.943,5.0018,5.0107,5.0745,5.1795,5.2236,5.3125,5.4145,5.4571,5.5069,5.5507,5.5549,5.5706,5.5918,5.5975,5.6189,5.6401,5.6401,5.6401,5.6401,5.6401,5.6401,5.6401,5.6401,5.6401,5.6401,5.6401,5.6401,5.6455,5.6626,5.6742,5.6847,5.7054,5.7138,5.7188,5.7188,5.7188,5.7188,5.7188,5.7239,5.7289,5.7406,5.7577,5.7697,5.7792,5.7927,5.7997,5.7997,5.7792,5.7649,5.7601,5.766,5.822,5.941,5.9754,6.0476,6.1728,6.1559,6.1501,6.1605,6.1386,6.1241,6.1093,6.0823,6.0671,2.9986,3.0505,3.1124,3.2526,3.3212,3.3959,3.5465,3.6199,3.6892,3.7866,3.8689,3.956,4.0529,4.1096,4.1685,4.255,4.2634,4.2602,4.2602,4.3881,4.4787,4.4787,4.6034,4.6876,4.6876,4.6876,4.6876,4.6876,4.6876,4.6876,4.6876,4.6876,4.7064,4.7486,4.762,4.777,4.8001,4.813,4.8292,4.8515,4.8707,4.8863,4.9001,4.9001,4.9001,4.9001,4.9124,4.9307,4.9518,4.9607,5.0147,5.098,5.1344,5.2248,5.3375,5.3707,5.4361,5.5104,5.5104,5.5408,5.5833,5.589,5.6106,5.6346,5.6401,5.6401,5.6401,5.6401,5.6401,5.6401,5.6401,5.6401,5.6401,5.6401,5.6401,5.641,5.6519,5.6662,5.6847,5.6977,5.7105,5.7188,5.7188,5.7188,5.7188,5.7188,5.7188,5.7213,5.7313,5.7504,5.7649,5.7721,5.7839,5.7927,5.7927,5.7697,5.7528,5.7528,5.7313,5.7753,5.9013,5.9285,5.998,6.123,6.1272,6.1357,6.1519,6.1328,6.1182,6.1093,6.0762,6.0547,0.0,0.0,0.0,3.1706,3.2718,3.3848,3.5375,3.5877,3.6406,3.7822,3.8058,3.8397,3.9803,4.0557,4.1334,4.2637,4.2711,4.2602,4.2602,4.3864,4.4771,4.4787,4.6018,4.6894,4.6876,4.6876,4.6876,4.6876,4.6876,4.6876,4.6876,4.6911,4.7115,4.7486,4.7836,4.8001,4.8001,4.8147,4.8292,4.8483,4.8707,4.8863,4.9001,4.9001,4.9001,4.9001,4.9367,4.9488,4.9518,4.9518,4.9784,5.0258,5.0986,5.15,5.1878,5.2612,5.3451,5.4279,5.4296,5.4892,5.5671,5.5861,5.6049,5.6225,5.6373,5.6401,5.6401,5.6401,5.6401,5.6401,5.6401,5.6401,5.6401,5.6401,5.6383,5.6401,5.6401,5.66,5.6821,5.6977,5.7087,5.7206,5.7188,5.7188,5.7188,5.7188,5.7188,5.7188,5.7188,5.7412,5.7601,5.7601,5.7721,5.7792,5.7792,5.7534,5.7388,5.7388,5.7264,5.755,5.8365,5.9049,5.9781,6.0566,6.106,6.1281,6.1281,6.1152,6.1093,6.1093,6.0762,6.0423,2.8692,0.0,0.0,0.0,0.0,0.0,3.3624,3.4808,3.586,3.6372,3.6858,3.7666,3.9224,3.9462,3.9874,4.1285,4.2246,4.2775,4.2634,4.3395,4.4204,4.4739,4.5565,4.6309,4.6828,4.6876,4.6876,4.6876,4.6876,4.6876,4.6876,4.7183,4.7403,4.752,4.7836,4.8001,4.8001,4.8033,4.8115,4.8292,4.8483,4.869,4.8863,4.8956,4.9001,4.9001,4.9199,4.935,4.9518,4.9772,4.9935,5.0097,5.0403,5.0991,5.1701,5.199,5.2709,5.3576,5.4121,5.4587,5.5012,5.5685,5.6049,5.6225,5.6373,5.6401,5.6373,5.6263,5.6318,5.6373,5.6263,5.6134,5.6077,5.6207,5.6253,5.6263,5.6373,5.6546,5.6689,5.6821,5.6977,5.7105,5.7163,5.7188,5.7188,5.7188,5.7188,5.7188,5.7188,5.7356,5.7486,5.7601,5.7625,5.7697,5.7792,5.7534,5.7388,5.7388,5.7264,5.7518,5.8228,5.8907,5.9581,6.0224,6.0829,6.1152,6.1152,6.1123,6.1093,6.1093,6.0762,6.0423,2.8938,2.908,2.9374,3.0037,0.0,0.0,3.2894,3.4112,3.5193,3.5704,3.6115,3.6757,3.8136,3.8387,3.8745,3.9919,4.0932,4.1699,4.213,4.3071,4.3864,4.4285,4.4949,4.5662,4.6358,4.6439,4.6552,4.686,4.6876,4.6876,4.6876,4.7285,4.752,4.752,4.7836,4.8001,4.8001,4.8001,4.8066,4.8195,4.842,4.8595,4.8801,4.8956,4.9001,4.9001,4.9138,4.932,4.9518,4.9772,4.9935,5.0011,5.0109,5.0483,5.1025,5.1178,5.2,5.314,5.3653,5.4336,5.5085,5.5691,5.5993,5.6123,5.6328,5.6401,5.6373,5.6253,5.6253,5.629,5.6225,5.6123,5.6021,5.6067,5.6123,5.6225,5.629,5.6428,5.6573,5.6768,5.6899,5.7036,5.7181,5.7188,5.7188,5.7188,5.7188,5.7188,5.7188,5.7332,5.7431,5.7504,5.7528,5.7553,5.7625,5.7455,5.7332,5.7332,5.7239,5.738,5.7774,5.8691,5.9382,5.9701,6.061,6.1093,6.1093,6.1093,6.1034,6.0884,6.0671,6.0423,2.9536,0.0,0.0,3.0027,3.0743,0.0,3.2563,3.3486,3.439,3.5292,3.5464,3.5768,3.6736,3.7258,3.7773,3.8439,3.903,3.9894,4.1302,4.2618,4.3508,4.3589,4.4237,4.4933,4.5629,4.5694,4.5986,4.6714,4.6828,4.6876,4.6876,4.7285,4.752,4.752,4.7836,4.8001,4.8001,4.8001,4.8066,4.8195,4.842,4.8595,4.8801,4.8956,4.9001,4.9001,4.9138,4.929,4.9488,4.9619,4.9813,5.0011,5.0011,5.008,5.0235,5.0446,5.1492,5.2851,5.3215,5.4208,5.5414,5.5758,5.589,5.5975,5.6273,5.6401,5.6373,5.6253,5.6169,5.6141,5.6197,5.6169,5.6095,5.5947,5.6049,5.6169,5.6197,5.629,5.6455,5.6733,5.6899,5.7028,5.7163,5.7188,5.7188,5.7188,5.7188,5.7188,5.7188,5.7289,5.7363,5.7388,5.7406,5.7363,5.7388,5.7282,5.7188,5.7188,5.7188,5.7188,5.7188,5.8493,5.9194,5.9194,6.0454,6.1093,6.1093,6.1093,6.0914,6.0578,6.0578,6.0423,2.9883,3.0046,3.0115,2.981,3.0465,0.0,3.0831,3.2015,3.325,3.3567,3.4121,3.484,3.5727,3.5871,3.6095,3.6829,3.7411,3.8452,4.0445,4.1466,4.2197,4.2748,4.3476,4.4204,4.4917,4.4998,4.5273,4.5953,4.6552,4.6876,4.6876,4.7285,4.752,4.752,4.7836,4.8001,4.8001,4.8001,4.8066,4.8195,4.842,4.8595,4.8801,4.8956,4.9001,4.9001,4.9138,4.9229,4.929,4.959,4.9813,5.0011,5.0011,5.008,5.0287,5.1071,5.1632,5.2204,5.3589,5.4279,5.4676,5.5483,5.5804,5.5947,5.6179,5.6318,5.6383,5.6373,5.6011,5.5713,5.6113,5.6011,5.5822,5.589,5.5918,5.5993,5.6169,5.6225,5.6318,5.66,5.6742,5.6925,5.7163,5.7188,5.7188,5.7188,5.7188,5.7188,5.7188,5.7213,5.7264,5.7406,5.7289,5.7264,5.7388,5.7282,5.7188,5.7188,5.7188,5.7188,5.7188,5.8493,5.9194,5.9194,6.0454,6.1093,6.1093,6.1093,6.0914,6.0578,6.0578,6.0423,3.0395,3.0521,3.0582,3.0125,3.0456,0.0,0.0,3.1346,3.2197,3.2763,3.3216,3.3793,3.4682,3.4702,3.4826,3.5633,3.5905,3.6566,3.7951,3.9548,4.0948,4.197,4.2423,4.3071,4.4156,4.4253,4.4674,4.5726,4.6131,4.6504,4.686,4.7183,4.7403,4.752,4.7737,4.7902,4.8001,4.8001,4.8066,4.8195,4.842,4.8595,4.8801,4.8956,4.9001,4.9001,4.9063,4.9216,4.935,4.953,4.9772,5.0011,5.0011,5.0276,5.0726,5.1356,5.2126,5.3009,5.3946,5.4559,5.501,5.5525,5.5735,5.585,5.5993,5.6049,5.6049,5.6134,5.5879,5.5666,5.5897,5.5839,5.5706,5.5775,5.5861,5.5964,5.6169,5.6235,5.6373,5.6573,5.6635,5.6794,5.7036,5.7156,5.7188,5.7188,5.7188,5.7188,5.7188,5.7188,5.7232,5.7289,5.7239,5.7188,5.7188,5.7188,5.7163,5.7087,5.7163,5.7188,5.7188,5.8493,5.9516,6.0146,6.0759,6.1093,6.1093,6.0986,6.0836,6.0578,6.0534,6.0378,3.1007,3.1011,3.1068,3.065,3.0649,3.0753,0.0,0.0,0.0,3.2044,3.2412,3.2855,3.3618,3.3691,3.386,3.4593,3.4611,3.4798,3.5513,3.7452,3.9321,4.0758,4.1209,4.1904,4.3168,4.3557,4.4172,4.5322,4.5532,4.5921,4.6633,4.6903,4.7154,4.7436,4.7621,4.7787,4.7935,4.7968,4.8082,4.826,4.842,4.8627,4.8832,4.8956,4.9001,4.9001,4.9001,4.9155,4.9428,4.9488,4.9654,4.9906,4.9964,5.0373,5.0954,5.1431,5.2381,5.3537,5.4093,5.4735,5.5297,5.5584,5.5695,5.5735,5.5861,5.5822,5.5735,5.5861,5.5775,5.5666,5.5735,5.5706,5.5706,5.5735,5.5804,5.5964,5.6169,5.6308,5.6401,5.6546,5.6573,5.6707,5.6951,5.7105,5.7163,5.7206,5.7188,5.7188,5.7188,5.7188,5.7188,5.7188,5.7188,5.7156,5.7028,5.7105,5.713,5.7003,5.7105,5.7235,5.7398,5.8682,5.9906,6.1075,6.1064,6.1034,6.1034,6.0818,6.0684,6.0596,6.0441,6.0283,3.1637,3.1707,3.1626,3.1204,3.1198,3.1023,3.0008,0.0,3.0885,3.0423,0.0,3.2374,3.2488,0.0,0.0,3.364,3.3656,3.3947,3.4782,3.5657,3.6814,3.8386,3.979,4.0934,4.1774,4.2974,4.3783,4.3945,4.4544,4.5208,4.5888,4.6122,4.6549,4.7201,4.7538,4.7704,4.7737,4.7886,4.8164,4.8452,4.8483,4.869,4.897,4.9001,4.9001,4.9001,4.9001,4.9032,4.9063,4.9367,4.9518,4.9577,4.9877,5.0062,5.0247,5.124,5.1703,5.2108,5.3725,5.4366,5.4559,5.5279,5.5607,5.5735,5.5861,5.5822,5.5735,5.5861,5.5706,5.5596,5.5822,5.5793,5.5735,5.5833,5.589,5.5964,5.6169,5.6225,5.6263,5.6401,5.6519,5.6707,5.6951,5.7028,5.7061,5.7163,5.7188,5.7188,5.7188,5.7188,5.7188,5.7188,5.7188,5.7156,5.7028,5.7028,5.7028,5.7003,5.701,5.7335,5.8057,5.9328,6.0328,6.1093,6.0908,6.083,6.083,6.0578,6.0503,6.0596,6.0441,6.0283,3.1702,3.1698,3.1752,3.1591,3.1421,3.106,3.0145,3.0066,3.0096,2.984,0.0,0.0,0.0,0.0,0.0,0.0,3.2867,3.3286,3.365,3.446,3.5748,3.778,3.9046,4.0068,4.0869,4.1873,4.2634,4.3023,4.3751,4.448,4.5176,4.5291,4.5715,4.6531,4.6815,4.7194,4.7704,4.7886,4.8115,4.8324,4.8452,4.861,4.8894,4.897,4.9001,4.9001,4.9001,4.9032,4.9124,4.926,4.9441,4.9619,4.9755,5.0164,5.0713,5.124,5.1772,5.2428,5.3725,5.4238,5.4437,5.5244,5.5537,5.5578,5.5666,5.5637,5.5578,5.5666,5.5578,5.5537,5.5637,5.5637,5.5607,5.5764,5.5833,5.5964,5.6169,5.6281,5.6318,5.6401,5.6455,5.6573,5.6847,5.6951,5.7054,5.7163,5.7188,5.7188,5.7188,5.7188,5.7188,5.7188,5.7188,5.7156,5.7028,5.7003,5.7003,5.7003,5.7436,5.7988,5.8655,5.9509,6.0349,6.1093,6.0836,6.0727,6.08,6.0516,6.0427,6.0472,6.0315,6.0417,3.2047,3.1969,3.2025,3.1845,3.1576,3.1223,3.0616,3.0099,2.9713,2.9593,2.962,0.0,0.0,0.0,3.1487,3.1711,0.0,3.2625,3.2881,3.3693,3.4995,3.6975,3.8344,3.9403,4.0038,4.0809,4.152,4.22,4.2797,4.3524,4.4447,4.4496,4.4886,4.5716,4.5979,4.6487,4.7342,4.7588,4.785,4.8195,4.842,4.8595,4.8801,4.8956,4.9001,4.9001,4.9032,4.9107,4.9199,4.926,4.9441,4.9708,4.9708,5.014,5.0804,5.0945,5.1437,5.219,5.3143,5.383,5.4437,5.5244,5.5507,5.5507,5.5507,5.5507,5.5507,5.5507,5.5507,5.5507,5.5507,5.5507,5.5537,5.5666,5.5804,5.5964,5.6169,5.6308,5.6401,5.6401,5.6401,5.651,5.6742,5.6873,5.6984,5.7163,5.7188,5.7188,5.7188,5.7188,5.7188,5.7188,5.7188,5.7112,5.6977,5.6951,5.6925,5.6899,5.7655,5.8358,5.8982,5.9534,6.0232,6.1075,6.0732,6.0609,6.0757,6.0454,6.0315,6.0333,6.0399,6.0739,3.293,3.2749,3.2627,3.195,3.1784,3.1658,3.1265,3.0674,3.0026,2.951,2.9412,2.9427,2.9443,2.9997,3.0685,0.0,3.1615,0.0,0.0,3.3501,3.43,3.5363,3.7552,3.9035,3.9067,3.9829,4.0643,4.1382,4.1585,4.2261,4.367,4.3751,4.4075,4.4804,4.5163,4.5668,4.6438,4.678,4.7353,4.8195,4.842,4.8595,4.8801,4.8956,4.9001,4.9001,4.9138,4.9199,4.9229,4.9411,4.956,4.9708,4.9708,4.983,5.0045,5.0184,5.0354,5.0617,5.1542,5.2954,5.4437,5.5244,5.5507,5.5507,5.5507,5.5507,5.5507,5.5507,5.5507,5.5507,5.5507,5.5507,5.5537,5.5666,5.5804,5.5964,5.6169,5.6308,5.6401,5.6401,5.6401,5.651,5.6742,5.6794,5.6899,5.7163,5.7188,5.7188,5.7188,5.7188,5.7188,5.7188,5.7188,5.7087,5.6821,5.6794,5.6742,5.6626,5.7379,5.8158,5.8954,5.9465,6.0161,6.1075,6.0627,6.0472,6.0609,6.0266,6.0089,6.0107,6.0897,6.1283,3.3894,3.3591,3.344,3.2773,3.2607,3.2332,3.1415,3.1014,3.0593,2.9592,2.9387,2.9248,2.8827,2.9648,3.0505,0.0,0.0,3.2218,0.0,3.3265,3.3945,3.4486,3.6163,3.7555,3.8208,3.8971,3.9766,4.0611,4.1155,4.1926,4.291,4.2958,4.3298,4.4059,4.4301,4.4852,4.5652,4.6419,4.6976,4.7368,4.8122,4.8547,4.8627,4.8877,4.9001,4.9001,4.9138,4.9199,4.9229,4.9428,4.956,4.9708,4.9708,4.9813,5.0011,5.0051,5.0149,5.0476,5.2037,5.3357,5.4408,5.5091,5.5383,5.5478,5.5354,5.5383,5.5478,5.5354,5.5306,5.5306,5.5306,5.5306,5.5354,5.5519,5.5735,5.5918,5.5993,5.6217,5.6401,5.6401,5.6465,5.66,5.6768,5.6873,5.7003,5.7163,5.7188,5.7188,5.7188,5.7188,5.7188,5.7188,5.7188,5.713,5.6951,5.6847,5.6689,5.6465,5.7297,5.788,5.8073,5.8987,5.9698,6.0161,6.0189,6.0283,6.0489,6.0234,6.0089,6.0124,6.1423,6.202,3.5125,3.4638,3.4257,3.3544,3.3377,3.3102,3.2132,3.1717,3.1297,3.0325,2.9935,2.9617,2.9196,2.9817,3.0479,0.0,0.0,0.0,0.0,3.2866,3.3432,3.3987,3.5395,3.6593,3.73,3.8089,3.888,3.978,4.0564,4.1379,4.2182,4.2457,4.2813,4.3282,4.3489,4.4037,4.4898,4.5582,4.6252,4.6908,4.766,4.8201,4.8515,4.8784,4.894,4.9001,4.9216,4.932,4.932,4.9518,4.9666,4.9784,4.9737,4.9813,5.0011,5.0011,5.0138,5.0476,5.202,5.3164,5.4004,5.4612,5.5114,5.5478,5.5259,5.5354,5.5478,5.5354,5.5306,5.5277,5.5229,5.5259,5.5306,5.5383,5.5631,5.5918,5.5918,5.6144,5.6401,5.6401,5.6465,5.66,5.6768,5.6873,5.7003,5.7163,5.7188,5.7188,5.7188,5.7188,5.7188,5.7188,5.7188,5.7264,5.7425,5.7279,5.7066,5.6921,5.7163,5.7386,5.7606,5.8265,5.8864,5.9331,5.9642,5.9861,6.0048,6.0093,6.0089,6.0142,6.1669,6.2389]}]]